[[{"header":{"parameterUnit":"m.s-1","parameterCategory":1,"la1":31.0,"la2":29.5877,"lo1":-88.7671,"lo2":-86.6584,"dy":0.0162,"dx":0.0185,"nx":115,"ny":88,"refTime":"2026-04-13T00:00:00:Z","depth":0,"parameterNumber":2,"parameterNumberName":"U-component_of_WINDS"},"data":[0.0,0.0,0.0,0.0,0.0,0.0,0.0,0.0,0.0,0.0,0.0,0.0,0.0,0.0,0.0,0.0,0.0,0.0,0.0,0.0,0.0,0.0,0.0,0.0,0.0,0.0,0.0,0.0,0.0,0.0,0.0,0.0,0.0,0.0,0.0,0.0,0.0,0.0,0.0,0.0,0.0,0.0,0.0,0.0,0.0,0.0,0.0,0.0,0.0,0.0,0.0,0.0,0.0,0.0,0.0,0.0,0.0,0.0,0.0,0.0,0.0,0.0,0.0,0.0,0.0,0.0,0.0,0.0,0.0,0.0,0.0,0.0,0.0,0.0,0.0,0.0,0.0,0.0,0.0,0.0,0.0,0.0,0.0,0.0,0.0,0.0,0.0,0.0,0.0,0.0,0.0,0.0,0.0,0.0,0.0,0.0,0.0,0.0,0.0,0.0,0.0,0.0,0.0,0.0,0.0,0.0,0.0,0.0,0.0,0.0,0.0,0.0,0.0,0.0,0.0,0.0,0.0,0.0,0.0,0.0,0.0,0.0,0.0,0.0,0.0,0.0,0.0,0.0,0.0,0.0,0.0,0.0,0.0,0.0,0.0,0.0,0.0,0.0,0.0,0.0,0.0,0.0,0.0,0.0,0.0,0.0,0.0,0.0,0.0,0.0,0.0,0.0,0.0,0.0,0.0,0.0,0.0,0.0,0.0,0.0,0.0,0.0,0.0,0.0,0.0,0.0,0.0,0.0,0.0,0.0,0.0,0.0,0.0,0.0,0.0,0.0,0.0,0.0,0.0,0.0,0.0,0.0,0.0,0.0,0.0,0.0,0.0,0.0,0.0,0.0,0.0,0.0,0.0,0.0,0.0,0.0,0.0,0.0,0.0,0.0,0.0,0.0,0.0,0.0,0.0,0.0,0.0,0.0,0.0,0.0,0.0,0.0,0.0,0.0,0.0,0.0,0.0,0.0,0.0,0.0,0.0,0.0,0.0,0.0,0.0,0.0,0.0,0.0,0.0,0.0,0.0,0.0,0.0,0.0,0.0,0.0,0.0,0.0,0.0,0.0,0.0,0.0,0.0,0.0,0.0,0.0,0.0,0.0,0.0,0.0,0.0,0.0,0.0,0.0,0.0,0.0,0.0,0.0,0.0,0.0,0.0,0.0,0.0,0.0,0.0,0.0,0.0,0.0,0.0,0.0,0.0,0.0,0.0,0.0,0.0,0.0,0.0,0.0,0.0,0.0,0.0,0.0,0.0,0.0,0.0,0.0,0.0,0.0,0.0,0.0,0.0,0.0,0.0,0.0,0.0,0.0,0.0,0.0,0.0,0.0,0.0,0.0,0.0,0.0,0.0,0.0,0.0,0.0,0.0,0.0,0.0,0.0,0.0,0.0,0.0,0.0,0.0,0.0,0.0,0.0,0.0,0.0,0.0,0.0,0.0,0.0,0.0,0.0,0.0,0.0,0.0,0.0,0.0,0.0,0.0,0.0,0.0,0.0,0.0,0.0,0.0,0.0,0.0,0.0,0.0,0.0,0.0,0.0,0.0,0.0,0.0,0.0,0.0,0.0,0.0,0.0,0.0,0.0,0.0,0.0,0.0,0.0,0.0,0.0,0.0,0.0,0.0,0.0,0.0,0.0,0.0,0.0,0.0,0.0,0.0,0.0,0.0,0.0,0.0,0.0,0.0,0.0,0.0,0.0,0.0,0.0,0.0,0.0,0.0,0.0,0.0,0.0,0.0,0.0,0.0,0.0,0.0,0.0,0.0,0.0,0.0,0.0,0.0,0.0,0.0,0.0,0.0,0.0,0.0,0.0,0.0,0.0,0.0,0.0,0.0,0.0,0.0,0.0,0.0,0.0,0.0,0.0,0.0,0.0,0.0,0.0,0.0,0.0,0.0,0.0,0.0,0.0,0.0,0.0,0.0,0.0,0.0,0.0,0.0,0.0,0.0,0.0,0.0,0.0,0.0,0.0,0.0,0.0,0.0,0.0,0.0,0.0,0.0,0.0,0.0,0.0,0.0,0.0,0.0,0.0,0.0,0.0,0.0,0.0,0.0,0.0,0.0,0.0,0.0,0.0,0.0,0.0,0.0,0.0,0.0,0.0,0.0,0.0,0.0,0.0,0.0,0.0,0.0,0.0,0.0,0.0,0.0,0.0,0.0,0.0,0.0,0.0,0.0,0.0,0.0,0.0,0.0,0.0,0.0,0.0,0.0,0.0,0.0,0.0,0.0,0.0,0.0,0.0,0.0,0.0,0.0,0.0,0.0,0.0,0.0,0.0,0.0,0.0,0.0,0.0,0.0,0.0,0.0,0.0,0.0,0.0,0.0,0.0,0.0,0.0,0.0,0.0,0.0,0.0,0.0,0.0,0.0,0.0,0.0,0.0,0.0,0.0,0.0,0.0,0.0,0.0,0.0,0.0,0.0,0.0,0.0,0.0,0.0,0.0,0.0,0.0,0.0,0.0,0.0,0.0,0.0,0.0,0.0,0.0,0.0,0.0,0.0,0.0,0.0,0.0,0.0,0.0,0.0,0.0,0.0,0.0,0.0,0.0,0.0,0.0,0.0,0.0,0.0,0.0,0.0,0.0,0.0,0.0,0.0,0.0,0.0,0.0,0.0,0.0,0.0,0.0,0.0,0.0,0.0,0.0,0.0,0.0,0.0,0.0,0.0,0.0,0.0,0.0,0.0,0.0,0.0,0.0,0.0,0.0,0.0,0.0,0.0,0.0,0.0,0.0,0.0,0.0,0.0,0.0,0.0,0.0,0.0,0.0,0.0,0.0,0.0,0.0,0.0,0.0,0.0,0.0,0.0,0.0,0.0,0.0,0.0,0.0,0.0,0.0,0.0,0.0,0.0,0.0,0.0,0.0,0.0,0.0,0.0,0.0,0.0,0.0,0.0,0.0,0.0,0.0,0.0,0.0,0.0,0.0,0.0,0.0,0.0,0.0,0.0,0.0,0.0,0.0,0.0,0.0,0.0,0.0,0.0,0.0,0.0,0.0,0.0,0.0,0.0,0.0,0.0,0.0,0.0,0.0,0.0,0.0,0.0,0.0,0.0,0.0,0.0,0.0,0.0,0.0,0.0,0.0,0.0,0.0,0.0,0.0,0.0,0.0,0.0,0.0,0.0,0.0,0.0,0.0,0.0,0.0,0.0,0.0,0.0,0.0,0.0,0.0,0.0,0.0,0.0,0.0,0.0,0.0,0.0,0.0,0.0,0.0,0.0,0.0,0.0,0.0,0.0,0.0,0.0,0.0,0.0,0.0,0.0,0.0,0.0,0.0,0.0,0.0,0.0,0.0,0.0,0.0,0.0,0.0,0.0,0.0,0.0,0.0,0.0,0.0,0.0,0.0,0.0,0.0,0.0,0.0,0.0,0.0,0.0,0.0,0.0,0.0,0.0,0.0,0.0,0.0,0.0,0.0,0.0,0.0,0.0,0.0,0.0,0.0,0.0,0.0,0.0,0.0,0.0,0.0,0.0,0.0,0.0,0.0,0.0,0.0,0.0,0.0,0.0,0.0,0.0,0.0,0.0,0.0,0.0,0.0,0.0,0.0,0.0,0.0,0.0,0.0,0.0,0.0,0.0,0.0,0.0,0.0,0.0,0.0,0.0,0.0,0.0,0.0,0.0,0.0,0.0,0.0,0.0,0.0,0.0,0.0,0.0,0.0,0.0,0.0,0.0,0.0,0.0,0.0,0.0,0.0,0.0,0.0,0.0,0.0,0.0,0.0,0.0,0.0,0.0,0.0,0.0,0.0,0.0,0.0,0.0,0.0,0.0,0.0,0.0,0.0,0.0,0.0,0.0,0.0,0.0,0.0,0.0,0.0,0.0,0.0,0.0,0.0,0.0,0.0,0.0,0.0,0.0,0.0,0.0,0.0,0.0,0.0,0.0,0.0,0.0,0.0,0.0,0.0,0.0,0.0,0.0,0.0,0.0,0.0,0.0,0.0,0.0,0.0,0.0,0.0,0.0,0.0,0.0,0.0,0.0,0.0,0.0,0.0,0.0,0.0,0.0,0.0,0.0,0.0,0.0,0.0,0.0,0.0,0.0,0.0,0.0,0.0,0.0,0.0,0.0,0.0,0.0,0.0,0.0,0.0,0.0,0.0,0.0,0.0,0.0,0.0,0.0,0.0,0.0,0.0,0.0,0.0,0.0,0.0,0.0,0.0,0.0,0.0,0.0,0.0,0.0,0.0,0.0,0.0,0.0,0.0,0.0,0.0,0.0,0.0,0.0,0.0,0.0,0.0,0.0,0.0,-1.5195,0.0,0.0,0.0,0.0,0.0,0.0,0.0,0.0,0.0,0.0,0.0,0.0,0.0,0.0,0.0,0.0,0.0,0.0,0.0,0.0,0.0,0.0,0.0,0.0,0.0,0.0,0.0,0.0,0.0,0.0,0.0,0.0,0.0,0.0,0.0,0.0,0.0,0.0,0.0,0.0,0.0,0.0,0.0,0.0,0.0,0.0,0.0,0.0,0.0,0.0,0.0,0.0,0.0,0.0,0.0,0.0,0.0,0.0,0.0,0.0,0.0,0.0,0.0,0.0,0.0,0.0,0.0,0.0,0.0,0.0,0.0,0.0,0.0,0.0,0.0,0.0,0.0,0.0,0.0,0.0,0.0,0.0,0.0,0.0,0.0,0.0,0.0,0.0,0.0,0.0,0.0,0.0,0.0,0.0,0.0,0.0,0.0,0.0,0.0,0.0,0.0,0.0,0.0,0.0,0.0,0.0,0.0,0.0,0.0,0.0,-1.5195,-1.5195,-1.5195,-1.5195,-1.5195,0.0,0.0,0.0,0.0,0.0,0.0,0.0,0.0,0.0,0.0,0.0,0.0,0.0,0.0,0.0,0.0,0.0,0.0,0.0,0.0,0.0,0.0,0.0,0.0,0.0,0.0,0.0,0.0,0.0,0.0,0.0,0.0,0.0,0.0,0.0,0.0,0.0,0.0,0.0,0.0,0.0,0.0,0.0,0.0,0.0,0.0,0.0,0.0,0.0,0.0,0.0,0.0,0.0,0.0,0.0,0.0,0.0,0.0,0.0,0.0,0.0,0.0,0.0,0.0,0.0,0.0,0.0,0.0,0.0,0.0,0.0,0.0,0.0,0.0,0.0,0.0,0.0,0.0,0.0,0.0,0.0,0.0,0.0,0.0,0.0,0.0,0.0,0.0,0.0,0.0,0.0,0.0,0.0,0.0,0.0,0.0,0.0,0.0,0.0,0.0,0.0,0.0,0.0,0.0,0.0,0.0,0.0,0.0,0.0,0.0,0.0,0.0,-1.55,-1.5503,-1.5484,0.0,0.0,0.0,0.0,0.0,0.0,0.0,0.0,0.0,0.0,0.0,0.0,0.0,0.0,0.0,0.0,0.0,0.0,0.0,0.0,0.0,0.0,0.0,0.0,0.0,0.0,0.0,0.0,0.0,0.0,0.0,0.0,0.0,0.0,0.0,0.0,0.0,0.0,0.0,0.0,0.0,0.0,0.0,0.0,0.0,0.0,0.0,0.0,0.0,0.0,0.0,0.0,0.0,0.0,0.0,0.0,0.0,0.0,0.0,0.0,0.0,0.0,0.0,0.0,0.0,0.0,0.0,0.0,0.0,0.0,0.0,0.0,0.0,0.0,0.0,0.0,0.0,0.0,0.0,0.0,0.0,0.0,0.0,0.0,0.0,0.0,0.0,0.0,0.0,0.0,0.0,0.0,0.0,0.0,0.0,0.0,0.0,0.0,0.0,0.0,0.0,0.0,0.0,0.0,0.0,0.0,0.0,0.0,0.0,0.0,-1.5577,-1.6349,-1.6391,0.0,-1.6349,0.0,0.0,0.0,0.0,0.0,0.0,0.0,0.0,0.0,0.0,0.0,0.0,0.0,0.0,0.0,0.0,0.0,0.0,0.0,0.0,0.0,0.0,0.0,0.0,0.0,0.0,0.0,0.0,0.0,0.0,0.0,0.0,0.0,0.0,0.0,0.0,0.0,0.0,0.0,0.0,0.0,0.0,0.0,0.0,0.0,0.0,0.0,0.0,0.0,0.0,0.0,0.0,0.0,0.0,0.0,0.0,0.0,0.0,0.0,0.0,0.0,0.0,0.0,0.0,0.0,0.0,0.0,0.0,0.0,0.0,0.0,0.0,0.0,0.0,0.0,0.0,0.0,0.0,0.0,0.0,0.0,0.0,0.0,0.0,0.0,0.0,0.0,0.0,0.0,0.0,0.0,0.0,0.0,0.0,0.0,0.0,0.0,0.0,0.0,0.0,0.0,0.0,0.0,0.0,0.0,0.0,0.0,0.0,0.0,0.0,0.0,-1.7199,-1.7199,-1.6984,0.0,0.0,0.0,0.0,0.0,0.0,0.0,0.0,0.0,0.0,0.0,0.0,0.0,0.0,0.0,0.0,0.0,0.0,0.0,0.0,0.0,0.0,0.0,0.0,0.0,0.0,0.0,0.0,0.0,0.0,0.0,0.0,0.0,0.0,0.0,0.0,0.0,0.0,0.0,0.0,0.0,0.0,0.0,0.0,0.0,0.0,0.0,0.0,0.0,0.0,0.0,0.0,0.0,0.0,0.0,0.0,0.0,0.0,0.0,0.0,0.0,0.0,0.0,0.0,0.0,0.0,0.0,0.0,0.0,0.0,0.0,0.0,0.0,0.0,0.0,0.0,0.0,0.0,0.0,0.0,0.0,0.0,0.0,0.0,0.0,0.0,0.0,0.0,0.0,0.0,0.0,0.0,0.0,0.0,0.0,0.0,0.0,0.0,0.0,0.0,0.0,0.0,0.0,0.0,0.0,0.0,0.0,0.0,0.0,0.0,-1.5811,0.0,-1.7314,-1.7584,-1.7334,-1.6522,0.0,0.0,0.0,0.0,0.0,0.0,0.0,0.0,0.0,0.0,0.0,0.0,0.0,0.0,0.0,0.0,0.0,0.0,0.0,0.0,0.0,0.0,0.0,0.0,0.0,0.0,0.0,0.0,0.0,0.0,0.0,0.0,0.0,0.0,0.0,0.0,0.0,0.0,0.0,0.0,0.0,0.0,0.0,0.0,0.0,0.0,0.0,0.0,0.0,0.0,0.0,0.0,0.0,0.0,0.0,0.0,0.0,0.0,0.0,0.0,0.0,0.0,0.0,0.0,0.0,0.0,0.0,0.0,0.0,0.0,0.0,0.0,0.0,0.0,0.0,0.0,0.0,0.0,0.0,0.0,0.0,0.0,0.0,0.0,0.0,0.0,0.0,0.0,0.0,0.0,0.0,0.0,0.0,0.0,0.0,0.0,0.0,0.0,0.0,0.0,0.0,0.0,0.0,0.0,0.0,0.0,0.0,0.0,0.0,-1.5269,-1.5692,-1.6561,-1.7295,-1.7314,0.0,0.0,0.0,0.0,0.0,0.0,0.0,0.0,0.0,0.0,0.0,0.0,0.0,0.0,0.0,0.0,0.0,0.0,0.0,0.0,0.0,0.0,0.0,0.0,0.0,0.0,0.0,0.0,0.0,0.0,0.0,0.0,0.0,0.0,0.0,0.0,0.0,0.0,0.0,0.0,0.0,0.0,0.0,0.0,0.0,0.0,0.0,0.0,0.0,0.0,0.0,0.0,0.0,0.0,0.0,0.0,0.0,0.0,0.0,0.0,0.0,0.0,0.0,0.0,0.0,0.0,0.0,0.0,0.0,0.0,0.0,0.0,0.0,0.0,0.0,0.0,0.0,0.0,0.0,0.0,0.0,0.0,0.0,0.0,0.0,0.0,0.0,0.0,0.0,0.0,0.0,0.0,0.0,0.0,0.0,0.0,0.0,0.0,0.0,0.0,0.0,0.0,0.0,0.0,0.0,0.0,0.0,0.0,0.0,-1.525,-1.6253,-1.6949,-1.7257,-1.7064,-1.6545,0.0,0.0,0.0,0.0,0.0,0.0,0.0,0.0,0.0,0.0,0.0,0.0,0.0,0.0,0.0,0.0,0.0,0.0,0.0,0.0,0.0,0.0,0.0,0.0,0.0,0.0,0.0,0.0,0.0,0.0,0.0,0.0,0.0,0.0,0.0,0.0,0.0,0.0,0.0,0.0,0.0,0.0,0.0,0.0,0.0,0.0,0.0,0.0,0.0,0.0,0.0,0.0,0.0,0.0,0.0,0.0,0.0,0.0,0.0,0.0,0.0,0.0,0.0,0.0,0.0,0.0,0.0,0.0,0.0,0.0,0.0,0.0,0.0,0.0,0.0,0.0,0.0,0.0,0.0,0.0,0.0,0.0,0.0,0.0,0.0,0.0,0.0,0.0,0.0,0.0,0.0,0.0,0.0,0.0,0.0,0.0,0.0,0.0,0.0,0.0,0.0,0.0,0.0,0.0,0.0,0.0,0.0,0.0,0.0,-1.6061,0.0,-1.7872,0.0,-1.7045,-1.6349,0.0,0.0,0.0,0.0,0.0,0.0,0.0,0.0,0.0,0.0,0.0,0.0,0.0,0.0,0.0,0.0,0.0,0.0,0.0,0.0,0.0,0.0,0.0,0.0,0.0,0.0,0.0,0.0,0.0,0.0,0.0,0.0,0.0,0.0,0.0,0.0,0.0,0.0,0.0,0.0,0.0,0.0,0.0,0.0,0.0,0.0,0.0,0.0,0.0,0.0,0.0,0.0,0.0,0.0,0.0,0.0,0.0,0.0,0.0,0.0,0.0,0.0,0.0,0.0,0.0,0.0,0.0,0.0,0.0,0.0,0.0,0.0,0.0,0.0,0.0,0.0,0.0,0.0,0.0,0.0,0.0,0.0,0.0,0.0,0.0,0.0,0.0,0.0,0.0,0.0,0.0,0.0,0.0,0.0,0.0,0.0,0.0,0.0,0.0,0.0,0.0,0.0,0.0,0.0,0.0,0.0,0.0,0.0,-1.7718,-1.7738,-1.8538,-1.8269,-1.6641,-1.7276,-1.6869,0.0,0.0,0.0,0.0,0.0,0.0,0.0,0.0,0.0,0.0,0.0,0.0,0.0,0.0,0.0,0.0,0.0,0.0,0.0,0.0,0.0,0.0,0.0,0.0,0.0,0.0,0.0,0.0,0.0,0.0,0.0,0.0,0.0,0.0,0.0,0.0,0.0,0.0,0.0,0.0,0.0,0.0,0.0,0.0,0.0,0.0,0.0,0.0,0.0,0.0,0.0,0.0,0.0,0.0,0.0,0.0,0.0,0.0,0.0,0.0,0.0,0.0,0.0,0.0,0.0,0.0,0.0,0.0,0.0,0.0,0.0,0.0,0.0,0.0,0.0,0.0,0.0,0.0,0.0,0.0,0.0,0.0,0.0,0.0,0.0,0.0,0.0,0.0,0.0,0.0,0.0,0.0,0.0,0.0,0.0,0.0,0.0,0.0,0.0,0.0,0.0,0.0,0.0,0.0,0.0,0.0,0.0,0.0,0.0,-1.8626,-1.9446,-1.9365,-1.8257,-1.7353,-1.6349,0.0,0.0,0.0,0.0,0.0,0.0,0.0,0.0,0.0,0.0,0.0,0.0,0.0,0.0,0.0,0.0,0.0,0.0,0.0,0.0,0.0,0.0,0.0,0.0,0.0,0.0,0.0,0.0,0.0,0.0,0.0,0.0,0.0,0.0,0.0,0.0,0.0,0.0,0.0,0.0,0.0,0.0,0.0,0.0,0.0,0.0,0.0,0.0,0.0,0.0,0.0,0.0,0.0,0.0,0.0,0.0,0.0,0.0,0.0,0.0,0.0,0.0,0.0,0.0,0.0,0.0,0.0,0.0,0.0,0.0,0.0,0.0,0.0,0.0,0.0,0.0,0.0,0.0,0.0,0.0,0.0,0.0,0.0,0.0,0.0,0.0,0.0,0.0,0.0,0.0,0.0,0.0,0.0,0.0,0.0,0.0,0.0,0.0,0.0,0.0,0.0,0.0,0.0,0.0,0.0,0.0,0.0,0.0,0.0,-2.1331,-2.1604,-2.1008,-1.9527,-1.8469,-1.7215,-1.5731,0.0,0.0,0.0,0.0,0.0,0.0,0.0,0.0,0.0,0.0,0.0,0.0,0.0,0.0,0.0,0.0,0.0,0.0,0.0,0.0,0.0,0.0,0.0,0.0,0.0,0.0,0.0,0.0,0.0,0.0,0.0,0.0,0.0,0.0,0.0,0.0,0.0,0.0,0.0,0.0,0.0,0.0,0.0,0.0,0.0,0.0,0.0,0.0,0.0,0.0,0.0,0.0,0.0,0.0,0.0,0.0,0.0,0.0,0.0,0.0,0.0,0.0,0.0,0.0,0.0,0.0,0.0,0.0,0.0,0.0,0.0,0.0,0.0,0.0,0.0,0.0,0.0,0.0,0.0,0.0,0.0,0.0,0.0,0.0,0.0,0.0,0.0,0.0,0.0,0.0,0.0,0.0,0.0,0.0,0.0,0.0,0.0,0.0,0.0,0.0,0.0,0.0,0.0,0.0,0.0,0.0,0.0,0.0,-2.5322,-2.4817,-2.3278,-2.0692,-2.05,-1.9273,0.0,0.0,0.0,0.0,0.0,0.0,0.0,0.0,0.0,0.0,0.0,0.0,0.0,0.0,0.0,0.0,0.0,0.0,0.0,0.0,0.0,0.0,0.0,0.0,0.0,0.0,0.0,0.0,0.0,0.0,0.0,0.0,0.0,0.0,0.0,0.0,0.0,0.0,0.0,0.0,0.0,0.0,0.0,0.0,0.0,0.0,0.0,0.0,0.0,0.0,0.0,0.0,0.0,0.0,0.0,0.0,0.0,0.0,0.0,0.0,0.0,0.0,0.0,0.0,0.0,0.0,0.0,0.0,0.0,0.0,0.0,0.0,0.0,0.0,0.0,0.0,0.0,0.0,0.0,0.0,0.0,0.0,0.0,0.0,0.0,0.0,0.0,0.0,0.0,0.0,0.0,0.0,0.0,0.0,0.0,0.0,0.0,0.0,0.0,0.0,0.0,0.0,0.0,0.0,0.0,0.0,0.0,0.0,0.0,-2.6269,-2.8506,-2.789,-2.4135,-2.2793,-2.1254,0.0,0.0,0.0,0.0,0.0,0.0,0.0,0.0,0.0,0.0,0.0,0.0,0.0,0.0,0.0,0.0,0.0,0.0,0.0,0.0,0.0,0.0,0.0,0.0,0.0,0.0,0.0,0.0,0.0,0.0,0.0,0.0,0.0,0.0,0.0,0.0,0.0,0.0,0.0,0.0,0.0,0.0,0.0,0.0,0.0,0.0,0.0,0.0,0.0,0.0,0.0,0.0,0.0,0.0,0.0,0.0,0.0,0.0,0.0,0.0,0.0,0.0,0.0,0.0,0.0,0.0,0.0,0.0,0.0,0.0,0.0,0.0,0.0,0.0,0.0,0.0,0.0,0.0,0.0,0.0,0.0,0.0,0.0,0.0,0.0,0.0,0.0,0.0,0.0,0.0,0.0,0.0,0.0,0.0,0.0,0.0,0.0,0.0,0.0,0.0,0.0,0.0,0.0,0.0,0.0,0.0,0.0,0.0,-2.6788,-2.8717,-3.1371,-3.1218,-2.8058,-2.5308,-2.2731,0.0,0.0,0.0,0.0,0.0,0.0,0.0,0.0,0.0,0.0,0.0,0.0,0.0,0.0,0.0,0.0,0.0,0.0,0.0,0.0,0.0,0.0,0.0,0.0,0.0,0.0,0.0,0.0,0.0,0.0,0.0,0.0,0.0,0.0,0.0,0.0,0.0,0.0,0.0,0.0,0.0,0.0,0.0,0.0,0.0,0.0,0.0,0.0,0.0,0.0,0.0,0.0,0.0,0.0,0.0,0.0,0.0,0.0,0.0,0.0,0.0,0.0,0.0,0.0,0.0,0.0,0.0,0.0,0.0,0.0,0.0,0.0,0.0,0.0,0.0,0.0,0.0,0.0,0.0,0.0,0.0,0.0,0.0,0.0,0.0,0.0,0.0,0.0,0.0,0.0,0.0,0.0,0.0,0.0,0.0,0.0,0.0,0.0,0.0,0.0,0.0,0.0,0.0,0.0,0.0,0.0,0.0,0.0,-2.8563,-3.1775,-3.3641,-3.3763,-3.1929,-2.7827,-2.4058,0.0,0.0,0.0,0.0,0.0,0.0,0.0,0.0,0.0,0.0,0.0,0.0,0.0,0.0,0.0,0.0,0.0,0.0,0.0,0.0,0.0,0.0,0.0,0.0,0.0,0.0,0.0,0.0,0.0,0.0,0.0,0.0,0.0,0.0,0.0,0.0,0.0,0.0,0.0,0.0,0.0,0.0,0.0,0.0,0.0,0.0,0.0,0.0,0.0,0.0,0.0,0.0,0.0,0.0,0.0,0.0,0.0,0.0,0.0,0.0,0.0,0.0,0.0,0.0,0.0,0.0,0.0,0.0,0.0,0.0,0.0,0.0,0.0,0.0,0.0,0.0,0.0,0.0,0.0,0.0,0.0,0.0,0.0,0.0,0.0,0.0,0.0,0.0,0.0,0.0,0.0,0.0,0.0,0.0,0.0,0.0,0.0,0.0,0.0,0.0,0.0,0.0,0.0,0.0,0.0,0.0,0.0,0.0,-3.0583,-3.2641,-3.5622,-3.6065,-3.3725,-2.9563,-2.6082,0.0,0.0,0.0,0.0,0.0,0.0,0.0,0.0,0.0,0.0,0.0,0.0,0.0,0.0,0.0,0.0,0.0,0.0,0.0,0.0,0.0,0.0,0.0,0.0,0.0,0.0,0.0,0.0,0.0,0.0,0.0,0.0,0.0,0.0,0.0,0.0,0.0,0.0,0.0,0.0,0.0,0.0,0.0,0.0,0.0,0.0,0.0,0.0,-1.1132,0.0,0.0,0.0,0.0,0.0,0.0,0.0,0.0,0.0,0.0,0.0,0.0,0.0,0.0,0.0,0.0,0.0,0.0,0.0,0.0,0.0,0.0,0.0,0.0,0.0,0.0,0.0,0.0,0.0,0.0,0.0,0.0,0.0,0.0,0.0,0.0,0.0,0.0,0.0,0.0,0.0,0.0,0.0,0.0,0.0,0.0,0.0,0.0,0.0,0.0,0.0,0.0,0.0,0.0,0.0,0.0,0.0,0.0,0.0,-3.2212,-3.4661,-3.7257,-3.7565,-3.5372,-3.2045,-2.8486,0.0,0.0,0.0,0.0,0.0,0.0,0.0,0.0,0.0,0.0,0.0,0.0,0.0,0.0,0.0,0.0,0.0,0.0,0.0,0.0,0.0,0.0,0.0,0.0,0.0,0.0,0.0,0.0,0.0,0.0,0.0,0.0,0.0,0.0,0.0,0.0,0.0,0.0,0.0,0.0,0.0,0.0,0.0,0.0,0.0,0.0,0.0,0.0,0.0,0.0,0.0,0.0,0.0,0.0,0.0,0.0,0.0,0.0,0.0,0.0,0.0,0.0,0.0,0.0,0.0,0.0,0.0,0.0,0.0,0.0,0.0,0.0,0.0,0.0,0.0,0.0,0.0,0.0,0.0,0.0,0.0,0.0,0.0,0.0,0.0,0.0,0.0,0.0,0.0,0.0,0.0,0.0,0.0,0.0,0.0,0.0,0.0,0.0,0.0,0.0,0.0,0.0,0.0,0.0,0.0,0.0,0.0,-2.9923,-3.3583,-3.6622,-3.8527,-3.8649,-3.6923,-3.443,-3.0756,-2.5885,0.0,0.0,0.0,0.0,0.0,0.0,0.0,0.0,0.0,0.0,0.0,0.0,0.0,0.0,0.0,0.0,0.0,0.0,0.0,0.0,0.0,0.0,0.0,0.0,0.0,0.0,0.0,0.0,0.0,0.0,0.0,0.0,0.0,0.0,0.0,0.0,0.0,0.0,-0.9206,-1.0512,0.0,0.0,0.0,0.0,0.0,0.0,0.0,0.0,-1.1595,0.0,0.0,0.0,0.0,0.0,0.0,0.0,0.0,0.0,0.0,0.0,0.0,0.0,0.0,0.0,0.0,0.0,0.0,0.0,0.0,0.0,0.0,0.0,0.0,0.0,0.0,0.0,0.0,0.0,0.0,0.0,0.0,0.0,0.0,0.0,0.0,0.0,0.0,0.0,0.0,0.0,0.0,0.0,0.0,0.0,0.0,0.0,0.0,0.0,0.0,0.0,0.0,0.0,0.0,0.0,0.0,-2.7428,-3.1647,-3.4737,-3.668,-3.9073,-3.9488,-3.7815,-3.5334,-3.1955,-2.7621,0.0,0.0,0.0,0.0,0.0,0.0,0.0,0.0,0.0,0.0,0.0,0.0,0.0,0.0,0.0,0.0,0.0,0.0,0.0,0.0,0.0,0.0,0.0,0.0,0.0,0.0,0.0,0.0,0.0,0.0,0.0,0.0,0.0,0.0,0.0,0.0,0.0,0.0,0.0,-1.3325,-1.3943,0.0,0.0,0.0,0.0,0.0,0.0,0.0,0.0,-1.1636,0.0,0.0,0.0,0.0,0.0,0.0,0.0,0.0,0.0,0.0,0.0,0.0,0.0,0.0,0.0,0.0,0.0,0.0,0.0,0.0,0.0,0.0,0.0,0.0,0.0,0.0,0.0,0.0,0.0,0.0,0.0,0.0,0.0,0.0,0.0,0.0,0.0,0.0,0.0,0.0,0.0,0.0,0.0,0.0,0.0,0.0,0.0,0.0,0.0,0.0,0.0,0.0,0.0,0.0,0.0,-2.8492,-3.2718,-3.568,-3.7353,-3.9431,-3.9488,-3.7373,-3.4853,-3.1743,0.0,0.0,0.0,0.0,0.0,0.0,0.0,0.0,0.0,0.0,0.0,0.0,0.0,0.0,0.0,0.0,0.0,0.0,0.0,0.0,0.0,0.0,0.0,0.0,0.0,0.0,0.0,0.0,0.0,0.0,0.0,0.0,0.0,0.0,0.0,0.0,0.0,0.0,0.0,0.0,-1.4261,-1.4781,-1.5643,0.0,0.0,0.0,0.0,0.0,0.0,-1.2614,-1.1838,0.0,0.0,0.0,0.0,0.0,0.0,0.0,0.0,0.0,0.0,0.0,0.0,0.0,0.0,0.0,0.0,0.0,0.0,0.0,0.0,0.0,0.0,0.0,0.0,0.0,0.0,0.0,0.0,0.0,0.0,0.0,0.0,0.0,0.0,0.0,0.0,0.0,0.0,0.0,0.0,0.0,0.0,0.0,0.0,0.0,0.0,0.0,0.0,0.0,0.0,0.0,0.0,0.0,0.0,0.0,-2.9588,-3.3654,-3.6565,-3.8238,-3.9727,-3.9277,-3.6757,-3.4218,-3.1237,0.0,0.0,0.0,0.0,0.0,0.0,0.0,0.0,0.0,0.0,0.0,0.0,0.0,0.0,0.0,0.0,0.0,0.0,0.0,0.0,0.0,0.0,0.0,0.0,0.0,0.0,0.0,0.0,0.0,0.0,0.0,0.0,0.0,0.0,0.0,0.0,0.0,0.0,0.0,0.0,0.0,-1.5441,-1.67,-1.5943,0.0,0.0,0.0,0.0,-1.4051,-1.3348,0.0,0.0,0.0,0.0,0.0,0.0,0.0,0.0,0.0,0.0,0.0,0.0,0.0,0.0,0.0,0.0,0.0,0.0,0.0,0.0,0.0,0.0,0.0,0.0,0.0,0.0,0.0,0.0,0.0,0.0,0.0,0.0,0.0,0.0,0.0,0.0,0.0,0.0,0.0,0.0,0.0,0.0,0.0,0.0,0.0,0.0,0.0,0.0,0.0,0.0,0.0,0.0,0.0,0.0,0.0,0.0,-3.1314,-3.4808,-3.7404,-3.9092,-4.0035,-3.9296,-3.675,-3.4218,-3.0968,0.0,0.0,0.0,0.0,0.0,0.0,0.0,0.0,0.0,0.0,0.0,0.0,0.0,0.0,0.0,0.0,0.0,0.0,0.0,0.0,0.0,0.0,0.0,0.0,0.0,0.0,0.0,0.0,0.0,0.0,0.0,0.0,0.0,0.0,0.0,0.0,0.0,0.0,0.0,0.0,0.0,-1.6688,-1.689,-1.7348,-1.7484,0.0,0.0,-1.7282,-1.6597,-1.5796,0.0,0.0,0.0,0.0,0.0,0.0,0.0,0.0,0.0,0.0,0.0,0.0,0.0,0.0,0.0,0.0,0.0,0.0,0.0,0.0,0.0,0.0,0.0,0.0,0.0,0.0,0.0,0.0,0.0,0.0,0.0,0.0,0.0,0.0,0.0,0.0,0.0,0.0,0.0,0.0,0.0,0.0,0.0,0.0,0.0,0.0,0.0,0.0,0.0,0.0,0.0,0.0,0.0,0.0,0.0,-2.6606,-3.1621,-3.5488,-3.8046,-3.9265,-4.0092,-3.9296,-3.6757,-3.3788,-3.0448,0.0,0.0,0.0,0.0,0.0,0.0,0.0,0.0,0.0,0.0,0.0,0.0,0.0,0.0,0.0,0.0,0.0,0.0,0.0,0.0,0.0,0.0,0.0,0.0,0.0,0.0,0.0,0.0,0.0,0.0,0.0,0.0,0.0,0.0,0.0,0.0,0.0,0.0,0.0,0.0,0.0,0.0,-1.8126,-1.8181,0.0,0.0,0.0,-1.8823,-1.8933,0.0,0.0,0.0,0.0,0.0,0.0,0.0,0.0,0.0,0.0,0.0,0.0,0.0,0.0,0.0,0.0,0.0,0.0,0.0,0.0,0.0,0.0,0.0,0.0,0.0,0.0,0.0,0.0,0.0,0.0,0.0,0.0,0.0,0.0,0.0,0.0,0.0,0.0,0.0,0.0,0.0,0.0,0.0,0.0,0.0,0.0,0.0,0.0,0.0,0.0,0.0,0.0,0.0,0.0,0.0,0.0,0.0,-3.1948,-3.5968,-3.8527,-3.9573,-4.0189,-3.9277,-3.675,-3.366,0.0,0.0,0.0,0.0,0.0,0.0,0.0,0.0,0.0,0.0,0.0,0.0,0.0,0.0,0.0,0.0,0.0,0.0,0.0,0.0,0.0,0.0,0.0,0.0,0.0,0.0,0.0,-0.5385,0.0,0.0,0.0,0.0,0.0,0.0,0.0,0.0,0.0,0.0,0.0,0.0,0.0,0.0,-1.8016,-1.9407,-1.9271,-1.9455,0.0,0.0,-2.0372,-2.0758,-1.963,-1.817,0.0,0.0,0.0,0.0,0.0,0.0,0.0,0.0,0.0,0.0,0.0,0.0,0.0,0.0,0.0,0.0,0.0,0.0,0.0,0.0,0.0,0.0,0.0,0.0,0.0,0.0,0.0,0.0,0.0,0.0,0.0,0.0,0.0,0.0,0.0,0.0,0.0,0.0,0.0,0.0,0.0,0.0,0.0,0.0,0.0,0.0,0.0,0.0,0.0,0.0,0.0,0.0,0.0,0.0,0.0,-3.2699,-3.6238,-3.8777,-4.0342,-4.0458,-3.9277,-3.675,-3.418,-3.0852,0.0,0.0,0.0,0.0,0.0,0.0,0.0,0.0,0.0,0.0,0.0,0.0,0.0,0.0,0.0,0.0,0.0,0.0,0.0,0.0,0.0,0.0,0.0,0.0,0.0,0.0,0.0,0.0,0.0,0.0,0.0,0.0,0.0,0.0,0.0,0.0,0.0,0.0,0.0,0.0,0.0,-1.9462,-2.0309,-2.1078,-2.1574,0.0,0.0,-2.252,-2.1831,-2.0933,-1.9787,-1.8199,0.0,0.0,0.0,0.0,0.0,0.0,0.0,0.0,0.0,0.0,0.0,0.0,0.0,0.0,0.0,0.0,0.0,0.0,0.0,0.0,0.0,0.0,0.0,0.0,0.0,0.0,0.0,0.0,0.0,0.0,0.0,0.0,0.0,0.0,0.0,0.0,0.0,0.0,0.0,0.0,0.0,0.0,0.0,0.0,0.0,0.0,0.0,0.0,0.0,0.0,0.0,0.0,0.0,-2.6472,-3.2814,-3.6276,-3.8815,-4.0419,-4.0496,-3.9304,-3.675,-3.4218,-3.091,0.0,0.0,0.0,0.0,0.0,0.0,0.0,0.0,0.0,0.0,0.0,0.0,0.0,0.0,0.0,0.0,0.0,0.0,0.0,0.0,0.0,0.0,0.0,0.0,0.0,0.0,0.0,0.0,-0.6835,-0.71,-0.8271,0.0,0.0,0.0,0.0,0.0,0.0,0.0,0.0,0.0,0.0,-1.9774,-2.1115,-2.1592,0.0,0.0,-2.2786,-2.2896,-2.2575,-2.1373,-1.9942,-1.8372,-1.6089,0.0,0.0,0.0,0.0,0.0,0.0,0.0,0.0,0.0,0.0,0.0,0.0,0.0,0.0,0.0,0.0,0.0,0.0,0.0,0.0,0.0,0.0,0.0,0.0,0.0,0.0,0.0,0.0,0.0,0.0,0.0,0.0,0.0,0.0,0.0,0.0,0.0,0.0,0.0,0.0,0.0,0.0,0.0,0.0,0.0,0.0,0.0,0.0,0.0,0.0,0.0,0.0,-2.639,-3.2833,-3.6257,-3.8815,-4.0458,-4.0265,-3.9169,-3.7115,-3.4372,-3.1166,0.0,0.0,0.0,0.0,0.0,0.0,0.0,0.0,0.0,0.0,0.0,0.0,0.0,0.0,0.0,0.0,0.0,0.0,0.0,0.0,0.0,0.0,0.0,0.0,0.0,0.0,0.0,0.0,-0.7984,-0.8232,-0.8843,0.0,0.0,0.0,0.0,0.0,0.0,0.0,0.0,0.0,0.0,-2.0564,-2.1951,-2.2565,-2.2987,-2.3327,-2.3566,-2.3566,-2.3079,-2.1795,-2.0354,-1.872,0.0,0.0,0.0,0.0,0.0,0.0,0.0,0.0,0.0,0.0,0.0,0.0,0.0,0.0,0.0,0.0,0.0,0.0,0.0,0.0,0.0,0.0,0.0,0.0,0.0,0.0,0.0,-1.6545,0.0,0.0,-1.5308,0.0,0.0,0.0,0.0,0.0,0.0,0.0,0.0,0.0,0.0,0.0,0.0,0.0,0.0,0.0,0.0,0.0,0.0,0.0,0.0,0.0,0.0,-2.6953,-3.2814,-3.6257,-3.8796,-4.0381,-3.9746,-3.8873,-3.7873,-3.468,-3.1711,-2.9063,0.0,0.0,0.0,0.0,0.0,0.0,0.0,0.0,0.0,0.0,0.0,0.0,0.0,0.0,0.0,0.0,0.0,0.0,0.0,0.0,0.0,0.0,0.0,0.0,0.0,0.0,-0.89,-0.8879,-0.89,0.0,0.0,0.0,0.0,0.0,0.0,0.0,0.0,0.0,0.0,-2.0741,-2.2033,-2.2859,-2.4328,-2.4952,-2.4263,-2.4805,-2.4787,-2.3244,-2.2299,-2.1188,0.0,0.0,0.0,0.0,0.0,0.0,0.0,0.0,0.0,0.0,0.0,0.0,0.0,0.0,0.0,0.0,0.0,0.0,0.0,0.0,0.0,0.0,0.0,0.0,0.0,0.0,0.0,-2.1739,-2.0681,0.0,0.0,0.0,0.0,0.0,0.0,0.0,0.0,0.0,0.0,0.0,-2.914,-2.9159,0.0,0.0,0.0,0.0,0.0,0.0,0.0,0.0,0.0,0.0,0.0,0.0,-2.6741,-3.1987,-3.5988,-3.8277,-3.8823,-3.915,-3.8354,-3.6385,-3.4661,-3.1284,-2.604,0.0,0.0,0.0,0.0,0.0,0.0,0.0,0.0,0.0,0.0,0.0,0.0,0.0,0.0,0.0,0.0,0.0,0.0,0.0,0.0,0.0,0.0,0.0,0.0,0.0,-1.0558,0.0,0.0,0.0,0.0,0.0,0.0,0.0,0.0,0.0,0.0,0.0,-1.7578,-1.9956,-2.1606,-2.2905,-2.3694,-2.4704,-2.5117,0.0,0.0,0.0,0.0,0.0,0.0,0.0,0.0,0.0,0.0,0.0,0.0,0.0,0.0,-1.8314,-1.5886,-1.4697,-1.4039,-1.3853,0.0,0.0,0.0,0.0,0.0,0.0,0.0,0.0,0.0,0.0,0.0,0.0,0.0,0.0,-2.626,0.0,-2.3904,0.0,0.0,0.0,0.0,0.0,0.0,0.0,0.0,-3.2718,-3.3891,-3.391,-3.4199,-3.4449,0.0,-3.4449,-3.1743,0.0,0.0,0.0,0.0,0.0,0.0,0.0,0.0,-2.7472,-3.2468,-3.6142,-3.8142,-3.845,-3.87,-3.7911,-3.5962,-3.4238,-3.1009,-2.6138,-2.4067,-2.1585,0.0,0.0,0.0,0.0,0.0,0.0,0.0,0.0,0.0,0.0,0.0,0.0,0.0,0.0,0.0,0.0,0.0,0.0,0.0,0.0,0.0,0.0,0.0,-1.1406,0.0,0.0,0.0,0.0,0.0,0.0,0.0,0.0,0.0,-1.6199,-1.7489,-1.9302,-2.1679,-2.3059,-2.4116,-2.4924,0.0,0.0,0.0,0.0,0.0,0.0,0.0,-2.2767,-2.1924,-2.1777,-2.1777,-2.1777,-2.2244,-2.2437,-2.1877,0.0,0.0,-1.8601,-1.7311,-1.651,-1.599,-1.5465,-1.521,-1.5588,-1.5856,-1.6255,0.0,0.0,0.0,0.0,0.0,0.0,0.0,0.0,-3.2218,-3.1371,0.0,-2.8025,0.0,0.0,0.0,0.0,0.0,-2.7332,0.0,0.0,-3.6892,-3.8104,-3.8142,-3.8911,-3.89,-3.82,-3.8873,-3.7495,-3.409,-2.9294,0.0,0.0,0.0,0.0,0.0,0.0,-2.9159,-3.4052,-3.6738,-3.843,-3.913,-3.843,-3.7577,-3.6596,-3.3518,-3.1079,-2.9431,-2.6951,-2.4422,-2.1911,-1.935,0.0,0.0,0.0,0.0,0.0,0.0,0.0,0.0,0.0,0.0,0.0,0.0,0.0,0.0,0.0,0.0,0.0,0.0,0.0,0.0,-1.1543,0.0,0.0,0.0,0.0,0.0,0.0,0.0,0.0,0.0,0.0,-1.8906,-2.0158,-2.1872,-2.4158,0.0,0.0,0.0,0.0,-2.8473,-2.6895,-2.8014,-2.8198,-2.5888,-2.5503,-2.5246,-2.4483,0.0,0.0,-2.442,-2.441,-2.4428,-2.4318,-2.4222,-2.3565,-2.1848,-2.0647,-1.9639,-1.8553,-1.8149,-1.807,-1.794,-1.8285,-1.8978,-4.1568,0.0,0.0,0.0,0.0,-3.5218,-3.6103,-3.6526,-3.6295,-3.5692,-3.4808,-3.3519,0.0,0.0,0.0,0.0,0.0,0.0,-3.4026,-3.7007,-3.9527,-4.0719,-4.0712,-4.0969,-4.095,-4.07,-4.0342,-3.9034,-3.6892,-3.4827,-3.1006,-2.5563,0.0,0.0,0.0,0.0,-3.0319,-3.4129,-3.7303,-3.845,-3.7469,-3.7815,-3.7296,-3.5885,-3.4372,-3.3043,-3.1952,-2.9543,-2.7039,-2.4504,-2.1439,0.0,0.0,0.0,0.0,0.0,0.0,0.0,0.0,0.0,0.0,0.0,0.0,0.0,0.0,0.0,0.0,0.0,0.0,0.0,-1.4,-1.4676,-1.5022,0.0,0.0,0.0,0.0,0.0,0.0,0.0,0.0,0.0,-2.3155,-2.3434,-2.4209,0.0,0.0,-2.8062,-2.829,-2.9189,-2.9482,-2.8455,-2.9189,0.0,0.0,-2.7989,-2.7897,-2.7647,-2.8088,-2.8484,-2.8466,-2.8484,-2.8099,-2.699,-2.6662,-2.6165,-2.4888,-2.2923,-2.1227,-2.0146,-1.9723,-1.9559,-1.9408,-1.9562,-1.9761,-4.796,-4.3102,-4.1364,-4.0212,-3.9623,-4.0585,-4.1393,-4.1989,-4.1662,-4.1239,-4.0596,-3.8808,-3.6969,-3.5084,-3.3256,0.0,0.0,0.0,-3.7418,-3.9604,-4.1777,-4.2797,-4.2816,-4.3143,-4.3124,-4.2777,-4.2258,-4.115,-3.9508,-3.8623,-3.5815,-3.1141,0.0,0.0,-2.8621,-2.9948,-3.2122,-3.5141,-3.7899,-3.8796,-3.7757,-3.7565,-3.6846,-3.5538,-3.4379,-3.3547,-3.299,-3.0615,-2.8456,-2.6598,-2.3638,-2.0832,0.0,0.0,0.0,0.0,0.0,0.0,0.0,0.0,0.0,0.0,0.0,-1.0248,0.0,0.0,0.0,0.0,-1.2986,-1.4371,-1.6022,-1.6676,0.0,0.0,0.0,0.0,0.0,0.0,0.0,-2.1139,-2.3062,-2.4918,-2.6481,-2.7027,-2.7471,-2.8006,-2.9235,-3.0104,-3.0063,0.0,-3.0943,-3.0117,-3.0644,-3.0858,-3.0081,-2.9953,-2.9941,-2.9953,-3.0338,-3.0668,-3.0687,-3.0699,-3.021,-2.9115,-2.8649,-2.8112,-2.6754,-2.5105,-2.3493,-2.2151,-2.1953,-2.1886,-2.1441,-2.135,-2.135,-5.2359,-5.1147,-4.7074,-4.5556,-4.5909,-4.5986,-4.6843,-4.8152,-4.7412,-4.7085,-4.6787,-4.3632,-4.1681,-4.0604,-3.745,0.0,-3.843,-3.9219,-4.0431,-4.2038,-4.3662,-4.4393,-4.4432,-4.521,-4.5114,-4.4182,-4.4201,-4.3335,-4.1681,-4.0931,-3.9746,-3.8007,-3.3481,-3.15,-3.2122,-3.2833,-3.443,-3.6865,-3.8565,-3.9361,-3.9284,-3.7603,-3.6346,-3.5596,-3.3981,-3.308,-3.2932,-3.0665,-2.9027,-2.8171,-2.5771,-2.3289,-2.0809,0.0,0.0,0.0,0.0,0.0,0.0,0.0,0.0,0.0,0.0,0.0,0.0,0.0,0.0,0.0,-1.458,0.0,-1.7853,-1.8122,0.0,0.0,0.0,-1.8615,-1.9419,-2.0923,-2.2216,-2.3009,0.0,0.0,-2.8912,-3.0445,-3.1075,-3.0157,-3.1198,-3.2006,-3.1938,-3.2457,-3.2613,-3.1826,-3.2243,-3.2412,-3.1715,-3.1586,-3.1586,-3.1599,-3.1599,-3.1635,-3.1604,-3.1525,-3.1195,-3.0393,-3.0137,-2.944,-2.7681,-2.7012,-2.6329,-2.4496,-2.4425,-2.4423,-2.357,-2.3359,-2.3325,-5.5452,-5.4993,-5.3292,-5.1109,-4.8787,-4.9386,-4.9513,-4.9301,-4.9068,-4.8582,-4.7865,-4.6356,-4.4831,-4.3278,-4.1239,-4.0873,-4.1893,-4.2104,-4.2739,-4.3758,-4.4806,-4.5287,-4.5306,-4.5498,-4.4816,-4.3451,-4.3374,-4.2489,-4.0893,-4.1277,-4.0642,-3.9053,-3.8399,-3.7219,-3.5577,-3.5718,-3.6757,-3.8669,-3.9688,-3.9919,-3.9284,-3.7603,-3.6603,-3.6404,-3.4789,-3.3603,-3.2928,-3.1186,-2.9846,-2.8996,-2.6634,-2.4443,-2.2559,-2.0021,0.0,0.0,0.0,0.0,0.0,0.0,0.0,0.0,0.0,-1.2425,-1.325,0.0,-1.4676,0.0,-1.7715,-1.9504,-2.0504,-2.1797,0.0,0.0,-2.312,-2.3558,-2.3784,-2.4755,-2.5466,-2.5678,-2.7357,-2.8879,-2.9876,-3.1383,-3.2508,-3.2861,-3.3535,-3.3957,-3.3869,-3.3824,-3.3776,-3.35,-3.3484,-3.344,-3.3238,-3.3238,-3.3183,-3.3238,-3.3201,-3.322,-3.322,-3.2706,-3.2063,-3.1256,-3.0478,-2.9568,-2.835,-2.7902,-2.7452,-2.6594,-2.5566,-2.4637,-2.4316,-2.4254,-2.4237,-5.6879,-5.6406,-5.592,-5.4527,-5.2641,-5.2272,-5.1625,-5.0862,-5.081,-5.0293,-4.9389,-4.8444,-4.7267,-4.5913,-4.4643,-4.4316,-4.4759,-4.4393,-4.4459,-4.4902,-4.5364,-4.5594,-4.5594,-4.5594,-4.4902,-4.3643,-4.3278,-4.2604,-4.1708,-4.1739,-4.15,-4.1008,-4.1431,-4.0758,-3.9027,-3.8238,-3.8334,-3.9304,-4.0092,-4.0112,-3.9277,-3.7988,-3.7077,-3.6661,-3.4712,-3.3249,-3.237,-3.0806,-2.9602,-2.8763,-2.7143,-2.5632,-2.4288,-2.1777,-1.9158,0.0,0.0,0.0,0.0,0.0,0.0,0.0,0.0,0.0,0.0,0.0,-1.7003,-1.8581,-2.035,-2.1754,-2.2581,-2.4548,-2.5798,-2.5798,-2.6505,-2.6981,-2.6986,-2.7428,-2.7717,-2.7736,-2.8871,-3.0135,-3.1309,-3.2576,-3.3827,-3.4982,-3.5744,-3.5789,-3.4835,-3.4434,-3.4242,-3.4173,-3.426,-3.4325,-3.4325,-3.4045,-3.3807,-3.3807,-3.3807,-3.3807,-3.3788,-3.3146,-3.2344,-3.1531,-3.065,-2.974,-2.8782,-2.8658,-2.8571,-2.8107,-2.7506,-2.6791,-2.6096,-2.5439,-2.5066,-5.7357,-5.6528,-5.652,-5.6484,-5.6283,-5.4668,-5.3476,-5.2675,-5.2658,-5.2071,-5.1032,-5.004,-4.9162,-4.8411,-4.7507,-4.7083,-4.7026,-4.6072,-4.5629,-4.5629,-4.5629,-4.5629,-4.561,-4.5629,-4.5167,-4.4311,-4.3503,-4.306,-4.2925,-4.231,-4.231,-4.2956,-4.3159,-4.2775,-4.1785,-4.0354,-3.9573,-3.9477,-4.015,-4.015,-3.9477,-3.8488,-3.7642,-3.6815,-3.4347,-3.254,-3.156,-2.9999,-2.878,-2.7981,-2.7227,-2.6505,-2.5699,-2.333,-2.1189,0.0,-1.8047,0.0,0.0,0.0,0.0,0.0,0.0,0.0,0.0,-1.7988,-1.9546,-2.1947,-2.2831,-2.3624,-2.4495,-2.678,-2.8217,-2.8261,-2.905,-2.9588,-2.9588,-2.9492,-2.9415,-2.9454,-3.0102,-3.1154,-3.2622,-3.3737,-3.4968,-3.6339,-3.7274,-3.719,-3.5638,-3.5038,-3.4828,-3.4555,-3.4895,-3.5169,-3.5096,-3.4504,-3.4009,-3.399,-3.388,-3.3752,-3.3605,-3.2944,-3.2155,-3.1366,-3.0485,-2.9704,-2.8974,-2.9318,-2.9529,-2.9281,-2.9449,-2.9257,-2.8117,-2.6877,-2.6167,-5.7382,-5.6581,-5.6581,-5.6561,-5.6521,-5.6186,-5.5519,-5.4654,-5.4613,-5.3613,-5.1987,-5.1037,-5.0521,-5.0259,-4.879,-4.8133,-4.8017,-4.6472,-4.5783,-4.5783,-4.5764,-4.5764,-4.5783,-4.5764,-4.5339,-4.4527,-4.367,-4.2897,-4.224,-4.2762,-4.2728,-4.2268,-4.3512,-4.3405,-4.1948,0.0,0.0,0.0,-4.0419,-4.0419,-4.0227,-3.8777,-3.793,-3.768,-3.4674,0.0,-3.0762,-2.9175,-2.7943,-2.7155,-2.6369,0.0,0.0,0.0,0.0,0.0,0.0,0.0,0.0,0.0,0.0,0.0,-2.4212,-2.3346,-2.0869,-2.1989,-2.3663,-2.5447,-2.5774,-2.6236,-2.7107,-2.8813,-2.9942,-2.9981,-3.1275,-3.2179,-3.216,-3.1602,-3.1198,-3.1218,-3.1352,-3.1814,-3.2833,-3.4257,-3.5603,-3.6615,-3.7469,-3.7786,-3.7347,-3.6794,-3.6517,-3.6353,-3.6112,-3.6042,-3.6046,-3.5334,-3.4766,-3.4711,-3.4211,-3.3605,-3.3018,-3.2228,-3.1403,-3.0668,-2.9776,-2.944,-2.9801,-2.9929,-3.0114,-3.044,-3.0419,-3.0043,-2.9179,-2.8254,-2.7538,-5.8027,0.0,-5.6777,-5.6621,0.0,-5.6621,-5.6325,-5.584,-5.5389,-5.4144,-5.2339,-5.141,-5.0752,-5.0287,-4.9013,-4.7984,-4.7099,-4.5844,-4.5268,-4.5268,-4.5268,-4.5467,-4.5836,-4.5836,-4.5434,-4.4644,-4.3771,-4.313,-4.2722,-4.3149,-4.3355,-4.3348,-4.4517,-4.4455,-4.3199,-4.226,-4.1373,-4.0496,-4.0496,-4.0496,-4.0439,-3.8861,-3.8007,-3.7911,0.0,0.0,0.0,0.0,0.0,0.0,0.0,0.0,0.0,0.0,0.0,-2.3785,-2.3728,-2.3497,-2.3086,-2.4956,-2.6261,-2.6593,-2.7752,-2.7582,-2.5409,-2.5702,-2.6491,-2.7717,-2.8217,-2.8654,-2.914,-3.1044,-3.2275,-3.2333,-3.341,-3.4026,-3.3603,-3.3205,-3.2756,-3.2372,-3.2295,-3.2602,-3.3436,-3.5026,-3.6365,-3.7257,-3.845,-3.9169,-3.8972,-3.7976,-3.7197,-3.7192,-3.6708,-3.6507,-3.674,-3.6193,-3.5445,-3.5078,-3.4656,-3.4087,-3.333,-3.254,-3.1861,-3.1421,-3.0742,-3.0356,-3.0675,-3.1003,-3.1308,-3.1533,-3.1639,-3.1444,-3.0768,-2.9644,-2.8629,-5.8808,-5.7851,-5.7148,-5.6738,-5.6621,-5.6621,-5.6621,-5.6543,0.0,0.0,0.0,-5.1775,-5.0903,-5.0023,-4.8996,-4.775,-4.6359,-4.539,-4.4962,-4.4966,-4.4962,-4.5317,-4.5944,-4.5944,-4.5613,-4.4939,-4.4086,-4.3658,-4.3677,-4.3658,-4.4024,-4.471,-4.5475,-4.5389,-4.4462,-4.2738,-4.1482,-4.0789,-4.0581,-4.0496,-4.0458,-3.9008,-3.8219,-3.8238,-3.5123,-3.299,-3.2024,-3.0466,-2.9172,-2.8253,-2.825,-2.8376,-2.8496,-2.7851,-2.7538,-2.7653,-2.7155,-2.6801,-2.6779,-2.8164,-2.9036,-2.9014,-3.0579,-3.0962,-2.9684,-2.8953,-2.8909,-2.9684,-3.0429,-3.0827,-3.0885,-3.2814,-3.4263,-3.441,-3.5199,-3.5404,-3.4763,-3.4487,-3.4064,-3.3314,-3.3122,-3.3391,-3.4129,-3.5795,-3.7173,-3.8007,-3.9315,-4.0457,-4.0215,-3.889,-3.7913,-3.7907,-3.7498,-3.7131,-3.7434,-3.7052,-3.6266,-3.5683,-3.5389,-3.4931,-3.4156,-3.3348,-3.2803,-3.2472,-3.1935,-3.1507,-3.1604,-3.203,-3.2519,-3.2538,-3.2813,-3.2896,-3.221,-3.0942,-2.9729,-5.9316,-5.789,-5.7773,-5.7285,-5.6621,-5.6621,-5.6621,-5.6523,-5.5638,-5.4648,-5.3652,-5.2765,-5.1908,-5.1008,-4.939,-4.8551,-4.82,-4.6702,-4.6,-4.6,-4.5981,-4.6039,-4.6156,-4.6156,-4.6117,-4.5922,-4.5106,-4.4696,-4.4677,-4.4677,-4.4718,-4.4876,-4.557,-4.5512,-4.4517,-4.2858,-4.1882,-4.168,-4.092,-4.0496,-4.0496,-3.9611,-3.9123,-3.9015,-3.6511,-3.4413,-3.2875,-3.1289,-2.9736,-2.8288,-2.8265,-2.8647,-2.9355,-2.9316,-2.957,-3.0312,-3.0876,-3.1181,-3.1102,-3.2016,-3.2822,-3.3415,-3.4905,-3.4558,-3.1641,-3.1237,-3.1506,-3.2275,-3.2506,-3.2545,-3.2622,-3.3622,-3.4641,-3.5295,-3.6045,-3.6462,-3.6276,-3.5731,-3.5007,-3.4141,-3.4032,-3.4032,-3.4436,-3.6276,-3.7719,-3.818,-3.9438,-4.0457,-4.0276,-3.9849,-3.9319,-3.8997,-3.8762,-3.8611,-3.8397,-3.786,-3.7272,-3.718,-3.6505,-3.5826,-3.4986,-3.4247,-3.3568,-3.2784,-3.221,-3.1898,-3.2326,-3.2491,-3.2868,-3.3323,-3.3429,-3.3132,-3.2551,-3.1829,-3.0939,-5.9687,-5.8594,-5.8105,-5.7402,-5.6621,-5.6621,-5.6621,-5.6562,-5.6151,-5.5465,-5.4564,-5.325,-5.2172,-5.1294,-5.0064,-4.899,-4.8051,-4.731,-4.696,-4.6921,-4.6451,-4.651,-4.6881,-4.6471,-4.6237,-4.6217,-4.5867,-4.5652,-4.5672,-4.5672,-4.5644,-4.5644,-4.5901,-4.5802,-4.5237,-4.3621,-4.2691,-4.2576,-4.1268,-4.0531,-4.0477,-3.9708,-3.9304,-3.9284,-3.6857,-3.5216,-3.4438,-3.2905,-3.1735,-3.104,-3.106,-3.1246,-3.1621,-3.166,-3.1836,-3.2246,-3.2597,-3.2788,-3.2758,-3.3468,-3.4205,-3.4963,-3.6055,-3.6096,-3.4558,-3.443,-3.4564,-3.4911,-3.4968,-3.4968,-3.4981,-3.5738,-3.643,-3.6808,-3.7623,-3.7719,-3.6911,-3.6873,-3.6327,-3.5161,-3.4911,-3.4911,-3.4891,-3.6295,-3.7507,-3.8007,-3.9457,-4.0427,-4.0427,-4.0252,-3.9958,-3.947,-3.9253,-3.9073,-3.8848,-3.8501,-3.8048,-3.7603,-3.7199,-3.6615,-3.5899,-3.533,-3.5037,-3.4651,-3.3917,-3.3568,-3.3867,-3.3537,-3.3532,-3.3615,-3.3591,-3.3175,-3.2616,-3.1725,-3.053,-6.0098,-5.914,-5.8476,-5.7578,-5.664,-5.6621,-5.6621,-5.6621,-5.6601,-5.623,-5.543,-5.3965,-5.2695,-5.166,-5.084,-4.9648,-4.8301,-4.7969,-4.7891,-4.7812,-4.7187,-4.7148,-4.75,-4.6894,-4.6504,-4.6328,-4.6289,-4.6289,-4.6289,-4.6289,-4.6288,-4.624,-4.5991,-4.5768,-4.5636,-4.3999,-4.3102,-4.2881,-4.1448,-4.0586,-4.0477,-3.9881,-3.9592,-3.9438,-3.7577,-3.6361,-3.6148,-3.4866,-3.4105,-3.397,-3.3972,-3.4079,-3.4277,-3.4277,-3.4355,-3.4531,-3.457,-3.4567,-3.4576,-3.4995,-3.5527,-3.6137,-3.6865,-3.7296,-3.7288,-3.7469,-3.7373,-3.7065,-3.693,-3.693,-3.6969,-3.7507,-3.8065,-3.8296,-3.888,-3.8623,-3.7353,-3.7603,-3.7353,-3.5846,-3.55,-3.5462,-3.5635,-3.6192,-3.7142,-3.8296,-3.9438,-4.0208,-4.0431,-4.0471,-4.0224,-3.9865,-3.9556,-3.9292,-3.9031,-3.8873,-3.8527,-3.7853,-3.7786,-3.7514,-3.7,-3.6743,-3.6541,-3.634,-3.5789,-3.5261,-3.5188,-3.4619,-3.4192,-3.4128,-3.3773,-3.3178,-3.2467,-3.1406,-3.0114,-6.0644,-5.9297,-5.9101,-5.8125,-5.666,-5.6621,-5.6621,-5.6621,-5.6621,-5.6582,-5.6328,-5.5488,-5.4121,-5.2598,-5.168,-5.0781,-4.9922,-4.9141,-4.8808,-4.8808,-4.8711,-4.8301,-4.7715,-4.7519,-4.7051,-4.6406,-4.6308,-4.6289,-4.6289,-4.6289,-4.6268,-4.6119,-4.5404,-4.5035,-4.4811,-4.3299,-4.2397,-4.2271,-4.13,-4.0687,-4.0512,-4.0439,-4.04,-4.0381,-3.9511,-3.8698,-3.7931,-3.7197,-3.6403,-3.5752,-3.5748,-3.6129,-3.6797,-3.6914,-3.7266,-3.7969,-3.8047,-3.8104,-3.7987,-3.796,-3.784,-3.801,-3.8556,-3.8977,-3.9015,-3.9669,-3.9469,-3.8315,-3.7911,-3.793,-3.7892,-3.8046,-3.845,-3.9084,-3.9284,-3.8931,-3.8065,-3.795,-3.7353,-3.5692,-3.55,-3.55,-3.5577,-3.6192,-3.7308,-3.87,-3.9246,-3.9804,-4.0373,-4.0495,-4.043,-4.0196,-3.9969,-3.9573,-3.9216,-3.9036,-3.8843,-3.86,-3.856,-3.8395,-3.8138,-3.7768,-3.7382,-3.7294,-3.6725,-3.6211,-3.6009,-3.5532,-3.4931,-3.4779,-3.4167,-3.317,-3.2283,-3.1515,-3.0609,-6.1015,-5.9883,-5.9394,-5.8203,-5.6719,-5.6621,-5.6621,-5.6621,-5.6621,-5.6621,-5.6582,-5.6211,-5.539,-5.416,-5.2793,-5.1973,-5.1621,-5.0762,-5.0371,-5.0332,-4.9902,-4.9473,-4.9082,-4.8027,-4.7383,-4.7031,-4.6562,-4.6289,-4.6289,-4.6289,-4.6289,-4.615,-4.5387,-4.4974,-4.4833,-4.3238,-4.2551,-4.2961,-4.1636,-4.1079,-4.1341,-4.0894,-4.0609,-4.0545,-3.9907,-3.9381,-3.901,-3.8309,-3.7776,-3.7463,-3.7513,-3.7693,-3.8047,-3.8066,-3.8223,-3.8574,-3.8613,-3.8592,-3.8559,-3.8451,-3.8334,-3.8282,-3.8948,-3.9343,-3.9333,-4.0042,-4.0189,-3.965,-3.9477,-3.9477,-3.945,-3.9477,-3.9631,-3.9938,-4.0015,-3.9496,-3.8142,-3.8007,-3.7353,-3.5808,-3.55,-3.55,-3.5615,-3.6192,-3.7154,-3.8354,-3.8938,-3.9611,-4.0342,-4.05,-4.0476,-4.0427,-4.027,-3.995,-3.9494,-3.9266,-3.9101,-3.8896,-3.8795,-3.875,-3.8649,-3.8505,-3.8193,-3.8193,-3.7514,-3.707,-3.7015,-3.6376,-3.5756,-3.5502,-3.4616,-3.345,-3.2406,-3.1765,-3.0812,-6.1191,-6.0293,-5.9277,-5.8125,-5.6953,-5.6699,-5.6621,-5.6621,-5.6621,-5.6621,-5.6621,-5.6621,-5.625,-5.5469,-5.3828,-5.293,-5.2598,-5.1797,-5.1387,-5.1348,-5.0801,-5.041,-5.0058,-4.8691,-4.7832,-4.748,-4.6719,-4.6289,-4.6289,-4.6289,-4.6289,-4.6152,-4.5195,-4.4648,-4.4453,-4.2928,-4.2451,-4.3037,-4.1768,-4.1387,-4.1925,-4.1252,-4.0765,-4.0685,-4.0223,-3.9975,-3.9967,-3.9487,-3.9214,-3.9232,-3.9276,-3.9316,-3.9297,-3.9316,-3.9316,-3.9316,-3.9316,-3.9296,-3.9286,-3.9176,-3.9081,-3.9077,-3.9508,-3.9727,-3.9795,-4.02,-4.0477,-4.0477,-4.0727,-4.0777,-4.0516,-4.0496,-4.0496,-4.0496,-4.0496,-3.9881,-3.8604,-3.82,-3.745,-3.6096,-3.5654,-3.5615,-3.5865,-3.6385,-3.7123,-3.8277,-3.8957,-3.9592,-4.0285,-4.0496,-4.0489,-4.0489,-4.0452,-4.0233,-3.9829,-3.9568,-3.9318,-3.9041,-3.8902,-3.8822,-3.8735,-3.8689,-3.8689,-3.8414,-3.8046,-3.786,-3.7768,-3.7221,-3.6439,-3.6062,-3.5253,-3.4092,-3.3068,-3.2367,-3.1326,-6.1191,-6.0215,-5.8652,-5.7949,-5.7773,-5.6933,-5.6621,-5.6621,-5.6621,-5.6621,-5.6621,-5.6621,-5.6582,-5.6367,-5.4687,-5.3496,-5.2676,-5.1816,-5.1387,-5.1387,-5.1328,-5.0918,-5.0176,-4.9277,-4.8418,-4.7676,-4.6738,-4.6289,-4.6289,-4.6289,-4.6289,-4.6211,-4.4726,-4.3828,-4.3672,-4.2265,-4.1655,-4.2526,-4.1776,-4.1568,-4.2151,-4.1498,-4.0977,-4.0906,-4.0831,-4.083,-4.0871,-4.0952,-4.0969,-4.1054,-4.0976,-4.1016,-4.1035,-4.1016,-4.0976,-4.0996,-4.1016,-4.0976,-4.0892,-4.0776,-4.0721,-4.071,-4.0538,-4.0609,-4.05,-4.0499,-4.0496,-4.0496,-4.12,-4.1354,-4.0746,-4.0785,-4.0727,-4.0689,-4.0612,-4.0227,-3.9342,-3.8623,-3.768,-3.6769,-3.6115,-3.6058,-3.6584,-3.6654,-3.7642,-3.8777,-3.9323,-3.9746,-4.0554,-4.0669,-4.0708,-4.07,-4.0622,-4.0407,-4.0148,-3.9846,-3.9555,-3.9287,-3.9064,-3.8917,-3.8792,-3.8707,-3.8707,-3.8707,-3.8542,-3.845,-3.8432,-3.7958,-3.7124,-3.6547,-3.6069,-3.5056,-3.4031,-3.3406,-3.2312,-6.1191,-6.0312,-5.9199,-5.8418,-5.7812,-5.6973,-5.6621,-5.6621,-5.6621,-5.6621,-5.6621,-5.6621,-5.6621,-5.6523,-5.5371,-5.4355,-5.3457,-5.2051,-5.1387,-5.1387,-5.1387,-5.125,-5.0859,-4.957,-4.8769,-4.8281,-4.6992,-4.6289,-4.6289,-4.6289,-4.6289,-4.6133,-4.5137,-4.4531,-4.4316,-4.3379,-4.3183,-4.3867,-4.322,-4.316,-4.373,-4.2629,-4.1863,-4.1797,-4.1293,-4.1037,-4.1072,-4.1084,-4.113,-4.1191,-4.1191,-4.1191,-4.1191,-4.1191,-4.1191,-4.1191,-4.1191,-4.1172,-4.111,-4.1081,-4.1037,-4.0964,-4.0833,-4.0765,-4.0681,-4.0579,-4.0496,-4.0662,-4.1316,-4.1566,-4.1585,-4.1816,-4.2143,-4.2143,-4.2132,-4.1527,-4.0412,-3.9758,-3.9084,-3.7873,-3.7257,-3.7257,-3.7488,-3.7988,-3.8796,-3.9861,-4.0527,-4.1143,-4.1873,-4.2143,-4.1978,-4.2027,-4.1684,-4.1295,-4.1217,-4.0396,-3.9794,-3.9525,-3.9292,-3.9082,-3.8935,-3.8807,-3.8777,-3.8723,-3.8707,-3.8689,-3.856,-3.8487,-3.7674,-3.7192,-3.6698,-3.6148,-3.5087,-3.4306,-3.3069,-6.1348,-6.0703,-5.9648,-5.8887,-5.8203,-5.709,-5.6621,-5.6621,-5.6621,-5.6621,-5.6621,-5.6621,-5.6621,-5.6465,-5.5683,-5.5,-5.4258,-5.2637,-5.168,-5.1426,-5.1387,-5.1387,-5.1172,-4.998,-4.916,-4.8652,-4.7129,-4.6289,-4.6289,-4.6289,-4.6289,-4.625,-4.543,-4.5019,-4.4824,-4.3867,-4.3711,-4.4219,-4.3457,-4.3398,-4.4199,-4.2891,-4.2148,-4.2226,-4.1577,-4.1123,-4.1145,-4.1131,-4.1152,-4.1191,-4.1191,-4.1191,-4.1191,-4.1191,-4.1191,-4.1191,-4.1191,-4.1172,-4.1151,-4.1148,-4.1098,-4.1059,-4.1182,-4.1198,-4.1162,-4.1256,-4.132,-4.1489,-4.2085,-4.2624,-4.2777,-4.3393,-4.3701,-4.3258,-4.3085,-4.2508,-4.115,-4.0669,-3.9688,-3.8354,-3.7911,-3.8046,-3.8411,-3.8938,-3.9573,-4.0381,-4.1046,-4.17,-4.245,-4.2412,-4.2412,-4.2547,-4.1777,-4.1308,-4.1102,-4.0497,-4.0129,-3.9881,-3.9568,-3.9337,-3.9055,-3.8931,-3.8822,-3.8735,-3.8707,-3.8707,-3.8707,-3.8707,-3.8383,-3.7879,-3.7671,-3.7278,-3.6185,-3.5101,-3.3934,-6.168,-6.1406,-5.9902,-5.9219,-5.8867,-5.7383,-5.666,-5.6621,-5.6621,-5.6621,-5.6621,-5.6621,-5.6621,-5.6445,-5.5801,-5.5312,-5.4883,-5.3457,-5.2285,-5.1582,-5.1426,-5.1387,-5.1328,-5.0488,-4.9551,-4.873,-4.7148,-4.6367,-4.6289,-4.6289,-4.6289,-4.6133,-4.5527,-4.5176,-4.5039,-4.3652,-4.3066,-4.3457,-4.248,-4.2344,-4.332,-4.2344,-4.1933,-4.2422,-4.1758,-4.1289,-4.1269,-4.123,-4.1191,-4.1191,-4.1191,-4.1191,-4.1191,-4.1191,-4.1191,-4.1191,-4.1191,-4.1191,-4.1191,-4.1191,-4.1168,-4.1184,-4.1656,-4.196,-4.1995,-4.2495,-4.2848,-4.2925,-4.358,-4.4149,-4.4245,-4.487,-4.4842,-4.3489,-4.3393,-4.2989,-4.195,-4.1008,-3.9919,-3.8584,-3.8277,-3.845,-3.9053,-3.9534,-3.9977,-4.0516,-4.09,-4.1354,-4.2162,-4.1873,-4.1258,-4.1643,-4.1604,-4.1239,-4.0857,-4.0507,-4.0419,-4.0263,-3.9933,-3.9635,-3.9248,-3.905,-3.8877,-3.878,-3.8707,-3.8707,-3.8707,-3.8707,-3.8707,-3.8349,-3.8355,-3.8149,-3.7198,-3.6093,-3.5048,-6.1699,-6.1582,-6.0508,-5.9707,-5.9101,-5.7969,-5.7187,-5.664,-5.6621,-5.6621,-5.6621,-5.6621,-5.6621,-5.6562,-5.6289,-5.5879,-5.5234,-5.4082,-5.3125,-5.2324,-5.168,-5.1387,-5.125,-5.0586,-4.9433,-4.8144,-4.748,-4.6875,-4.6387,-4.6289,-4.6289,-4.623,-4.6016,-4.5898,-4.5801,-4.4785,-4.4375,-4.4414,-4.3496,-4.3516,-4.4414,-4.3496,-4.332,-4.3926,-4.2812,-4.2012,-4.2012,-4.1484,-4.1211,-4.1191,-4.1191,-4.1191,-4.1191,-4.1191,-4.1191,-4.1191,-4.1191,-4.1191,-4.1191,-4.123,-4.1249,-4.1271,-4.1783,-4.2117,-4.2248,-4.2885,-4.3269,-4.3347,-4.3996,-4.4498,-4.4634,-4.5252,-4.5368,-4.4872,-4.4806,-4.4152,-4.272,-4.1362,-4.0419,-3.99,-3.9727,-3.9861,-4.0123,-4.0469,-4.0912,-4.1219,-4.172,-4.2374,-4.3047,-4.2431,-4.2643,-4.3258,-4.2374,-4.1412,-4.1462,-4.1396,-4.1281,-4.1158,-4.0833,-4.0356,-3.9865,-3.9327,-3.9137,-3.881,-3.8719,-3.8707,-3.8707,-3.8707,-3.8707,-3.8707,-3.8566,-3.8245,-3.7873,-3.6961,-3.5741,-6.1699,-6.1601,-6.0781,-5.9941,-5.9121,-5.8262,-5.7402,-5.668,-5.6621,-5.6621,-5.6621,-5.6621,-5.6621,-5.6621,-5.6621,-5.6308,-5.5683,-5.457,-5.3711,-5.3027,-5.1894,-5.1426,-5.1289,-5.0586,-4.9512,-4.8242,-4.7754,-4.7148,-4.6328,-4.6289,-4.6289,-4.6289,-4.6289,-4.6289,-4.6211,-4.543,-4.4883,-4.4453,-4.3652,-4.3633,-4.4141,-4.3672,-4.3789,-4.4551,-4.3301,-4.2461,-4.2344,-4.1641,-4.1191,-4.1191,-4.1191,-4.1191,-4.1191,-4.1191,-4.1191,-4.125,-4.1484,-4.166,-4.166,-4.2012,-4.2108,-4.2195,-4.2746,-4.3166,-4.3308,-4.3835,-4.4242,-4.4378,-4.4766,-4.507,-4.5186,-4.5497,-4.577,-4.5706,-4.5607,-4.4867,-4.3294,-4.1546,-4.0593,-4.04,-4.0419,-4.0496,-4.065,-4.0854,-4.1316,-4.1412,-4.1797,-4.245,-4.2931,-4.2527,-4.2835,-4.2854,-4.1931,-4.1662,-4.2297,-4.2308,-4.2192,-4.2052,-4.1887,-4.1391,-4.0885,-4.0173,-3.9742,-3.8984,-3.8707,-3.8707,-3.8707,-3.8707,-3.8707,-3.8707,-3.8692,-3.8439,-3.8045,-3.7222,-3.6237,-6.1699,-6.1582,-6.082,-6.0019,-5.916,-5.8359,-5.75,-5.668,-5.6621,-5.6621,-5.6621,-5.6621,-5.6621,-5.6621,-5.6621,-5.6543,-5.6289,-5.4746,-5.3965,-5.3437,-5.2285,-5.1387,-5.1289,-5.0723,-4.9844,-4.8808,-4.8086,-4.7246,-4.6328,-4.6289,-4.6289,-4.6289,-4.6289,-4.6289,-4.6133,-4.543,-4.459,-4.3808,-4.293,-4.293,-4.3691,-4.3027,-4.3418,-4.4961,-4.3633,-4.2754,-4.2695,-4.2051,-4.1426,-4.123,-4.1191,-4.1191,-4.1191,-4.1191,-4.1191,-4.123,-4.1953,-4.2246,-4.2539,-4.2988,-4.3437,-4.3471,-4.4078,-4.4812,-4.4663,-4.5122,-4.5587,-4.565,-4.5767,-4.5845,-4.5845,-4.5903,-4.5915,-4.5869,-4.564,-4.4778,-4.3352,-4.17,-4.0873,-4.0669,-4.0573,-4.0458,-4.04,-4.0458,-4.0546,-4.0477,-4.0631,-4.12,-4.1489,-4.1489,-4.117,-4.1073,-4.1112,-4.1739,-4.2316,-4.2624,-4.2654,-4.3504,-4.3187,-4.2557,-4.1661,-4.0827,-3.99,-3.9176,-3.8836,-3.8799,-3.8707,-3.8726,-3.8707,-3.8707,-3.8658,-3.8578,-3.818,-3.7466,-3.7106,-6.1699,-6.168,-6.1445,-6.0527,-5.9277,-5.8945,-5.7969,-5.6699,-5.6621,-5.6621,-5.6621,-5.6621,-5.6621,-5.6621,-5.6621,-5.6621,-5.6191,-5.4805,-5.3984,-5.373,-5.2207,-5.1445,-5.1387,-5.1191,-5.0312,-4.9062,-4.8613,-4.7773,-4.6387,-4.6308,-4.6289,-4.6289,-4.6289,-4.6289,-4.6172,-4.5469,-4.457,-4.3711,-4.2871,-4.2851,-4.3516,-4.3457,-4.4238,-4.5644,-4.4824,-4.4258,-4.4219,-4.3496,-4.2402,-4.1289,-4.1191,-4.1191,-4.1308,-4.1308,-4.1348,-4.1465,-4.2012,-4.2441,-4.2617,-4.3281,-4.3711,-4.3767,-4.4559,-4.4914,-4.4903,-4.5638,-4.605,-4.6125,-4.6125,-4.6105,-4.6125,-4.6105,-4.6072,-4.5896,-4.5428,-4.4715,-4.3885,-4.2547,-4.147,-4.1412,-4.0881,-4.0323,-3.9938,-4.0131,-4.0265,-3.9919,-4.015,-4.0554,-4.0816,-4.0854,-4.0746,-4.0669,-4.0823,-4.1604,-4.2239,-4.2624,-4.3346,-4.4645,-4.4537,-4.3796,-4.2536,-4.1124,-4.0044,-3.9028,-3.9197,-3.9221,-3.8927,-3.8744,-3.8726,-3.9056,-3.8967,-3.9012,-3.8658,-3.8101,-3.7923,-6.1699,-6.1699,-6.1699,-6.0723,-5.9297,-5.9199,-5.8203,-5.6836,-5.6621,-5.6621,-5.6621,-5.6621,-5.6621,-5.6621,-5.6621,-5.6621,-5.6367,-5.4785,-5.4023,-5.3711,-5.2207,-5.1465,-5.1387,-5.1367,-5.0703,-4.9531,-4.9062,-4.8125,-4.6992,-4.6504,-4.6308,-4.6289,-4.6289,-4.6289,-4.6269,-4.584,-4.5117,-4.4277,-4.3418,-4.3242,-4.3652,-4.334,-4.4101,-4.5215,-4.4941,-4.4453,-4.4355,-4.3945,-4.3183,-4.2441,-4.2266,-4.2246,-4.2246,-4.2246,-4.2246,-4.2285,-4.3027,-4.3516,-4.3652,-4.4297,-4.4766,-4.4863,-4.5312,-4.5469,-4.5577,-4.5998,-4.6248,-4.6249,-4.6249,-4.6248,-4.6228,-4.6243,-4.6175,-4.6001,-4.5512,-4.4949,-4.448,-4.288,-4.2009,-4.1667,-4.1085,-4.0223,-3.9438,-4.0015,-3.9958,-3.9708,-4.0054,-4.0342,-4.0554,-4.0496,-4.0458,-4.04,-4.0708,-4.1489,-4.2354,-4.2893,-4.3701,-4.5019,-4.5274,-4.4632,-4.3456,-4.1828,-4.0956,-4.0159,-3.9881,-3.9662,-3.9533,-3.9517,-3.9866,-4.0013,-3.9738,-3.9612,-3.9459,-3.9026,-3.8867,-6.1699,-6.1699,-6.1582,-6.0664,-5.9297,-5.9082,-5.8066,-5.6816,-5.6621,-5.6621,-5.6621,-5.6621,-5.6621,-5.6621,-5.6621,-5.6601,-5.6504,-5.498,-5.4121,-5.3398,-5.2226,-5.1387,-5.1387,-5.1387,-5.0898,-5.0078,-4.9355,-4.8496,-4.7578,-4.6777,-4.6426,-4.6348,-4.6289,-4.6289,-4.6289,-4.623,-4.582,-4.4941,-4.4219,-4.375,-4.3652,-4.3223,-4.3691,-4.4805,-4.4824,-4.4414,-4.4316,-4.4121,-4.4023,-4.3984,-4.3808,-4.3555,-4.3594,-4.3633,-4.3613,-4.3672,-4.4219,-4.4785,-4.5039,-4.5547,-4.6172,-4.6094,-4.6133,-4.6289,-4.6211,-4.625,-4.6289,-4.6289,-4.6289,-4.6289,-4.6288,-4.6305,-4.6117,-4.5894,-4.5827,-4.5453,-4.45,-4.3092,-4.2111,-4.1947,-4.1229,-4.028,-3.9819,-3.9881,-4.0208,-3.9534,-3.99,-4.0227,-4.0362,-4.0362,-4.0265,-4.015,-4.0669,-4.1393,-4.2316,-4.3201,-4.4162,-4.5201,-4.5369,-4.4987,-4.4251,-4.3026,-4.2268,-4.1571,-4.0751,-4.0501,-4.0636,-4.0783,-4.0948,-4.082,-4.0453,-4.071,-4.0877,-4.0221,-3.9869,-6.1699,-6.164,-6.0957,-6.0098,-5.916,-5.8476,-5.7598,-5.664,-5.6621,-5.6621,-5.6621,-5.6621,-5.6621,-5.6621,-5.6621,-5.6621,-5.6504,-5.541,-5.4375,-5.2871,-5.1933,-5.1426,-5.1387,-5.1387,-5.0957,-5.0332,-5.0039,-4.9101,-4.793,-4.7422,-4.6953,-4.6406,-4.6328,-4.6289,-4.6289,-4.6269,-4.5859,-4.5117,-4.4766,-4.4297,-4.375,-4.3476,-4.3769,-4.4844,-4.5371,-4.5683,-4.5742,-4.5742,-4.5742,-4.543,-4.4551,-4.3926,-4.3906,-4.3848,-4.3887,-4.4062,-4.459,-4.5039,-4.5176,-4.5801,-4.6289,-4.6289,-4.6289,-4.6289,-4.6289,-4.6289,-4.6289,-4.6289,-4.6289,-4.6289,-4.6289,-4.6288,-4.5951,-4.5491,-4.5224,-4.487,-4.3968,-4.3349,-4.2923,-4.2556,-4.1532,-4.0318,-3.9511,-4.0119,-4.0131,-3.9592,-3.9785,-4.0131,-4.0285,-4.04,-4.0265,-4.0227,-4.0631,-4.1412,-4.2566,-4.347,-4.4374,-4.5047,-4.5215,-4.5371,-4.4625,-4.3932,-4.3076,-4.2173,-4.1283,-4.13,-4.1607,-4.137,-4.1405,-4.1279,-4.126,-4.1444,-4.148,-4.1056,-4.1022,-6.1094,-6.0996,-6.0195,-5.9355,-5.8594,-5.8105,-5.7402,-5.6719,-5.6621,-5.6621,-5.6621,-5.6621,-5.6621,-5.6621,-5.6621,-5.6621,-5.6406,-5.5683,-5.4355,-5.2949,-5.2168,-5.1816,-5.1406,-5.1387,-5.1133,-5.0723,-5.0332,-4.957,-4.8887,-4.8008,-4.7344,-4.6894,-4.6543,-4.6308,-4.6289,-4.6289,-4.6094,-4.5644,-4.5156,-4.457,-4.3828,-4.3301,-4.3516,-4.4492,-4.5566,-4.6289,-4.625,-4.6269,-4.6269,-4.6074,-4.541,-4.4902,-4.4922,-4.4902,-4.4902,-4.5019,-4.5273,-4.5605,-4.5781,-4.5996,-4.6289,-4.6289,-4.6289,-4.6289,-4.6289,-4.6289,-4.6289,-4.6289,-4.6289,-4.6289,-4.6289,-4.6289,-4.584,-4.5192,-4.4941,-4.457,-4.3789,-4.3195,-4.2834,-4.2528,-4.1521,-4.0436,-4.0009,-4.0615,-4.062,-4.0331,-4.1354,-4.1662,-4.1104,-4.1123,-4.0669,-4.0593,-4.0804,-4.1489,-4.2739,-4.372,-4.4536,-4.494,-4.5,-4.5208,-4.5031,-4.4393,-4.3751,-4.2986,-4.2326,-4.2349,-4.2525,-4.2231,-4.2119,-4.2341,-4.2415,-4.2286,-4.2213,-4.2231,-4.2304,-6.0332,-6.0156,-5.9336,-5.8574,-5.7949,-5.7734,-5.7265,-5.668,-5.6621,-5.6621,-5.6621,-5.6621,-5.6621,-5.6621,-5.6621,-5.6621,-5.6367,-5.5664,-5.4394,-5.3164,-5.2695,-5.2109,-5.1562,-5.1387,-5.1367,-5.1308,-5.0801,-5.0332,-4.9726,-4.8808,-4.8027,-4.7558,-4.6914,-4.6523,-4.6367,-4.6289,-4.625,-4.6074,-4.5605,-4.4902,-4.4101,-4.3418,-4.3535,-4.4238,-4.5449,-4.625,-4.6289,-4.6289,-4.6289,-4.6289,-4.6289,-4.6289,-4.6289,-4.6289,-4.6289,-4.623,-4.6172,-4.6133,-4.6133,-4.625,-4.6289,-4.6289,-4.6289,-4.6289,-4.6289,-4.6289,-4.6289,-4.6289,-4.6289,-4.6289,-4.6289,-4.6289,-4.5859,-4.5234,-4.5,-4.4531,-4.3652,-4.284,-4.2727,-4.2463,-4.1951,-4.105,-4.101,-4.1405,-4.125,-4.1339,-4.2401,-4.2893,-4.2277,-4.1662,-4.1123,-4.0739,-4.0873,-4.1623,-4.2854,-4.3701,-4.4556,-4.4613,-4.4682,-4.4938,-4.5131,-4.4824,-4.4279,-4.4083,-4.3701,-4.3523,-4.3323,-4.3139,-4.3159,-4.3512,-4.3349,-4.2965,-4.3094,-4.3424,-4.3351,-6.0,-5.9336,-5.8476,-5.8027,-5.7773,-5.7148,-5.6777,-5.664,-5.6621,-5.6621,-5.6621,-5.6621,-5.6621,-5.6621,-5.6621,-5.6621,-5.6387,-5.5742,-5.4785,-5.3691,-5.3105,-5.2324,-5.1543,-5.1387,-5.1387,-5.1387,-5.1152,-5.082,-5.0371,-4.9844,-4.8906,-4.7891,-4.7422,-4.7051,-4.6523,-4.6289,-4.6289,-4.6289,-4.6035,-4.5508,-4.4766,-4.4473,-4.4355,-4.4746,-4.5723,-4.6211,-4.6289,-4.6289,-4.6289,-4.6289,-4.6289,-4.6289,-4.6289,-4.6289,-4.6289,-4.6289,-4.6289,-4.6289,-4.6289,-4.6289,-4.6289,-4.6289,-4.6289,-4.6289,-4.6289,-4.6289,-4.6289,-4.6289,-4.6289,-4.6289,-4.6289,-4.6289,-4.5859,-4.5312,-4.4902,-4.4414,-4.3281,-4.3062,-4.3357,-4.3285,-4.2604,-4.2047,-4.2169,-4.2357,-4.2493,-4.2587,-4.3195,-4.3247,-4.2585,-4.195,-4.1354,-4.1046,-4.0835,-4.1835,-4.297,-4.3682,-4.4335,-4.4209,-4.4269,-4.4561,-4.4777,-4.4953,-4.4801,-4.4567,-4.4265,-4.3924,-4.382,-4.3798,-4.3701,-4.3649,-4.3582,-4.3496,-4.3479,-4.3479,-4.3479,-5.8887,-5.8457,-5.7578,-5.7226,-5.7148,-5.6797,-5.6621,-5.6621,-5.6621,-5.6621,-5.6621,-5.6621,-5.6621,-5.6621,-5.6621,-5.6621,-5.6445,-5.623,-5.5234,-5.416,-5.3516,-5.2617,-5.1543,-5.1387,-5.1387,-5.1387,-5.1367,-5.123,-5.0801,-5.0351,-4.9726,-4.9004,-4.8144,-4.7363,-4.6933,-4.6543,-4.6367,-4.6308,-4.625,-4.5879,-4.5098,-4.5019,-4.5019,-4.5234,-4.5781,-4.625,-4.6289,-4.6289,-4.6289,-4.6289,-4.6289,-4.6289,-4.6289,-4.6289,-4.6289,-4.6289,-4.6289,-4.6289,-4.6289,-4.6289,-4.6289,-4.6289,-4.6289,-4.6289,-4.6289,-4.6289,-4.6289,-4.6289,-4.6289,-4.6289,-4.6289,-4.6289,-4.5859,-4.5234,-4.5019,-4.4414,-4.3613,-4.3594,-4.3867,-4.4121,-4.3546,-4.3139,-4.3166,-4.3412,-4.3729,-4.3971,-4.4171,-4.3676,-4.2997,-4.2624,-4.2143,-4.1662,-4.1546,-4.2297,-4.322,-4.3758,-4.4162,-4.4008,-4.4047,-4.4311,-4.468,-4.4996,-4.5074,-4.4943,-4.4624,-4.4346,-4.4132,-4.4038,-4.3905,-4.3749,-4.3615,-4.3513,-4.3496,-4.3479,-4.3479,-5.7772,-5.7558,-5.6874,-5.6621,-5.6621,-5.6621,-5.6621,-5.6621,-5.6621,-5.6621,-5.6621,-5.6621,-5.6621,-5.6621,-5.6621,-5.6621,-5.6621,-5.6582,-5.5566,-5.4258,-5.3906,-5.3066,-5.1816,-5.1387,-5.1387,-5.1387,-5.1387,-5.1387,-5.1211,-5.0801,-5.043,-4.9785,-4.8613,-4.7832,-4.75,-4.6973,-4.6582,-4.6308,-4.6269,-4.5879,-4.541,-4.5098,-4.5137,-4.5273,-4.5937,-4.6289,-4.6289,-4.6289,-4.6289,-4.6289,-4.6289,-4.6289,-4.6289,-4.6289,-4.6289,-4.6289,-4.6289,-4.6289,-4.6289,-4.6289,-4.6289,-4.6289,-4.6289,-4.6289,-4.6289,-4.6289,-4.6289,-4.6289,-4.6289,-4.6289,-4.6289,-4.6289,-4.5996,-4.5586,-4.5293,-4.5,-4.4394,-4.4258,-4.4551,-4.457,-4.4277,-4.428,-4.4362,-4.4501,-4.4824,-4.4773,-4.4932,-4.449,-4.3907,-4.3863,-4.3393,-4.2643,-4.2489,-4.2989,-4.3566,-4.3893,-4.4105,-4.3978,-4.4105,-4.4357,-4.4793,-4.5218,-4.5217,-4.5222,-4.5126,-4.4849,-4.458,-4.4256,-4.4072,-4.3876,-4.3666,-4.3531,-4.3496,-4.3479,-4.3479,-5.7361,-5.6665,-5.6632,-5.6617,-5.66,-5.6601,-5.6621,-5.6621,-5.6621,-5.6621,-5.6621,-5.6621,-5.6621,-5.6621,-5.6621,-5.6621,-5.6621,-5.6504,-5.5664,-5.4199,-5.3945,-5.3086,-5.1621,-5.1406,-5.1387,-5.1387,-5.1387,-5.1387,-5.1348,-5.1211,-5.084,-5.0254,-4.9863,-4.9219,-4.8008,-4.748,-4.707,-4.6465,-4.6328,-4.623,-4.5996,-4.543,-4.5527,-4.5937,-4.6211,-4.6289,-4.6289,-4.6289,-4.6289,-4.6289,-4.6289,-4.6289,-4.6289,-4.6289,-4.6289,-4.6289,-4.6289,-4.6289,-4.6289,-4.6289,-4.6289,-4.6289,-4.6289,-4.6289,-4.6289,-4.6289,-4.6289,-4.6289,-4.6289,-4.6289,-4.6289,-4.6289,-4.6211,-4.6133,-4.5937,-4.5586,-4.5117,-4.5058,-4.5351,-4.5351,-4.5137,-4.5431,-4.5636,-4.5764,-4.5872,-4.5762,-4.5546,-4.511,-4.4694,-4.4515,-4.4489,-4.3739,-4.3201,-4.3605,-4.4143,-4.4432,-4.4412,-4.4209,-4.4335,-4.4547,-4.4906,-4.5321,-4.5463,-4.5448,-4.539,-4.521,-4.4875,-4.4544,-4.425,-4.3983,-4.373,-4.3599,-4.3496,-4.3479,-4.3479,-5.6654,-5.6394,-5.6463,-5.6502,-5.6554,-5.6581,-5.6621,-5.6621,-5.6621,-5.6621,-5.6621,-5.6621,-5.6621,-5.6621,-5.6621,-5.6621,-5.6621,-5.6621,-5.5644,-5.4297,-5.3848,-5.3066,-5.1758,-5.1387,-5.1387,-5.1387,-5.1387,-5.1387,-5.1387,-5.1367,-5.1152,-5.0879,-5.043,-4.9902,-4.8789,-4.8047,-4.75,-4.6992,-4.6621,-4.6308,-4.6211,-4.5976,-4.5898,-4.6269,-4.6289,-4.6289,-4.6289,-4.6289,-4.6289,-4.6289,-4.6289,-4.6289,-4.6289,-4.6289,-4.6289,-4.6289,-4.6289,-4.6289,-4.6289,-4.6289,-4.6289,-4.6289,-4.6289,-4.6289,-4.6289,-4.6289,-4.6289,-4.6289,-4.6289,-4.6289,-4.6289,-4.6289,-4.6289,-4.6289,-4.6289,-4.6133,-4.5859,-4.6035,-4.6094,-4.6055,-4.6016,-4.6113,-4.6191,-4.614,-4.6052,-4.593,-4.5802,-4.5541,-4.5052,-4.4666,-4.4737,-4.4786,-4.4316,-4.4105,-4.4671,-4.5114,-4.5094,-4.496,-4.494,-4.5105,-4.5163,-4.5393,-4.5537,-4.5594,-4.5513,-4.5321,-4.5065,-4.4758,-4.4402,-4.4087,-4.3795,-4.3649,-4.3479,-4.3479,-4.3351,-5.6073,-5.62,-5.6313,-5.6405,-5.6491,-5.6535,-5.6562,-5.6582,-5.6562,-5.6582,-5.658,-5.6582,-5.6582,-5.6621,-5.6621,-5.6621,-5.6621,-5.6621,-5.5527,-5.4512,-5.3789,-5.2969,-5.1875,-5.1387,-5.1387,-5.1387,-5.1387,-5.1387,-5.1387,-5.1387,-5.1387,-5.1367,-5.0879,-5.0371,-4.9824,-4.8789,-4.7793,-4.6992,-4.6269,-4.6055,-4.6172,-4.6016,-4.6074,-4.6211,-4.6289,-4.6289,-4.6289,-4.6289,-4.6289,-4.6289,-4.6289,-4.6289,-4.6289,-4.6289,-4.6289,-4.6289,-4.6289,-4.6289,-4.6289,-4.6289,-4.6289,-4.6289,-4.6289,-4.6289,-4.6289,-4.6289,-4.6289,-4.6289,-4.6289,-4.6289,-4.6289,-4.6289,-4.6289,-4.6289,-4.6289,-4.6289,-4.6289,-4.6289,-4.6289,-4.623,-4.6172,-4.6211,-4.625,-4.623,-4.6153,-4.6057,-4.5959,-4.586,-4.5462,-4.495,-4.5015,-4.521,-4.5075,-4.4729,-4.5017,-4.5441,-4.5537,-4.5518,-4.5498,-4.5498,-4.5421,-4.546,-4.5556,-4.5594,-4.5594,-4.5458,-4.5205,-4.4875,-4.4519,-4.4173,-4.3876,-4.3632,-4.3479,-4.3461,-4.3075,-5.5817,-5.5959,-5.6205,-5.6323,-5.6406,-5.6458,-5.6493,-5.6489,-5.6511,-5.6491,-5.6491,-5.6522,-5.6528,-5.6574,-5.6598,-5.6601,-5.6621,-5.6621,-5.5508,-5.4492,-5.3848,-5.293,-5.1914,-5.1387,-5.1387,-5.1387,-5.1386,-5.1384,-5.1381,-5.1379,-5.1384,-5.1348,-5.1191,-5.0801,-5.0234,-4.9355,-4.7988,-4.7012,-4.6035,-4.5879,-4.5957,-4.582,-4.5664,-4.6172,-4.6289,-4.6289,-4.6289,-4.6289,-4.6289,-4.6289,-4.6289,-4.6289,-4.6289,-4.6289,-4.6289,-4.6289,-4.6289,-4.6289,-4.6289,-4.6289,-4.6289,-4.6289,-4.6289,-4.6289,-4.6289,-4.6289,-4.6289,-4.6289,-4.6289,-4.6289,-4.6289,-4.6289,-4.6289,-4.6289,-4.625,-4.6113,-4.6152,-4.6269,-4.6269,-4.6289,-4.6289,-4.6289,-4.6289,-4.6269,-4.623,-4.6123,-4.5998,-4.5902,-4.5766,-4.5379,-4.5417,-4.5498,-4.5518,-4.5402,-4.5336,-4.546,-4.5383,-4.5364,-4.5344,-4.5421,-4.5479,-4.5556,-4.5594,-4.5594,-4.5586,-4.5467,-4.5319,-4.4946,-4.4572,-4.4217,-4.3905,-4.3614,-4.3369,-4.3277,-4.2635,-5.5756,-5.5866,-5.6012,-5.6116,-5.6222,-5.6285,-5.6316,-5.6316,-5.6316,-5.6316,-5.632,-5.6354,-5.6405,-5.6469,-5.6528,-5.6558,-5.6601,-5.6621,-5.5488,-5.4512,-5.3789,-5.293,-5.1953,-5.1426,-5.1387,-5.1387,-5.1385,-5.1335,-5.1281,-5.132,-5.1302,-5.1312,-5.1362,-5.1269,-5.0723,-4.998,-4.8711,-4.7519,-4.6738,-4.6641,-4.6113,-4.6074,-4.5957,-4.623,-4.6289,-4.6289,-4.6289,-4.6289,-4.6289,-4.6289,-4.6289,-4.6289,-4.6289,-4.6289,-4.6289,-4.6289,-4.6289,-4.6289,-4.6289,-4.6289,-4.6289,-4.6289,-4.6289,-4.6289,-4.6289,-4.6289,-4.6289,-4.6289,-4.6289,-4.6289,-4.6289,-4.6289,-4.6289,-4.6289,-4.6211,-4.6055,-4.6035,-4.6172,-4.6113,-4.6074,-4.6191,-4.6289,-4.6289,-4.6289,-4.6244,-4.6186,-4.6052,-4.5942,-4.5796,-4.5673,-4.5618,-4.5594,-4.5594,-4.5594,-4.5537,-4.5383,-4.519,-4.521,-4.5229,-4.5325,-4.546,-4.5556,-4.5594,-4.5594,-4.5577,-4.5495,-4.5291,-4.4981,-4.4624,-4.4275,-4.3921,-4.3548,-4.3332,-4.3167,-4.2525,-5.5735,-5.5776,-5.5808,-5.5928,-5.6071,-5.6155,-5.6179,-5.616,-5.6179,-5.616,-5.6166,-5.6241,-5.6308,-5.6381,-5.6453,-5.6522,-5.6555,-5.6445,-5.5605,-5.4785,-5.4004,-5.3104,-5.2148,-5.1543,-5.1387,-5.1386,-5.1401,-5.1346,-5.1233,-5.1263,-5.1261,-5.1272,-5.1299,-5.1318,-5.1191,-5.0566,-4.9433,-4.834,-4.793,-4.7773,-4.7148,-4.6836,-4.6699,-4.666,-4.6504,-4.6289,-4.6289,-4.6289,-4.6289,-4.6289,-4.6289,-4.6289,-4.6289,-4.6289,-4.6289,-4.6289,-4.6289,-4.6289,-4.6289,-4.6289,-4.6289,-4.6289,-4.6289,-4.6289,-4.6289,-4.6289,-4.6289,-4.6289,-4.6289,-4.6289,-4.6289,-4.6289,-4.6289,-4.6289,-4.6289,-4.6172,-4.6055,-4.6094,-4.5937,-4.582,-4.6035,-4.6289,-4.6289,-4.6289,-4.6246,-4.6188,-4.6031,-4.5934,-4.5854,-4.5727,-4.562,-4.5594,-4.5594,-4.5594,-4.5575,-4.521,-4.4913,-4.5248,-4.5267,-4.5267,-4.5374,-4.5498,-4.5594,-4.5594,-4.5568,-4.5523,-4.5341,-4.5074,-4.4726,-4.4365,-4.3949,-4.3548,-4.346,-4.324,-4.2818,-5.5684,-5.5695,-5.5695,-5.5817,-5.5993,-5.6064,-5.6102,-5.6075,-5.6075,-5.6056,-5.6083,-5.6161,-5.6224,-5.6286,-5.6331,-5.6404,-5.6458,-5.6445,-5.5899,-5.504,-5.4406,-5.3518,-5.2628,-5.1948,-5.1581,-5.1425,-5.1379,-5.1332,-5.1193,-5.1246,-5.1234,-5.121,-5.1229,-5.1308,-5.1308,-5.0605,-4.9746,-4.9004,-4.8906,-4.8769,-4.8418,-4.7871,-4.7637,-4.7441,-4.6875,-4.6582,-4.6562,-4.6348,-4.6328,-4.6289,-4.6289,-4.6289,-4.6289,-4.6289,-4.6289,-4.6289,-4.6289,-4.6289,-4.6289,-4.6289,-4.6289,-4.6289,-4.6289,-4.6289,-4.6289,-4.6289,-4.6289,-4.6289,-4.6289,-4.6289,-4.6289,-4.6308,-4.6308,-4.6289,-4.6289,-4.6113,-4.5976,-4.6113,-4.5976,-4.5723,-4.5996,-4.6289,-4.6289,-4.6289,-4.625,-4.6165,-4.6014,-4.593,-4.5885,-4.5771,-4.5654,-4.5603,-4.5603,-4.5594,-4.5479,-4.4874,-4.4682,-4.5066,-4.5316,-4.5364,-4.5421,-4.5537,-4.5594,-4.5594,-4.5577,-4.5541,-4.54,-4.5203,-4.4837,-4.4443,-4.3968,-4.3615,-4.3529,-4.3386,-4.3019,-5.5684,-5.5684,-5.5684,-5.5726,-5.5798,-5.5837,-5.5827,-5.5847,-5.5827,-5.5837,-5.5856,-5.5958,-5.599,-5.6056,-5.6167,-5.6241,-5.6299,-5.6269,-5.584,-5.508,-5.4706,-5.3763,-5.2889,-5.2383,-5.1947,-5.154,-5.1394,-5.1283,-5.1131,-5.1172,-5.1103,-5.1066,-5.1133,-5.1265,-5.1328,-5.101,-5.0566,-4.9922,-4.9707,-4.9512,-4.8965,-4.8652,-4.8457,-4.8418,-4.7598,-4.7109,-4.7012,-4.666,-4.6328,-4.6289,-4.6289,-4.6289,-4.6289,-4.6289,-4.6289,-4.6289,-4.6289,-4.6289,-4.6289,-4.6289,-4.6289,-4.6289,-4.6367,-4.6387,-4.6308,-4.6308,-4.6289,-4.6387,-4.6543,-4.6504,-4.6289,-4.6328,-4.6328,-4.6308,-4.6191,-4.582,-4.5723,-4.6055,-4.6133,-4.5723,-4.5742,-4.6211,-4.6406,-4.6601,-4.6621,-4.6549,-4.6443,-4.6103,-4.5972,-4.5821,-4.5687,-4.5665,-4.564,-4.5603,-4.5402,-4.4893,-4.4739,-4.5066,-4.5364,-4.5518,-4.5575,-4.5441,-4.5575,-4.5556,-4.5586,-4.5587,-4.5438,-4.5253,-4.4927,-4.4506,-4.4143,-4.3763,-4.3565,-4.3513,-4.3369,-5.5684,-5.5684,-5.5684,-5.5684,-5.5684,-5.5684,-5.5684,-5.5684,-5.5684,-5.5684,-5.5735,-5.5817,-5.5884,-5.5932,-5.6013,-5.6095,-5.6161,-5.6148,-5.607,-5.5293,-5.4999,-5.4362,-5.3634,-5.2855,-5.2356,-5.186,-5.1468,-5.1261,-5.1069,-5.1068,-5.1017,-5.0977,-5.0991,-5.1138,-5.1242,-5.1167,-5.108,-5.0639,-5.0566,-5.041,-4.9941,-4.959,-4.9355,-4.9004,-4.834,-4.7558,-4.7363,-4.6914,-4.6328,-4.6348,-4.6348,-4.6348,-4.6348,-4.6328,-4.6308,-4.6289,-4.6289,-4.6289,-4.6289,-4.6289,-4.6289,-4.6289,-4.6543,-4.6738,-4.6855,-4.7187,-4.7305,-4.7324,-4.7129,-4.7148,-4.7148,-4.709,-4.7051,-4.707,-4.6973,-4.666,-4.666,-4.707,-4.6797,-4.6308,-4.5898,-4.6289,-4.6719,-4.6875,-4.7051,-4.6983,-4.6903,-4.6508,-4.6119,-4.5905,-4.5754,-4.57,-4.5654,-4.562,-4.543,-4.5028,-4.4951,-4.5105,-4.5133,-4.5114,-4.5105,-4.4893,-4.5201,-4.5537,-4.5566,-4.5568,-4.5504,-4.5312,-4.5052,-4.4788,-4.4479,-4.4099,-4.3699,-4.3583,-4.3548,-5.5684,-5.5684,-5.5684,-5.5684,-5.5684,-5.5684,-5.5684,-5.5684,-5.5684,-5.5684,-5.5695,-5.5766,-5.5817,-5.5903,-5.5958,-5.5999,-5.6044,-5.606,-5.6002,-5.5831,-5.535,-5.4937,-5.4348,-5.3513,-5.2896,-5.2389,-5.1895,-5.1381,-5.1054,-5.0949,-5.0933,-5.0917,-5.0932,-5.1018,-5.1092,-5.1128,-5.1149,-5.1125,-5.1133,-5.1035,-5.0781,-5.0488,-5.0273,-4.9805,-4.8984,-4.8281,-4.7851,-4.7305,-4.6816,-4.6641,-4.6562,-4.6523,-4.6484,-4.6426,-4.6406,-4.6445,-4.6562,-4.6641,-4.6719,-4.6777,-4.6738,-4.6973,-4.7441,-4.7598,-4.7676,-4.7969,-4.8223,-4.8359,-4.832,-4.8516,-4.8652,-4.8574,-4.8516,-4.8516,-4.8535,-4.8418,-4.8359,-4.8242,-4.7793,-4.7285,-4.6719,-4.6855,-4.7441,-4.7656,-4.7558,-4.7732,-4.7567,-4.7018,-4.658,-4.5997,-4.5848,-4.5759,-4.5712,-4.5646,-4.5409,-4.5175,-4.4861,-4.4889,-4.4306,-4.4182,-4.4201,-4.4528,-4.4951,-4.5306,-4.5518,-4.5577,-4.5522,-4.5438,-4.5312,-4.5041,-4.4782,-4.436,-4.3921,-4.3734,-4.3651,-5.5684,-5.5684,-5.5684,-5.5684,-5.5684,-5.5684,-5.5684,-5.5684,-5.5684,-5.5684,-5.5684,-5.5724,-5.5747,-5.5757,-5.5767,-5.5808,-5.5827,-5.5808,-5.5827,-5.5702,-5.5619,-5.5257,-5.4805,-5.4232,-5.3471,-5.2685,-5.2076,-5.1571,-5.1022,-5.0858,-5.0813,-5.0767,-5.0801,-5.0841,-5.0905,-5.0959,-5.1142,-5.1265,-5.1351,-5.1366,-5.1369,-5.1076,-5.0942,-5.0536,-4.9799,-4.9234,-4.8983,-4.8398,-4.8027,-4.8008,-4.8086,-4.8125,-4.8144,-4.8144,-4.8144,-4.8164,-4.8183,-4.8164,-4.8144,-4.8125,-4.8027,-4.8105,-4.8808,-4.8457,-4.834,-4.8457,-4.9043,-4.9219,-4.9277,-4.9355,-4.9375,-4.9336,-4.9336,-4.9336,-4.9355,-4.9316,-4.9238,-4.8984,-4.8555,-4.8125,-4.7558,-4.7676,-4.8242,-4.8125,-4.8086,-4.8379,-4.8299,-4.7724,-4.7051,-4.6462,-4.5963,-4.5871,-4.5783,-4.5725,-4.5677,-4.5484,-4.4993,-4.4548,-4.3907,-4.3566,-4.3989,-4.4355,-4.4759,-4.5152,-4.5498,-4.5594,-4.5586,-4.5504,-4.541,-4.5282,-4.5038,-4.4585,-4.4202,-4.3999,-4.4005,-5.5415,-5.5684,-5.5684,-5.5684,-5.5684,-5.5684,-5.5684,-5.5684,-5.5684,-5.5684,-5.5684,-5.5695,-5.5684,-5.5695,-5.5695,-5.5705,-5.5705,-5.5726,-5.5726,-5.5766,-5.5797,-5.5594,-5.5277,-5.48,-5.3947,-5.3081,-5.2292,-5.1719,-5.1045,-5.0756,-5.0693,-5.0702,-5.0683,-5.0721,-5.0782,-5.0848,-5.0965,-5.1116,-5.121,-5.1275,-5.1307,-5.131,-5.1302,-5.1164,-5.0477,-5.022,-5.0092,-4.9393,-4.9023,-4.8906,-4.8887,-4.8887,-4.8867,-4.8848,-4.8848,-4.8769,-4.875,-4.8711,-4.8691,-4.875,-4.8848,-4.9121,-4.9726,-4.9551,-4.9473,-4.9609,-4.9922,-5.0137,-5.0039,-4.998,-4.9941,-4.9922,-4.9941,-4.9961,-4.9961,-4.9961,-4.9805,-4.9629,-4.9258,-4.8867,-4.873,-4.8769,-4.8769,-4.8613,-4.8789,-4.9394,-4.9375,-4.8729,-4.7877,-4.6955,-4.6344,-4.5977,-4.5905,-4.5826,-4.579,-4.5664,-4.5034,-4.4272,-4.3261,-4.314,-4.3671,-4.4066,-4.4393,-4.496,-4.5556,-4.5594,-4.5594,-4.5577,-4.5495,-4.5381,-4.5272,-4.4985,-4.4599,-4.4289,-4.4414,-5.4934,-5.5588,-5.5665,-5.5684,-5.5684,-5.5684,-5.5684,-5.5684,-5.5684,-5.5684,-5.5684,-5.5684,-5.5684,-5.5684,-5.5684,-5.5684,-5.5684,-5.5684,-5.5684,-5.5684,-5.5756,-5.5682,-5.5528,-5.5128,-5.4291,-5.3472,-5.2682,-5.194,-5.1059,-5.072,-5.0683,-5.0683,-5.0683,-5.0693,-5.073,-5.0754,-5.0855,-5.0905,-5.1024,-5.1086,-5.1118,-5.1108,-5.1103,-5.1059,-5.0621,-5.0191,-5.0077,-4.9643,-4.9101,-4.9121,-4.916,-4.9258,-4.9316,-4.9336,-4.9316,-4.9316,-4.9473,-4.9492,-4.9531,-4.9551,-4.9414,-4.957,-4.9805,-5.0156,-5.0371,-5.0508,-5.0742,-5.082,-5.0723,-5.0723,-5.0703,-5.0703,-5.0703,-5.0723,-5.0723,-5.0723,-5.0644,-5.043,-5.0137,-4.9726,-4.9414,-4.9512,-4.9883,-4.9785,-4.9668,-5.043,-5.0019,-4.9277,-4.8789,-4.7695,-4.7162,-4.656,-4.6411,-4.6367,-4.6124,-4.585,-4.5028,-4.4097,-4.3127,-4.3022,-4.3772,-4.3948,-4.397,-4.4778,-4.5594,-4.5594,-4.5586,-4.5577,-4.5568,-4.5522,-4.5419,-4.5312,-4.5049,-4.4814,-4.5097,-5.4607,-5.4857,-5.5453,-5.5684,-5.5684,-5.5684,-5.5665,-5.5684,-5.5684,-5.5626,-5.5684,-5.5665,-5.5684,-5.5684,-5.5684,-5.5684,-5.5684,-5.5684,-5.5684,-5.5684,-5.5735,-5.5737,-5.5747,-5.5441,-5.4593,-5.362,-5.2839,-5.2232,-5.1289,-5.0885,-5.077,-5.077,-5.0866,-5.0952,-5.0827,-5.0855,-5.0854,-5.0804,-5.0816,-5.092,-5.0992,-5.1037,-5.1042,-5.1072,-5.081,-5.0825,-5.0809,-5.0844,-5.0743,-5.082,-5.0801,-5.082,-5.082,-5.0781,-5.0781,-5.0781,-5.0605,-5.0547,-5.0527,-5.0508,-5.0488,-5.0625,-5.0898,-5.1016,-5.1172,-5.1328,-5.1387,-5.1387,-5.1387,-5.1387,-5.1387,-5.1387,-5.1387,-5.1387,-5.1387,-5.1387,-5.1387,-5.1172,-5.0918,-5.0586,-5.0176,-5.0351,-5.0762,-5.0859,-5.082,-5.0351,-4.9551,-4.9043,-4.9258,-4.8691,-4.8457,-4.7897,-4.7326,-4.7112,-4.6742,-4.6143,-4.538,-4.4608,-4.3749,-4.3755,-4.394,-4.4188,-4.4451,-4.5037,-4.5594,-4.5594,-4.5594,-4.5594,-4.5586,-4.5712,-4.5781,-4.5784,-4.5888,-4.5738,-4.6127,-5.3568,-5.3953,-5.4395,-5.4587,-5.4587,-5.4587,-5.4587,-5.4587,-5.4587,-5.4587,-5.4761,-5.5299,-5.5684,-5.5684,-5.5684,-5.5684,-5.5684,-5.5684,-5.5684,-5.5684,-5.5684,-5.5695,-5.5684,-5.5665,-5.4935,-5.3991,-5.3337,-5.2636,-5.1779,-5.1837,-5.1895,-5.1741,-5.1722,-5.1568,-5.1356,-5.1202,-5.101,-5.0731,-5.0721,-5.0767,-5.0882,-5.0882,-5.0906,-5.0956,-5.103,-5.1111,-5.1152,-5.123,-5.1268,-5.1303,-5.1246,-5.1285,-5.125,-5.123,-5.1308,-5.1308,-5.1289,-5.1387,-5.1387,-5.1387,-5.1387,-5.1387,-5.1387,-5.1269,-5.1289,-5.1387,-5.1387,-5.1387,-5.1387,-5.1387,-5.1387,-5.1387,-5.1387,-5.1387,-5.1387,-5.1387,-5.1387,-5.1308,-5.1191,-5.1074,-5.084,-5.0879,-5.1152,-5.1152,-5.1094,-5.0957,-5.0019,-4.9805,-4.9844,-4.959,-4.9414,-4.9141,-4.8476,-4.7793,-4.7281,-4.6621,-4.5862,-4.5089,-4.4362,-4.4146,-4.4137,-4.4581,-4.5009,-4.5391,-4.5603,-4.5594,-4.5594,-4.5671,-4.6009,-4.6278,-4.6318,-4.632,-4.6474,-4.6751,-4.7256,-5.2462,-5.3145,-5.3222,-5.3222,-5.3203,-5.3222,-5.326,-5.328,-5.3241,-5.3356,-5.3741,-5.4972,-5.5472,-5.5549,-5.5684,-5.5684,-5.5684,-5.5684,-5.5684,-5.5684,-5.5684,-5.5684,-5.5684,-5.5626,-5.503,-5.4337,-5.3606,-5.3318,-5.2895,-5.2876,-5.2876,-5.3145,-5.3049,-5.2818,-5.225,-5.1846,-5.1568,-5.1087,-5.0894,-5.0721,-5.0702,-5.0693,-5.0739,-5.078,-5.0851,-5.093,-5.0992,-5.1045,-5.1118,-5.1207,-5.1308,-5.1367,-5.1381,-5.1387,-5.1387,-5.1387,-5.1387,-5.1387,-5.1387,-5.1387,-5.1387,-5.1387,-5.1387,-5.1387,-5.1387,-5.1387,-5.1387,-5.1387,-5.1387,-5.1387,-5.1387,-5.1387,-5.1387,-5.1387,-5.1387,-5.1387,-5.1387,-5.1387,-5.1387,-5.1387,-5.1387,-5.1367,-5.1367,-5.1367,-5.1308,-5.1211,-5.1094,-5.1074,-5.0879,-5.0371,-5.0,-4.9805,-4.9394,-4.8691,-4.8125,-4.7182,-4.6454,-4.5765,-4.5094,-4.4615,-4.438,-4.482,-4.52,-4.5456,-4.561,-4.5631,-4.5748,-4.5855,-4.6259,-4.6797,-4.7,-4.7116,-4.7415,-4.777,-4.8395,-5.2414,-5.3203,-5.3203,-5.3164,-5.3164,-5.3164,-5.3203,-5.3183,-5.3164,-5.3549,-5.4049,-5.4376,-5.4722,-5.4761,-5.5453,-5.5684,-5.5684,-5.5684,-5.5684,-5.5684,-5.5684,-5.5684,-5.5684,-5.5665,-5.5184,-5.4568,-5.3895,-5.3376,-5.3664,-5.3491,-5.326,-5.3376,-5.3337,-5.3164,-5.2972,-5.2529,-5.2019,-5.1645,-5.1202,-5.0991,-5.0885,-5.0837,-5.0702,-5.0738,-5.0797,-5.0863,-5.0913,-5.0997,-5.1049,-5.1141,-5.1234,-5.1305,-5.1355,-5.137,-5.1376,-5.1362,-5.1363,-5.1386,-5.1387,-5.1387,-5.1387,-5.1387,-5.1387,-5.1387,-5.1387,-5.1387,-5.1387,-5.1387,-5.1387,-5.1387,-5.1387,-5.1387,-5.1387,-5.1387,-5.1387,-5.1387,-5.1387,-5.1387,-5.1387,-5.1387,-5.1387,-5.1387,-5.1387,-5.1387,-5.1387,-5.1191,-5.084,-5.0859,-5.1172,-5.0879,-5.0566,-5.0391,-5.0156,-5.0078,-4.9665,-4.8078,-4.7174,-4.6468,-4.5656,-4.4849,-4.4583,-4.5073,-4.5422,-4.5611,-4.5671,-4.5684,-4.5821,-4.6163,-4.6701,-4.724,-4.7663,-4.7962,-4.8317,-4.8702,-4.924]},{"header":{"parameterUnit":"m.s-1","parameterCategory":1,"la1":31.0,"la2":29.5877,"lo1":-88.7671,"lo2":-86.6584,"dy":0.0162,"dx":0.0185,"nx":115,"ny":88,"refTime":"2026-04-13T00:00:00:Z","depth":0,"parameterNumber":3,"parameterNumberName":"V-component_of_WINDS"},"data":[0.0,0.0,0.0,0.0,0.0,0.0,0.0,0.0,0.0,0.0,0.0,0.0,0.0,0.0,0.0,0.0,0.0,0.0,0.0,0.0,0.0,0.0,0.0,0.0,0.0,0.0,0.0,0.0,0.0,0.0,0.0,0.0,0.0,0.0,0.0,0.0,0.0,0.0,0.0,0.0,0.0,0.0,0.0,0.0,0.0,0.0,0.0,0.0,0.0,0.0,0.0,0.0,0.0,0.0,0.0,0.0,0.0,0.0,0.0,0.0,0.0,0.0,0.0,0.0,0.0,0.0,0.0,0.0,0.0,0.0,0.0,0.0,0.0,0.0,0.0,0.0,0.0,0.0,0.0,0.0,0.0,0.0,0.0,0.0,0.0,0.0,0.0,0.0,0.0,0.0,0.0,0.0,0.0,0.0,0.0,0.0,0.0,0.0,0.0,0.0,0.0,0.0,0.0,0.0,0.0,0.0,0.0,0.0,0.0,0.0,0.0,0.0,0.0,0.0,0.0,0.0,0.0,0.0,0.0,0.0,0.0,0.0,0.0,0.0,0.0,0.0,0.0,0.0,0.0,0.0,0.0,0.0,0.0,0.0,0.0,0.0,0.0,0.0,0.0,0.0,0.0,0.0,0.0,0.0,0.0,0.0,0.0,0.0,0.0,0.0,0.0,0.0,0.0,0.0,0.0,0.0,0.0,0.0,0.0,0.0,0.0,0.0,0.0,0.0,0.0,0.0,0.0,0.0,0.0,0.0,0.0,0.0,0.0,0.0,0.0,0.0,0.0,0.0,0.0,0.0,0.0,0.0,0.0,0.0,0.0,0.0,0.0,0.0,0.0,0.0,0.0,0.0,0.0,0.0,0.0,0.0,0.0,0.0,0.0,0.0,0.0,0.0,0.0,0.0,0.0,0.0,0.0,0.0,0.0,0.0,0.0,0.0,0.0,0.0,0.0,0.0,0.0,0.0,0.0,0.0,0.0,0.0,0.0,0.0,0.0,0.0,0.0,0.0,0.0,0.0,0.0,0.0,0.0,0.0,0.0,0.0,0.0,0.0,0.0,0.0,0.0,0.0,0.0,0.0,0.0,0.0,0.0,0.0,0.0,0.0,0.0,0.0,0.0,0.0,0.0,0.0,0.0,0.0,0.0,0.0,0.0,0.0,0.0,0.0,0.0,0.0,0.0,0.0,0.0,0.0,0.0,0.0,0.0,0.0,0.0,0.0,0.0,0.0,0.0,0.0,0.0,0.0,0.0,0.0,0.0,0.0,0.0,0.0,0.0,0.0,0.0,0.0,0.0,0.0,0.0,0.0,0.0,0.0,0.0,0.0,0.0,0.0,0.0,0.0,0.0,0.0,0.0,0.0,0.0,0.0,0.0,0.0,0.0,0.0,0.0,0.0,0.0,0.0,0.0,0.0,0.0,0.0,0.0,0.0,0.0,0.0,0.0,0.0,0.0,0.0,0.0,0.0,0.0,0.0,0.0,0.0,0.0,0.0,0.0,0.0,0.0,0.0,0.0,0.0,0.0,0.0,0.0,0.0,0.0,0.0,0.0,0.0,0.0,0.0,0.0,0.0,0.0,0.0,0.0,0.0,0.0,0.0,0.0,0.0,0.0,0.0,0.0,0.0,0.0,0.0,0.0,0.0,0.0,0.0,0.0,0.0,0.0,0.0,0.0,0.0,0.0,0.0,0.0,0.0,0.0,0.0,0.0,0.0,0.0,0.0,0.0,0.0,0.0,0.0,0.0,0.0,0.0,0.0,0.0,0.0,0.0,0.0,0.0,0.0,0.0,0.0,0.0,0.0,0.0,0.0,0.0,0.0,0.0,0.0,0.0,0.0,0.0,0.0,0.0,0.0,0.0,0.0,0.0,0.0,0.0,0.0,0.0,0.0,0.0,0.0,0.0,0.0,0.0,0.0,0.0,0.0,0.0,0.0,0.0,0.0,0.0,0.0,0.0,0.0,0.0,0.0,0.0,0.0,0.0,0.0,0.0,0.0,0.0,0.0,0.0,0.0,0.0,0.0,0.0,0.0,0.0,0.0,0.0,0.0,0.0,0.0,0.0,0.0,0.0,0.0,0.0,0.0,0.0,0.0,0.0,0.0,0.0,0.0,0.0,0.0,0.0,0.0,0.0,0.0,0.0,0.0,0.0,0.0,0.0,0.0,0.0,0.0,0.0,0.0,0.0,0.0,0.0,0.0,0.0,0.0,0.0,0.0,0.0,0.0,0.0,0.0,0.0,0.0,0.0,0.0,0.0,0.0,0.0,0.0,0.0,0.0,0.0,0.0,0.0,0.0,0.0,0.0,0.0,0.0,0.0,0.0,0.0,0.0,0.0,0.0,0.0,0.0,0.0,0.0,0.0,0.0,0.0,0.0,0.0,0.0,0.0,0.0,0.0,0.0,0.0,0.0,0.0,0.0,0.0,0.0,0.0,0.0,0.0,0.0,0.0,0.0,0.0,0.0,0.0,0.0,0.0,0.0,0.0,0.0,0.0,0.0,0.0,0.0,0.0,0.0,0.0,0.0,0.0,0.0,0.0,0.0,0.0,0.0,0.0,0.0,0.0,0.0,0.0,0.0,0.0,0.0,0.0,0.0,0.0,0.0,0.0,0.0,0.0,0.0,0.0,0.0,0.0,0.0,0.0,0.0,0.0,0.0,0.0,0.0,0.0,0.0,0.0,0.0,0.0,0.0,0.0,0.0,0.0,0.0,0.0,0.0,0.0,0.0,0.0,0.0,0.0,0.0,0.0,0.0,0.0,0.0,0.0,0.0,0.0,0.0,0.0,0.0,0.0,0.0,0.0,0.0,0.0,0.0,0.0,0.0,0.0,0.0,0.0,0.0,0.0,0.0,0.0,0.0,0.0,0.0,0.0,0.0,0.0,0.0,0.0,0.0,0.0,0.0,0.0,0.0,0.0,0.0,0.0,0.0,0.0,0.0,0.0,0.0,0.0,0.0,0.0,0.0,0.0,0.0,0.0,0.0,0.0,0.0,0.0,0.0,0.0,0.0,0.0,0.0,0.0,0.0,0.0,0.0,0.0,0.0,0.0,0.0,0.0,0.0,0.0,0.0,0.0,0.0,0.0,0.0,0.0,0.0,0.0,0.0,0.0,0.0,0.0,0.0,0.0,0.0,0.0,0.0,0.0,0.0,0.0,0.0,0.0,0.0,0.0,0.0,0.0,0.0,0.0,0.0,0.0,0.0,0.0,0.0,0.0,0.0,0.0,0.0,0.0,0.0,0.0,0.0,0.0,0.0,0.0,0.0,0.0,0.0,0.0,0.0,0.0,0.0,0.0,0.0,0.0,0.0,0.0,0.0,0.0,0.0,0.0,0.0,0.0,0.0,0.0,0.0,0.0,0.0,0.0,0.0,0.0,0.0,0.0,0.0,0.0,0.0,0.0,0.0,0.0,0.0,0.0,0.0,0.0,0.0,0.0,0.0,0.0,0.0,0.0,0.0,0.0,0.0,0.0,0.0,0.0,0.0,0.0,0.0,0.0,0.0,0.0,0.0,0.0,0.0,0.0,0.0,0.0,0.0,0.0,0.0,0.0,0.0,0.0,0.0,0.0,0.0,0.0,0.0,0.0,0.0,0.0,0.0,0.0,0.0,0.0,0.0,0.0,0.0,0.0,0.0,0.0,0.0,0.0,0.0,0.0,0.0,0.0,0.0,0.0,0.0,0.0,0.0,0.0,0.0,0.0,0.0,0.0,0.0,0.0,0.0,0.0,0.0,0.0,0.0,0.0,0.0,0.0,0.0,0.0,0.0,0.0,0.0,0.0,0.0,0.0,0.0,0.0,0.0,0.0,0.0,0.0,0.0,0.0,0.0,0.0,0.0,0.0,0.0,0.0,0.0,0.0,0.0,0.0,0.0,0.0,0.0,0.0,0.0,0.0,0.0,0.0,0.0,0.0,0.0,0.0,0.0,0.0,0.0,0.0,0.0,0.0,0.0,0.0,0.0,0.0,0.0,0.0,0.0,0.0,0.0,0.0,0.0,0.0,0.0,0.0,0.0,0.0,0.0,0.0,0.0,0.0,0.0,0.0,0.0,0.0,0.0,0.0,0.0,0.0,0.0,0.0,0.0,0.0,0.0,0.0,0.0,0.0,0.0,0.0,0.0,0.0,0.0,0.0,0.0,0.0,0.0,0.0,0.0,0.0,0.0,0.0,0.0,0.0,0.0,0.0,0.0,0.0,0.0,0.0,0.0,0.0,0.0,0.0,0.0,0.0,0.0,0.0,0.0,0.0,0.0,0.0,0.0,-0.2679,0.0,0.0,0.0,0.0,0.0,0.0,0.0,0.0,0.0,0.0,0.0,0.0,0.0,0.0,0.0,0.0,0.0,0.0,0.0,0.0,0.0,0.0,0.0,0.0,0.0,0.0,0.0,0.0,0.0,0.0,0.0,0.0,0.0,0.0,0.0,0.0,0.0,0.0,0.0,0.0,0.0,0.0,0.0,0.0,0.0,0.0,0.0,0.0,0.0,0.0,0.0,0.0,0.0,0.0,0.0,0.0,0.0,0.0,0.0,0.0,0.0,0.0,0.0,0.0,0.0,0.0,0.0,0.0,0.0,0.0,0.0,0.0,0.0,0.0,0.0,0.0,0.0,0.0,0.0,0.0,0.0,0.0,0.0,0.0,0.0,0.0,0.0,0.0,0.0,0.0,0.0,0.0,0.0,0.0,0.0,0.0,0.0,0.0,0.0,0.0,0.0,0.0,0.0,0.0,0.0,0.0,0.0,0.0,0.0,0.0,-0.2679,-0.2679,-0.2679,-0.2679,-0.2679,0.0,0.0,0.0,0.0,0.0,0.0,0.0,0.0,0.0,0.0,0.0,0.0,0.0,0.0,0.0,0.0,0.0,0.0,0.0,0.0,0.0,0.0,0.0,0.0,0.0,0.0,0.0,0.0,0.0,0.0,0.0,0.0,0.0,0.0,0.0,0.0,0.0,0.0,0.0,0.0,0.0,0.0,0.0,0.0,0.0,0.0,0.0,0.0,0.0,0.0,0.0,0.0,0.0,0.0,0.0,0.0,0.0,0.0,0.0,0.0,0.0,0.0,0.0,0.0,0.0,0.0,0.0,0.0,0.0,0.0,0.0,0.0,0.0,0.0,0.0,0.0,0.0,0.0,0.0,0.0,0.0,0.0,0.0,0.0,0.0,0.0,0.0,0.0,0.0,0.0,0.0,0.0,0.0,0.0,0.0,0.0,0.0,0.0,0.0,0.0,0.0,0.0,0.0,0.0,0.0,0.0,0.0,0.0,0.0,0.0,0.0,0.0,-0.2751,-0.2734,-0.273,0.0,0.0,0.0,0.0,0.0,0.0,0.0,0.0,0.0,0.0,0.0,0.0,0.0,0.0,0.0,0.0,0.0,0.0,0.0,0.0,0.0,0.0,0.0,0.0,0.0,0.0,0.0,0.0,0.0,0.0,0.0,0.0,0.0,0.0,0.0,0.0,0.0,0.0,0.0,0.0,0.0,0.0,0.0,0.0,0.0,0.0,0.0,0.0,0.0,0.0,0.0,0.0,0.0,0.0,0.0,0.0,0.0,0.0,0.0,0.0,0.0,0.0,0.0,0.0,0.0,0.0,0.0,0.0,0.0,0.0,0.0,0.0,0.0,0.0,0.0,0.0,0.0,0.0,0.0,0.0,0.0,0.0,0.0,0.0,0.0,0.0,0.0,0.0,0.0,0.0,0.0,0.0,0.0,0.0,0.0,0.0,0.0,0.0,0.0,0.0,0.0,0.0,0.0,0.0,0.0,0.0,0.0,0.0,0.0,0.0,-0.2764,-0.2883,-0.2872,0.0,-0.2883,0.0,0.0,0.0,0.0,0.0,0.0,0.0,0.0,0.0,0.0,0.0,0.0,0.0,0.0,0.0,0.0,0.0,0.0,0.0,0.0,0.0,0.0,0.0,0.0,0.0,0.0,0.0,0.0,0.0,0.0,0.0,0.0,0.0,0.0,0.0,0.0,0.0,0.0,0.0,0.0,0.0,0.0,0.0,0.0,0.0,0.0,0.0,0.0,0.0,0.0,0.0,0.0,0.0,0.0,0.0,0.0,0.0,0.0,0.0,0.0,0.0,0.0,0.0,0.0,0.0,0.0,0.0,0.0,0.0,0.0,0.0,0.0,0.0,0.0,0.0,0.0,0.0,0.0,0.0,0.0,0.0,0.0,0.0,0.0,0.0,0.0,0.0,0.0,0.0,0.0,0.0,0.0,0.0,0.0,0.0,0.0,0.0,0.0,0.0,0.0,0.0,0.0,0.0,0.0,0.0,0.0,0.0,0.0,0.0,0.0,0.0,-0.3013,-0.3013,-0.2995,0.0,0.0,0.0,0.0,0.0,0.0,0.0,0.0,0.0,0.0,0.0,0.0,0.0,0.0,0.0,0.0,0.0,0.0,0.0,0.0,0.0,0.0,0.0,0.0,0.0,0.0,0.0,0.0,0.0,0.0,0.0,0.0,0.0,0.0,0.0,0.0,0.0,0.0,0.0,0.0,0.0,0.0,0.0,0.0,0.0,0.0,0.0,0.0,0.0,0.0,0.0,0.0,0.0,0.0,0.0,0.0,0.0,0.0,0.0,0.0,0.0,0.0,0.0,0.0,0.0,0.0,0.0,0.0,0.0,0.0,0.0,0.0,0.0,0.0,0.0,0.0,0.0,0.0,0.0,0.0,0.0,0.0,0.0,0.0,0.0,0.0,0.0,0.0,0.0,0.0,0.0,0.0,0.0,0.0,0.0,0.0,0.0,0.0,0.0,0.0,0.0,0.0,0.0,0.0,0.0,0.0,0.0,0.0,0.0,0.0,-0.2788,0.0,-0.3034,-0.3081,-0.3037,-0.2913,0.0,0.0,0.0,0.0,0.0,0.0,0.0,0.0,0.0,0.0,0.0,0.0,0.0,0.0,0.0,0.0,0.0,0.0,0.0,0.0,0.0,0.0,0.0,0.0,0.0,0.0,0.0,0.0,0.0,0.0,0.0,0.0,0.0,0.0,0.0,0.0,0.0,0.0,0.0,0.0,0.0,0.0,0.0,0.0,0.0,0.0,0.0,0.0,0.0,0.0,0.0,0.0,0.0,0.0,0.0,0.0,0.0,0.0,0.0,0.0,0.0,0.0,0.0,0.0,0.0,0.0,0.0,0.0,0.0,0.0,0.0,0.0,0.0,0.0,0.0,0.0,0.0,0.0,0.0,0.0,0.0,0.0,0.0,0.0,0.0,0.0,0.0,0.0,0.0,0.0,0.0,0.0,0.0,0.0,0.0,0.0,0.0,0.0,0.0,0.0,0.0,0.0,0.0,0.0,0.0,0.0,0.0,0.0,0.0,-0.271,-0.2785,-0.292,-0.303,-0.3034,0.0,0.0,0.0,0.0,0.0,0.0,0.0,0.0,0.0,0.0,0.0,0.0,0.0,0.0,0.0,0.0,0.0,0.0,0.0,0.0,0.0,0.0,0.0,0.0,0.0,0.0,0.0,0.0,0.0,0.0,0.0,0.0,0.0,0.0,0.0,0.0,0.0,0.0,0.0,0.0,0.0,0.0,0.0,0.0,0.0,0.0,0.0,0.0,0.0,0.0,0.0,0.0,0.0,0.0,0.0,0.0,0.0,0.0,0.0,0.0,0.0,0.0,0.0,0.0,0.0,0.0,0.0,0.0,0.0,0.0,0.0,0.0,0.0,0.0,0.0,0.0,0.0,0.0,0.0,0.0,0.0,0.0,0.0,0.0,0.0,0.0,0.0,0.0,0.0,0.0,0.0,0.0,0.0,0.0,0.0,0.0,0.0,0.0,0.0,0.0,0.0,0.0,0.0,0.0,0.0,0.0,0.0,0.0,0.0,-0.2706,-0.2866,-0.2969,-0.3023,-0.299,-0.2899,0.0,0.0,0.0,0.0,0.0,0.0,0.0,0.0,0.0,0.0,0.0,0.0,0.0,0.0,0.0,0.0,0.0,0.0,0.0,0.0,0.0,0.0,0.0,0.0,0.0,0.0,0.0,0.0,0.0,0.0,0.0,0.0,0.0,0.0,0.0,0.0,0.0,0.0,0.0,0.0,0.0,0.0,0.0,0.0,0.0,0.0,0.0,0.0,0.0,0.0,0.0,0.0,0.0,0.0,0.0,0.0,0.0,0.0,0.0,0.0,0.0,0.0,0.0,0.0,0.0,0.0,0.0,0.0,0.0,0.0,0.0,0.0,0.0,0.0,0.0,0.0,0.0,0.0,0.0,0.0,0.0,0.0,0.0,0.0,0.0,0.0,0.0,0.0,0.0,0.0,0.0,0.0,0.0,0.0,0.0,0.0,0.0,0.0,0.0,0.0,0.0,0.0,0.0,0.0,0.0,0.0,0.0,0.0,0.0,-0.2832,0.0,-0.3131,0.0,-0.2986,-0.2883,0.0,0.0,0.0,0.0,0.0,0.0,0.0,0.0,0.0,0.0,0.0,0.0,0.0,0.0,0.0,0.0,0.0,0.0,0.0,0.0,0.0,0.0,0.0,0.0,0.0,0.0,0.0,0.0,0.0,0.0,0.0,0.0,0.0,0.0,0.0,0.0,0.0,0.0,0.0,0.0,0.0,0.0,0.0,0.0,0.0,0.0,0.0,0.0,0.0,0.0,0.0,0.0,0.0,0.0,0.0,0.0,0.0,0.0,0.0,0.0,0.0,0.0,0.0,0.0,0.0,0.0,0.0,0.0,0.0,0.0,0.0,0.0,0.0,0.0,0.0,0.0,0.0,0.0,0.0,0.0,0.0,0.0,0.0,0.0,0.0,0.0,0.0,0.0,0.0,0.0,0.0,0.0,0.0,0.0,0.0,0.0,0.0,0.0,0.0,0.0,0.0,0.0,0.0,0.0,0.0,0.0,0.0,0.0,-0.3104,-0.3108,-0.329,-0.3242,-0.2916,-0.3027,-0.2974,0.0,0.0,0.0,0.0,0.0,0.0,0.0,0.0,0.0,0.0,0.0,0.0,0.0,0.0,0.0,0.0,0.0,0.0,0.0,0.0,0.0,0.0,0.0,0.0,0.0,0.0,0.0,0.0,0.0,0.0,0.0,0.0,0.0,0.0,0.0,0.0,0.0,0.0,0.0,0.0,0.0,0.0,0.0,0.0,0.0,0.0,0.0,0.0,0.0,0.0,0.0,0.0,0.0,0.0,0.0,0.0,0.0,0.0,0.0,0.0,0.0,0.0,0.0,0.0,0.0,0.0,0.0,0.0,0.0,0.0,0.0,0.0,0.0,0.0,0.0,0.0,0.0,0.0,0.0,0.0,0.0,0.0,0.0,0.0,0.0,0.0,0.0,0.0,0.0,0.0,0.0,0.0,0.0,0.0,0.0,0.0,0.0,0.0,0.0,0.0,0.0,0.0,0.0,0.0,0.0,0.0,0.0,0.0,0.0,-0.3242,-0.3429,-0.3436,-0.3199,-0.304,-0.2883,0.0,0.0,0.0,0.0,0.0,0.0,0.0,0.0,0.0,0.0,0.0,0.0,0.0,0.0,0.0,0.0,0.0,0.0,0.0,0.0,0.0,0.0,0.0,0.0,0.0,0.0,0.0,0.0,0.0,0.0,0.0,0.0,0.0,0.0,0.0,0.0,0.0,0.0,0.0,0.0,0.0,0.0,0.0,0.0,0.0,0.0,0.0,0.0,0.0,0.0,0.0,0.0,0.0,0.0,0.0,0.0,0.0,0.0,0.0,0.0,0.0,0.0,0.0,0.0,0.0,0.0,0.0,0.0,0.0,0.0,0.0,0.0,0.0,0.0,0.0,0.0,0.0,0.0,0.0,0.0,0.0,0.0,0.0,0.0,0.0,0.0,0.0,0.0,0.0,0.0,0.0,0.0,0.0,0.0,0.0,0.0,0.0,0.0,0.0,0.0,0.0,0.0,0.0,0.0,0.0,0.0,0.0,0.0,0.0,-0.3761,-0.3785,-0.3681,-0.3421,-0.3236,-0.3035,-0.2791,0.0,0.0,0.0,0.0,0.0,0.0,0.0,0.0,0.0,0.0,0.0,0.0,0.0,0.0,0.0,0.0,0.0,0.0,0.0,0.0,0.0,0.0,0.0,0.0,0.0,0.0,0.0,0.0,0.0,0.0,0.0,0.0,0.0,0.0,0.0,0.0,0.0,0.0,0.0,0.0,0.0,0.0,0.0,0.0,0.0,0.0,0.0,0.0,0.0,0.0,0.0,0.0,0.0,0.0,0.0,0.0,0.0,0.0,0.0,0.0,0.0,0.0,0.0,0.0,0.0,0.0,0.0,0.0,0.0,0.0,0.0,0.0,0.0,0.0,0.0,0.0,0.0,0.0,0.0,0.0,0.0,0.0,0.0,0.0,0.0,0.0,0.0,0.0,0.0,0.0,0.0,0.0,0.0,0.0,0.0,0.0,0.0,0.0,0.0,0.0,0.0,0.0,0.0,0.0,0.0,0.0,0.0,0.0,-0.4522,-0.4348,-0.4078,-0.3672,-0.3638,-0.3398,0.0,0.0,0.0,0.0,0.0,0.0,0.0,0.0,0.0,0.0,0.0,0.0,0.0,0.0,0.0,0.0,0.0,0.0,0.0,0.0,0.0,0.0,0.0,0.0,0.0,0.0,0.0,0.0,0.0,0.0,0.0,0.0,0.0,0.0,0.0,0.0,0.0,0.0,0.0,0.0,0.0,0.0,0.0,0.0,0.0,0.0,0.0,0.0,0.0,0.0,0.0,0.0,0.0,0.0,0.0,0.0,0.0,0.0,0.0,0.0,0.0,0.0,0.0,0.0,0.0,0.0,0.0,0.0,0.0,0.0,0.0,0.0,0.0,0.0,0.0,0.0,0.0,0.0,0.0,0.0,0.0,0.0,0.0,0.0,0.0,0.0,0.0,0.0,0.0,0.0,0.0,0.0,0.0,0.0,0.0,0.0,0.0,0.0,0.0,0.0,0.0,0.0,0.0,0.0,0.0,0.0,0.0,0.0,0.0,-0.4662,-0.5026,-0.4918,-0.4283,-0.4019,-0.3748,0.0,0.0,0.0,0.0,0.0,0.0,0.0,0.0,0.0,0.0,0.0,0.0,0.0,0.0,0.0,0.0,0.0,0.0,0.0,0.0,0.0,0.0,0.0,0.0,0.0,0.0,0.0,0.0,0.0,0.0,0.0,0.0,0.0,0.0,0.0,0.0,0.0,0.0,0.0,0.0,0.0,0.0,0.0,0.0,0.0,0.0,0.0,0.0,0.0,0.0,0.0,0.0,0.0,0.0,0.0,0.0,0.0,0.0,0.0,0.0,0.0,0.0,0.0,0.0,0.0,0.0,0.0,0.0,0.0,0.0,0.0,0.0,0.0,0.0,0.0,0.0,0.0,0.0,0.0,0.0,0.0,0.0,0.0,0.0,0.0,0.0,0.0,0.0,0.0,0.0,0.0,0.0,0.0,0.0,0.0,0.0,0.0,0.0,0.0,0.0,0.0,0.0,0.0,0.0,0.0,0.0,0.0,0.0,-0.4754,-0.5064,-0.5532,-0.5504,-0.4979,-0.4491,-0.4034,0.0,0.0,0.0,0.0,0.0,0.0,0.0,0.0,0.0,0.0,0.0,0.0,0.0,0.0,0.0,0.0,0.0,0.0,0.0,0.0,0.0,0.0,0.0,0.0,0.0,0.0,0.0,0.0,0.0,0.0,0.0,0.0,0.0,0.0,0.0,0.0,0.0,0.0,0.0,0.0,0.0,0.0,0.0,0.0,0.0,0.0,0.0,0.0,0.0,0.0,0.0,0.0,0.0,0.0,0.0,0.0,0.0,0.0,0.0,0.0,0.0,0.0,0.0,0.0,0.0,0.0,0.0,0.0,0.0,0.0,0.0,0.0,0.0,0.0,0.0,0.0,0.0,0.0,0.0,0.0,0.0,0.0,0.0,0.0,0.0,0.0,0.0,0.0,0.0,0.0,0.0,0.0,0.0,0.0,0.0,0.0,0.0,0.0,0.0,0.0,0.0,0.0,0.0,0.0,0.0,0.0,0.0,0.0,-0.5036,-0.5603,-0.5932,-0.5915,-0.563,-0.4938,-0.4269,0.0,0.0,0.0,0.0,0.0,0.0,0.0,0.0,0.0,0.0,0.0,0.0,0.0,0.0,0.0,0.0,0.0,0.0,0.0,0.0,0.0,0.0,0.0,0.0,0.0,0.0,0.0,0.0,0.0,0.0,0.0,0.0,0.0,0.0,0.0,0.0,0.0,0.0,0.0,0.0,0.0,0.0,0.0,0.0,0.0,0.0,0.0,0.0,0.0,0.0,0.0,0.0,0.0,0.0,0.0,0.0,0.0,0.0,0.0,0.0,0.0,0.0,0.0,0.0,0.0,0.0,0.0,0.0,0.0,0.0,0.0,0.0,0.0,0.0,0.0,0.0,0.0,0.0,0.0,0.0,0.0,0.0,0.0,0.0,0.0,0.0,0.0,0.0,0.0,0.0,0.0,0.0,0.0,0.0,0.0,0.0,0.0,0.0,0.0,0.0,0.0,0.0,0.0,0.0,0.0,0.0,0.0,0.0,-0.5393,-0.5755,-0.6281,-0.6359,-0.5909,-0.5213,-0.4599,0.0,0.0,0.0,0.0,0.0,0.0,0.0,0.0,0.0,0.0,0.0,0.0,0.0,0.0,0.0,0.0,0.0,0.0,0.0,0.0,0.0,0.0,0.0,0.0,0.0,0.0,0.0,0.0,0.0,0.0,0.0,0.0,0.0,0.0,0.0,0.0,0.0,0.0,0.0,0.0,0.0,0.0,0.0,0.0,0.0,0.0,0.0,0.0,-0.4079,0.0,0.0,0.0,0.0,0.0,0.0,0.0,0.0,0.0,0.0,0.0,0.0,0.0,0.0,0.0,0.0,0.0,0.0,0.0,0.0,0.0,0.0,0.0,0.0,0.0,0.0,0.0,0.0,0.0,0.0,0.0,0.0,0.0,0.0,0.0,0.0,0.0,0.0,0.0,0.0,0.0,0.0,0.0,0.0,0.0,0.0,0.0,0.0,0.0,0.0,0.0,0.0,0.0,0.0,0.0,0.0,0.0,0.0,0.0,-0.5716,-0.6112,-0.6569,-0.6624,-0.6237,-0.565,-0.5023,0.0,0.0,0.0,0.0,0.0,0.0,0.0,0.0,0.0,0.0,0.0,0.0,0.0,0.0,0.0,0.0,0.0,0.0,0.0,0.0,0.0,0.0,0.0,0.0,0.0,0.0,0.0,0.0,0.0,0.0,0.0,0.0,0.0,0.0,0.0,0.0,0.0,0.0,0.0,0.0,0.0,0.0,0.0,0.0,0.0,0.0,0.0,0.0,0.0,0.0,0.0,0.0,0.0,0.0,0.0,0.0,0.0,0.0,0.0,0.0,0.0,0.0,0.0,0.0,0.0,0.0,0.0,0.0,0.0,0.0,0.0,0.0,0.0,0.0,0.0,0.0,0.0,0.0,0.0,0.0,0.0,0.0,0.0,0.0,0.0,0.0,0.0,0.0,0.0,0.0,0.0,0.0,0.0,0.0,0.0,0.0,0.0,0.0,0.0,0.0,0.0,0.0,0.0,0.0,0.0,0.0,0.0,-0.531,-0.5922,-0.6458,-0.6793,-0.6771,-0.6552,-0.6071,-0.5423,-0.4593,0.0,0.0,0.0,0.0,0.0,0.0,0.0,0.0,0.0,0.0,0.0,0.0,0.0,0.0,0.0,0.0,0.0,0.0,0.0,0.0,0.0,0.0,0.0,0.0,0.0,0.0,0.0,0.0,0.0,0.0,0.0,0.0,0.0,0.0,0.0,0.0,0.0,0.0,-0.3317,-0.3839,0.0,0.0,0.0,0.0,0.0,0.0,0.0,0.0,-0.4234,0.0,0.0,0.0,0.0,0.0,0.0,0.0,0.0,0.0,0.0,0.0,0.0,0.0,0.0,0.0,0.0,0.0,0.0,0.0,0.0,0.0,0.0,0.0,0.0,0.0,0.0,0.0,0.0,0.0,0.0,0.0,0.0,0.0,0.0,0.0,0.0,0.0,0.0,0.0,0.0,0.0,0.0,0.0,0.0,0.0,0.0,0.0,0.0,0.0,0.0,0.0,0.0,0.0,0.0,0.0,0.0,-0.4836,-0.5545,-0.6125,-0.6468,-0.6846,-0.6963,-0.6668,-0.623,-0.5599,-0.487,0.0,0.0,0.0,0.0,0.0,0.0,0.0,0.0,0.0,0.0,0.0,0.0,0.0,0.0,0.0,0.0,0.0,0.0,0.0,0.0,0.0,0.0,0.0,0.0,0.0,0.0,0.0,0.0,0.0,0.0,0.0,0.0,0.0,0.0,0.0,0.0,0.0,0.0,0.0,-0.485,-0.5092,0.0,0.0,0.0,0.0,0.0,0.0,0.0,0.0,-0.4235,0.0,0.0,0.0,0.0,0.0,0.0,0.0,0.0,0.0,0.0,0.0,0.0,0.0,0.0,0.0,0.0,0.0,0.0,0.0,0.0,0.0,0.0,0.0,0.0,0.0,0.0,0.0,0.0,0.0,0.0,0.0,0.0,0.0,0.0,0.0,0.0,0.0,0.0,0.0,0.0,0.0,0.0,0.0,0.0,0.0,0.0,0.0,0.0,0.0,0.0,0.0,0.0,0.0,0.0,0.0,-0.4992,-0.5769,-0.6291,-0.6586,-0.6953,-0.6963,-0.659,-0.6146,-0.5561,0.0,0.0,0.0,0.0,0.0,0.0,0.0,0.0,0.0,0.0,0.0,0.0,0.0,0.0,0.0,0.0,0.0,0.0,0.0,0.0,0.0,0.0,0.0,0.0,0.0,0.0,0.0,0.0,0.0,0.0,0.0,0.0,0.0,0.0,0.0,0.0,0.0,0.0,0.0,0.0,-0.519,-0.5416,-0.5732,0.0,0.0,0.0,0.0,0.0,0.0,-0.4575,-0.4309,0.0,0.0,0.0,0.0,0.0,0.0,0.0,0.0,0.0,0.0,0.0,0.0,0.0,0.0,0.0,0.0,0.0,0.0,0.0,0.0,0.0,0.0,0.0,0.0,0.0,0.0,0.0,0.0,0.0,0.0,0.0,0.0,0.0,0.0,0.0,0.0,0.0,0.0,0.0,0.0,0.0,0.0,0.0,0.0,0.0,0.0,0.0,0.0,0.0,0.0,0.0,0.0,0.0,0.0,0.0,-0.5184,-0.5972,-0.6447,-0.6742,-0.696,-0.6926,-0.6481,-0.6034,-0.5508,0.0,0.0,0.0,0.0,0.0,0.0,0.0,0.0,0.0,0.0,0.0,0.0,0.0,0.0,0.0,0.0,0.0,0.0,0.0,0.0,0.0,0.0,0.0,0.0,0.0,0.0,0.0,0.0,0.0,0.0,0.0,0.0,0.0,0.0,0.0,0.0,0.0,0.0,0.0,0.0,0.0,-0.5658,-0.614,-0.5822,0.0,0.0,0.0,0.0,-0.508,-0.4842,0.0,0.0,0.0,0.0,0.0,0.0,0.0,0.0,0.0,0.0,0.0,0.0,0.0,0.0,0.0,0.0,0.0,0.0,0.0,0.0,0.0,0.0,0.0,0.0,0.0,0.0,0.0,0.0,0.0,0.0,0.0,0.0,0.0,0.0,0.0,0.0,0.0,0.0,0.0,0.0,0.0,0.0,0.0,0.0,0.0,0.0,0.0,0.0,0.0,0.0,0.0,0.0,0.0,0.0,0.0,0.0,-0.5521,-0.6177,-0.6637,-0.6849,-0.7014,-0.6929,-0.6521,-0.6034,-0.546,0.0,0.0,0.0,0.0,0.0,0.0,0.0,0.0,0.0,0.0,0.0,0.0,0.0,0.0,0.0,0.0,0.0,0.0,0.0,0.0,0.0,0.0,0.0,0.0,0.0,0.0,0.0,0.0,0.0,0.0,0.0,0.0,0.0,0.0,0.0,0.0,0.0,0.0,0.0,0.0,0.0,-0.6115,-0.6189,-0.6357,-0.6385,0.0,0.0,-0.6311,-0.6082,-0.5769,0.0,0.0,0.0,0.0,0.0,0.0,0.0,0.0,0.0,0.0,0.0,0.0,0.0,0.0,0.0,0.0,0.0,0.0,0.0,0.0,0.0,0.0,0.0,0.0,0.0,0.0,0.0,0.0,0.0,0.0,0.0,0.0,0.0,0.0,0.0,0.0,0.0,0.0,0.0,0.0,0.0,0.0,0.0,0.0,0.0,0.0,0.0,0.0,0.0,0.0,0.0,0.0,0.0,0.0,0.0,-0.4662,-0.5576,-0.6257,-0.6709,-0.6879,-0.7024,-0.6929,-0.6481,-0.5996,-0.5369,0.0,0.0,0.0,0.0,0.0,0.0,0.0,0.0,0.0,0.0,0.0,0.0,0.0,0.0,0.0,0.0,0.0,0.0,0.0,0.0,0.0,0.0,0.0,0.0,0.0,0.0,0.0,0.0,0.0,0.0,0.0,0.0,0.0,0.0,0.0,0.0,0.0,0.0,0.0,0.0,0.0,0.0,-0.662,-0.664,0.0,0.0,0.0,-0.6874,-0.6914,0.0,0.0,0.0,0.0,0.0,0.0,0.0,0.0,0.0,0.0,0.0,0.0,0.0,0.0,0.0,0.0,0.0,0.0,0.0,0.0,0.0,0.0,0.0,0.0,0.0,0.0,0.0,0.0,0.0,0.0,0.0,0.0,0.0,0.0,0.0,0.0,0.0,0.0,0.0,0.0,0.0,0.0,0.0,0.0,0.0,0.0,0.0,0.0,0.0,0.0,0.0,0.0,0.0,0.0,0.0,0.0,0.0,-0.5633,-0.6342,-0.6793,-0.6933,-0.7041,-0.6926,-0.6521,-0.5935,0.0,0.0,0.0,0.0,0.0,0.0,0.0,0.0,0.0,0.0,0.0,0.0,0.0,0.0,0.0,0.0,0.0,0.0,0.0,0.0,0.0,0.0,0.0,0.0,0.0,0.0,0.0,-0.0956,0.0,0.0,0.0,0.0,0.0,0.0,0.0,0.0,0.0,0.0,0.0,0.0,0.0,0.0,-0.6579,-0.704,-0.7014,-0.7081,0.0,0.0,-0.7415,-0.7555,-0.7169,-0.6613,0.0,0.0,0.0,0.0,0.0,0.0,0.0,0.0,0.0,0.0,0.0,0.0,0.0,0.0,0.0,0.0,0.0,0.0,0.0,0.0,0.0,0.0,0.0,0.0,0.0,0.0,0.0,0.0,0.0,0.0,0.0,0.0,0.0,0.0,0.0,0.0,0.0,0.0,0.0,0.0,0.0,0.0,0.0,0.0,0.0,0.0,0.0,0.0,0.0,0.0,0.0,0.0,0.0,0.0,0.0,-0.5766,-0.639,-0.6837,-0.7068,-0.7088,-0.6926,-0.6521,-0.6027,-0.544,0.0,0.0,0.0,0.0,0.0,0.0,0.0,0.0,0.0,0.0,0.0,0.0,0.0,0.0,0.0,0.0,0.0,0.0,0.0,0.0,0.0,0.0,0.0,0.0,0.0,0.0,0.0,0.0,0.0,0.0,0.0,0.0,0.0,0.0,0.0,0.0,0.0,0.0,0.0,0.0,0.0,-0.706,-0.7417,-0.7646,-0.7826,0.0,0.0,-0.8196,-0.7919,-0.7645,-0.7251,-0.6646,0.0,0.0,0.0,0.0,0.0,0.0,0.0,0.0,0.0,0.0,0.0,0.0,0.0,0.0,0.0,0.0,0.0,0.0,0.0,0.0,0.0,0.0,0.0,0.0,0.0,0.0,0.0,0.0,0.0,0.0,0.0,0.0,0.0,0.0,0.0,0.0,0.0,0.0,0.0,0.0,0.0,0.0,0.0,0.0,0.0,0.0,0.0,0.0,0.0,0.0,0.0,0.0,0.0,-0.4638,-0.5786,-0.6396,-0.6844,-0.7082,-0.7095,-0.6886,-0.6521,-0.6034,-0.545,0.0,0.0,0.0,0.0,0.0,0.0,0.0,0.0,0.0,0.0,0.0,0.0,0.0,0.0,0.0,0.0,0.0,0.0,0.0,0.0,0.0,0.0,0.0,0.0,0.0,0.0,0.0,0.0,-0.1167,-0.1236,-0.1458,0.0,0.0,0.0,0.0,0.0,0.0,0.0,0.0,0.0,0.0,-0.7173,-0.7659,-0.7832,0.0,0.0,-0.8322,-0.8362,-0.8216,-0.7806,-0.7283,-0.6687,-0.5876,0.0,0.0,0.0,0.0,0.0,0.0,0.0,0.0,0.0,0.0,0.0,0.0,0.0,0.0,0.0,0.0,0.0,0.0,0.0,0.0,0.0,0.0,0.0,0.0,0.0,0.0,0.0,0.0,0.0,0.0,0.0,0.0,0.0,0.0,0.0,0.0,0.0,0.0,0.0,0.0,0.0,0.0,0.0,0.0,0.0,0.0,0.0,0.0,0.0,0.0,0.0,0.0,-0.4653,-0.5789,-0.6393,-0.6844,-0.7088,-0.7055,-0.6862,-0.6586,-0.6061,-0.546,0.0,0.0,0.0,0.0,0.0,0.0,0.0,0.0,0.0,0.0,0.0,0.0,0.0,0.0,0.0,0.0,0.0,0.0,0.0,0.0,0.0,0.0,0.0,0.0,0.0,0.0,0.0,0.0,-0.1399,-0.1452,-0.1589,0.0,0.0,0.0,0.0,0.0,0.0,0.0,0.0,0.0,0.0,-0.7459,-0.7989,-0.8185,-0.8338,-0.849,-0.8577,-0.8577,-0.8429,-0.796,-0.7408,-0.6814,0.0,0.0,0.0,0.0,0.0,0.0,0.0,0.0,0.0,0.0,0.0,0.0,0.0,0.0,0.0,0.0,0.0,0.0,0.0,0.0,0.0,0.0,0.0,0.0,0.0,0.0,0.0,-0.2899,0.0,0.0,-0.2716,0.0,0.0,0.0,0.0,0.0,0.0,0.0,0.0,0.0,0.0,0.0,0.0,0.0,0.0,0.0,0.0,0.0,0.0,0.0,0.0,0.0,0.0,-0.4722,-0.5786,-0.6393,-0.6841,-0.7075,-0.6964,-0.6854,-0.6678,-0.6115,-0.552,-0.4896,0.0,0.0,0.0,0.0,0.0,0.0,0.0,0.0,0.0,0.0,0.0,0.0,0.0,0.0,0.0,0.0,0.0,0.0,0.0,0.0,0.0,0.0,0.0,0.0,0.0,0.0,-0.1599,-0.1606,-0.1599,0.0,0.0,0.0,0.0,0.0,0.0,0.0,0.0,0.0,0.0,-0.737,-0.7992,-0.8348,-0.8825,-0.9051,-0.8831,-0.8998,-0.8991,-0.8489,-0.8116,-0.7686,0.0,0.0,0.0,0.0,0.0,0.0,0.0,0.0,0.0,0.0,0.0,0.0,0.0,0.0,0.0,0.0,0.0,0.0,0.0,0.0,0.0,0.0,0.0,0.0,0.0,0.0,0.0,-0.3809,-0.3623,0.0,0.0,0.0,0.0,0.0,0.0,0.0,0.0,0.0,0.0,0.0,-0.5138,-0.5142,0.0,0.0,0.0,0.0,0.0,0.0,0.0,0.0,0.0,0.0,0.0,0.0,-0.4685,-0.564,-0.6346,-0.6749,-0.6802,-0.6859,-0.6763,-0.6457,-0.6112,-0.5235,-0.3747,0.0,0.0,0.0,0.0,0.0,0.0,0.0,0.0,0.0,0.0,0.0,0.0,0.0,0.0,0.0,0.0,0.0,0.0,0.0,0.0,0.0,0.0,0.0,0.0,0.0,-0.1873,0.0,0.0,0.0,0.0,0.0,0.0,0.0,0.0,0.0,0.0,0.0,-0.5754,-0.6774,-0.7678,-0.8337,-0.8624,-0.8991,-0.9111,0.0,0.0,0.0,0.0,0.0,0.0,0.0,0.0,0.0,0.0,0.0,0.0,0.0,0.0,-0.7539,-0.7387,-0.7248,-0.725,-0.764,0.0,0.0,0.0,0.0,0.0,0.0,0.0,0.0,0.0,0.0,0.0,0.0,0.0,0.0,-0.4601,0.0,-0.4242,0.0,0.0,0.0,0.0,0.0,0.0,0.0,0.0,-0.5769,-0.5976,-0.5979,-0.603,-0.6074,0.0,-0.6074,-0.5561,0.0,0.0,0.0,0.0,0.0,0.0,0.0,0.0,-0.4813,-0.5725,-0.6373,-0.6725,-0.678,-0.6824,-0.6685,-0.6381,-0.5922,-0.4981,-0.347,-0.3035,-0.2579,0.0,0.0,0.0,0.0,0.0,0.0,0.0,0.0,0.0,0.0,0.0,0.0,0.0,0.0,0.0,0.0,0.0,0.0,0.0,0.0,0.0,0.0,0.0,-0.2011,0.0,0.0,0.0,0.0,0.0,0.0,0.0,0.0,0.0,-0.4058,-0.5118,-0.6202,-0.7227,-0.8137,-0.8778,-0.9072,0.0,0.0,0.0,0.0,0.0,0.0,0.0,-0.8258,-0.8007,-0.7953,-0.7953,-0.7953,-0.8096,-0.8139,-0.7963,0.0,0.0,-0.8064,-0.7935,-0.7986,-0.8368,-0.8397,-0.8496,-0.8977,-0.9177,-0.9385,0.0,0.0,0.0,0.0,0.0,0.0,0.0,0.0,-0.5681,-0.5532,0.0,-0.4942,0.0,0.0,0.0,0.0,0.0,-0.4819,0.0,0.0,-0.6505,-0.6719,-0.6725,-0.6861,-0.6815,-0.6736,-0.6854,-0.6569,-0.5973,-0.5165,0.0,0.0,0.0,0.0,0.0,0.0,-0.5142,-0.5966,-0.6478,-0.6776,-0.6856,-0.6776,-0.6668,-0.6494,-0.5609,-0.4784,-0.4038,-0.3429,-0.2864,-0.2303,-0.2183,0.0,0.0,0.0,0.0,0.0,0.0,0.0,0.0,0.0,0.0,0.0,0.0,0.0,0.0,0.0,0.0,0.0,0.0,0.0,0.0,-0.2022,0.0,0.0,0.0,0.0,0.0,0.0,0.0,0.0,0.0,0.0,-0.4495,-0.5661,-0.6818,-0.7879,0.0,0.0,0.0,0.0,-1.0399,-0.9822,-1.0231,-1.0298,-0.9391,-0.9251,-0.9158,-0.8911,0.0,0.0,-0.8858,-0.8884,-0.8891,-0.8851,-0.9056,-0.9134,-0.8855,-0.8844,-0.895,-0.9275,-0.9549,-0.9862,-1.0254,-1.0557,-1.0957,-0.4369,0.0,0.0,0.0,0.0,-0.621,-0.6366,-0.6441,-0.64,-0.6334,-0.6177,-0.5948,0.0,0.0,0.0,0.0,0.0,0.0,-0.6,-0.6525,-0.697,-0.718,-0.7224,-0.7224,-0.7221,-0.7177,-0.7068,-0.6839,-0.6505,-0.618,-0.5467,-0.4507,0.0,0.0,0.0,0.0,-0.5312,-0.5979,-0.6536,-0.678,-0.6607,-0.6668,-0.6576,-0.6368,-0.5713,-0.5123,-0.449,-0.3791,-0.3021,-0.2279,-0.2112,0.0,0.0,0.0,0.0,0.0,0.0,0.0,0.0,0.0,0.0,0.0,0.0,0.0,0.0,0.0,0.0,0.0,0.0,0.0,-0.2484,-0.2588,-0.2649,0.0,0.0,0.0,0.0,0.0,0.0,0.0,0.0,0.0,-0.4922,-0.6115,-0.7257,0.0,0.0,-1.0214,-1.0332,-1.066,-1.0767,-1.0392,-1.066,0.0,0.0,-1.0187,-1.0154,-1.0097,-1.0258,-1.0367,-1.0361,-1.0367,-1.0227,-0.979,-1.0002,-1.0208,-1.0245,-1.0027,-0.9983,-1.0237,-1.0542,-1.0842,-1.1149,-1.1351,-1.1438,-0.3985,-0.5388,-0.5998,-0.6549,-0.6987,-0.7156,-0.7299,-0.7404,-0.7346,-0.7272,-0.7204,-0.6887,-0.6519,-0.6186,-0.5864,0.0,0.0,0.0,-0.6556,-0.6983,-0.7366,-0.7546,-0.755,-0.7607,-0.7604,-0.7543,-0.7451,-0.721,-0.6966,-0.681,-0.6315,-0.5491,0.0,0.0,-0.5047,-0.5281,-0.5664,-0.6196,-0.664,-0.6841,-0.6658,-0.6624,-0.6538,-0.6306,-0.5792,-0.5313,-0.482,-0.403,-0.3179,-0.2327,-0.2094,-0.1891,0.0,0.0,0.0,0.0,0.0,0.0,0.0,0.0,0.0,0.0,0.0,-0.183,0.0,0.0,0.0,0.0,-0.2275,-0.2518,-0.2825,-0.294,0.0,0.0,0.0,0.0,0.0,0.0,0.0,-0.3727,-0.4066,-0.4562,-0.5327,-0.6395,-0.7425,-0.8262,-0.957,-1.0476,-1.0535,0.0,-1.1034,-1.085,-1.1116,-1.127,-1.0949,-1.0902,-1.0935,-1.0902,-1.1042,-1.1162,-1.1169,-1.1136,-1.0995,-1.0633,-1.0711,-1.0967,-1.1048,-1.1079,-1.1174,-1.1378,-1.1796,-1.2163,-1.2317,-1.2357,-1.2357,-0.326,-0.4531,-0.5572,-0.6758,-0.7889,-0.7902,-0.8102,-0.8328,-0.8253,-0.8196,-0.8197,-0.7644,-0.735,-0.716,-0.6603,0.0,-0.6776,-0.6915,-0.7129,-0.746,-0.7699,-0.7828,-0.7834,-0.7921,-0.7904,-0.779,-0.7794,-0.7641,-0.735,-0.7217,-0.6964,-0.6702,-0.5941,-0.559,-0.5664,-0.5789,-0.6071,-0.6542,-0.68,-0.6896,-0.6883,-0.663,-0.645,-0.6317,-0.5801,-0.5387,-0.5069,-0.4241,-0.3339,-0.2496,-0.2141,-0.1807,-0.1455,0.0,0.0,0.0,0.0,0.0,0.0,0.0,0.0,0.0,0.0,0.0,0.0,0.0,0.0,0.0,-0.2571,0.0,-0.3128,-0.3175,0.0,0.0,0.0,-0.3303,-0.3468,-0.3713,-0.3917,-0.4031,0.0,0.0,-0.562,-0.6506,-0.7353,-0.8116,-0.9315,-1.0207,-1.0416,-1.0899,-1.123,-1.1114,-1.1576,-1.1797,-1.1543,-1.1496,-1.1496,-1.1462,-1.1462,-1.1475,-1.1503,-1.1435,-1.1315,-1.1062,-1.1305,-1.1486,-1.136,-1.1886,-1.2488,-1.2583,-1.3055,-1.3468,-1.3471,-1.3486,-1.3467,-0.1997,-0.3063,-0.3668,-0.5146,-0.7074,-0.7161,-0.7234,-0.7203,-0.7443,-0.764,-0.7795,-0.7705,-0.7703,-0.7631,-0.7272,-0.7207,-0.7387,-0.7424,-0.7536,-0.7716,-0.785,-0.7934,-0.7938,-0.7971,-0.7902,-0.7662,-0.7648,-0.7492,-0.721,-0.7278,-0.7166,-0.6842,-0.6728,-0.6563,-0.6313,-0.6298,-0.6481,-0.6775,-0.6953,-0.6994,-0.6883,-0.663,-0.6454,-0.646,-0.6056,-0.5812,-0.5584,-0.473,-0.3731,-0.2696,-0.2125,-0.1549,-0.0936,-0.1225,0.0,0.0,0.0,0.0,0.0,0.0,0.0,0.0,0.0,-0.2191,-0.2351,0.0,-0.2588,0.0,-0.3124,-0.3439,-0.3615,-0.3819,0.0,0.0,-0.4077,-0.418,-0.4247,-0.4365,-0.449,-0.4528,-0.4793,-0.5157,-0.5571,-0.6314,-0.6947,-0.7436,-0.8634,-0.9617,-0.9992,-1.0543,-1.1015,-1.129,-1.1816,-1.2171,-1.2098,-1.2098,-1.2078,-1.2098,-1.2084,-1.2091,-1.2091,-1.1904,-1.167,-1.1376,-1.1395,-1.1535,-1.1634,-1.2241,-1.2947,-1.3587,-1.3737,-1.3727,-1.3898,-1.3968,-1.3958,-0.1303,-0.2093,-0.2503,-0.3634,-0.5127,-0.5667,-0.5825,-0.5795,-0.6239,-0.6733,-0.7271,-0.789,-0.8175,-0.8096,-0.7872,-0.7814,-0.7892,-0.7828,-0.7789,-0.7867,-0.7948,-0.7988,-0.7988,-0.7988,-0.7867,-0.7695,-0.7631,-0.7512,-0.7307,-0.736,-0.7364,-0.7231,-0.7305,-0.7187,-0.6881,-0.6742,-0.6759,-0.6886,-0.7024,-0.7028,-0.6926,-0.6698,-0.6579,-0.6464,-0.6043,-0.5676,-0.5489,-0.4501,-0.3471,-0.2453,-0.1868,-0.1287,-0.0663,-0.0927,-0.1256,0.0,0.0,0.0,0.0,0.0,0.0,0.0,0.0,0.0,0.0,0.0,-0.2998,-0.3276,-0.3588,-0.3836,-0.3982,-0.4301,-0.452,-0.452,-0.4674,-0.4788,-0.4758,-0.4836,-0.4887,-0.4891,-0.5091,-0.5347,-0.5662,-0.6111,-0.6537,-0.6839,-0.7598,-0.8468,-0.9375,-1.0078,-1.0714,-1.1186,-1.1964,-1.2536,-1.2536,-1.2392,-1.2305,-1.2305,-1.2305,-1.2305,-1.2298,-1.2064,-1.1812,-1.1476,-1.1383,-1.1416,-1.1556,-1.2165,-1.2945,-1.3747,-1.4204,-1.4471,-1.4877,-1.4687,-1.4436,-0.0813,-0.1295,-0.1603,-0.2096,-0.2703,-0.3583,-0.4091,-0.4319,-0.4954,-0.5703,-0.6662,-0.7926,-0.8448,-0.8319,-0.8163,-0.809,-0.808,-0.7865,-0.7789,-0.7789,-0.7789,-0.7789,-0.7786,-0.7789,-0.771,-0.7614,-0.7475,-0.7399,-0.7376,-0.727,-0.727,-0.7429,-0.7513,-0.7446,-0.7321,-0.7115,-0.6933,-0.6916,-0.7034,-0.7034,-0.6916,-0.6787,-0.6637,-0.6491,-0.5863,-0.5299,-0.4999,-0.3916,-0.2898,-0.1926,-0.1457,-0.0983,-0.0477,-0.0687,-0.0971,0.0,-0.1678,0.0,0.0,0.0,0.0,0.0,0.0,0.0,0.0,-0.3151,-0.3425,-0.387,-0.4026,-0.4139,-0.4264,-0.4692,-0.4975,-0.4951,-0.509,-0.5184,-0.5184,-0.5167,-0.5154,-0.516,-0.5308,-0.5528,-0.5752,-0.5949,-0.6166,-0.6489,-0.6698,-0.7355,-0.8597,-0.9594,-1.0399,-1.102,-1.2101,-1.2844,-1.2817,-1.2559,-1.2378,-1.2371,-1.2331,-1.2285,-1.2231,-1.1991,-1.1703,-1.1416,-1.1209,-1.118,-1.1231,-1.1845,-1.2611,-1.346,-1.4204,-1.5028,-1.5747,-1.5439,-1.5107,-0.0188,-0.0309,-0.037,-0.0432,-0.0555,-0.0797,-0.1757,-0.3163,-0.3819,-0.4808,-0.6096,-0.7059,-0.7494,-0.7399,-0.7183,-0.7086,-0.7069,-0.6842,-0.6689,-0.6689,-0.6686,-0.6686,-0.6689,-0.6686,-0.6624,-0.6506,-0.6429,-0.6315,-0.6219,-0.6295,-0.6386,-0.6553,-0.694,-0.7117,-0.7067,0.0,0.0,0.0,-0.7082,-0.7082,-0.7048,-0.6837,-0.6688,-0.6644,-0.5802,0.0,-0.4392,-0.3421,-0.2414,-0.1334,-0.0978,0.0,0.0,0.0,0.0,0.0,0.0,0.0,0.0,0.0,0.0,0.0,-0.4296,-0.4143,-0.368,-0.3853,-0.4146,-0.4487,-0.4545,-0.4626,-0.4749,-0.5081,-0.5313,-0.532,-0.5515,-0.5674,-0.5671,-0.5572,-0.5501,-0.5504,-0.5528,-0.561,-0.5789,-0.604,-0.6278,-0.6497,-0.6607,-0.7046,-0.7853,-0.9131,-1.0256,-1.1158,-1.2346,-1.3074,-1.312,-1.2904,-1.2697,-1.2677,-1.2452,-1.2231,-1.2017,-1.173,-1.143,-1.1162,-1.0874,-1.0825,-1.1031,-1.1414,-1.2014,-1.2764,-1.3503,-1.441,-1.5843,-1.5863,-1.57,0.0,0.0,0.0,0.0,0.0,0.0,-0.0553,-0.1462,-0.2116,-0.3193,-0.4579,-0.546,-0.5895,-0.5841,-0.5638,-0.552,-0.5522,-0.5325,-0.5208,-0.5208,-0.5208,-0.518,-0.5222,-0.5222,-0.5126,-0.4988,-0.489,-0.4819,-0.4773,-0.4821,-0.5083,-0.5467,-0.6158,-0.6594,-0.6794,-0.7214,-0.7295,-0.7095,-0.7095,-0.7095,-0.7085,-0.6809,-0.6702,-0.6685,0.0,0.0,0.0,0.0,0.0,0.0,0.0,0.0,0.0,0.0,0.0,-0.0441,-0.101,-0.1643,-0.2325,-0.3009,-0.372,-0.4391,-0.48,-0.4863,-0.448,-0.4503,-0.4641,-0.4887,-0.4975,-0.5085,-0.5138,-0.5474,-0.5691,-0.5701,-0.5891,-0.6,-0.5925,-0.5818,-0.5776,-0.5708,-0.5694,-0.5749,-0.5858,-0.6176,-0.6453,-0.6569,-0.678,-0.7083,-0.7708,-0.8811,-1.0141,-1.1816,-1.2595,-1.3107,-1.3327,-1.3173,-1.2945,-1.2811,-1.2656,-1.2449,-1.2131,-1.1844,-1.1597,-1.1436,-1.1189,-1.1049,-1.1203,-1.1553,-1.2018,-1.262,-1.3389,-1.4413,-1.5762,-1.597,-1.5951,0.0,0.0,0.0,0.0,0.0,0.0,0.0,-0.0062,0.0,0.0,0.0,-0.3791,-0.4174,-0.4157,-0.4017,-0.3915,-0.3903,-0.3772,-0.3736,-0.3687,-0.3736,-0.3716,-0.3717,-0.3717,-0.369,-0.3537,-0.3421,-0.3388,-0.339,-0.3388,-0.3706,-0.4354,-0.5282,-0.5976,-0.6546,-0.696,-0.7128,-0.7009,-0.7064,-0.7095,-0.7088,-0.6878,-0.6739,-0.6742,-0.5838,-0.5078,-0.4394,-0.3303,-0.2232,-0.1264,-0.0801,-0.0371,-0.0031,-0.0122,-0.024,-0.0422,-0.083,-0.1375,-0.2019,-0.2774,-0.3597,-0.4466,-0.5186,-0.5494,-0.5201,-0.5073,-0.5098,-0.5201,-0.5365,-0.547,-0.5481,-0.5786,-0.6003,-0.6067,-0.6207,-0.6282,-0.6091,-0.6081,-0.6006,-0.5874,-0.584,-0.5888,-0.5979,-0.6312,-0.6596,-0.6702,-0.6932,-0.7316,-0.7863,-0.8844,-1.0336,-1.2271,-1.282,-1.3103,-1.3532,-1.344,-1.32,-1.3032,-1.2924,-1.2757,-1.2432,-1.2138,-1.198,-1.1859,-1.1623,-1.1429,-1.1503,-1.1817,-1.2239,-1.2572,-1.3466,-1.4517,-1.5536,-1.5936,-1.6141,0.0,0.0,0.0,0.0,0.0,0.0,0.0,0.0,-0.085,-0.1491,-0.2049,-0.265,-0.2948,-0.2952,-0.2859,-0.281,-0.279,-0.2652,-0.2612,-0.2612,-0.2611,-0.2614,-0.2621,-0.2621,-0.2619,-0.2608,-0.2512,-0.2489,-0.2488,-0.2488,-0.2784,-0.3335,-0.4187,-0.5135,-0.6158,-0.631,-0.6493,-0.6648,-0.6939,-0.7095,-0.7095,-0.694,-0.6898,-0.6836,-0.6069,-0.5335,-0.4657,-0.3669,-0.2536,-0.1359,-0.0956,-0.0531,-0.0032,0.0,-0.0032,-0.0099,-0.0404,-0.0816,-0.1392,-0.2169,-0.3305,-0.4882,-0.5841,-0.6132,-0.5579,-0.5508,-0.5555,-0.5691,-0.5732,-0.5739,-0.5752,-0.5928,-0.6108,-0.6224,-0.6356,-0.647,-0.6396,-0.634,-0.6173,-0.602,-0.5963,-0.5963,-0.6033,-0.6396,-0.6651,-0.6732,-0.691,-0.7316,-0.8057,-0.9291,-1.0674,-1.2062,-1.2735,-1.3248,-1.3739,-1.3733,-1.352,-1.3487,-1.3287,-1.3039,-1.2777,-1.2465,-1.2218,-1.1973,-1.1724,-1.161,-1.1806,-1.1866,-1.2085,-1.2376,-1.3084,-1.4021,-1.5136,-1.5826,-1.6364,0.0,0.0,0.0,0.0,0.0,0.0,0.0,0.0,-0.0429,-0.0666,-0.0833,-0.1104,-0.1252,-0.1231,-0.1202,-0.1176,-0.1206,-0.1136,-0.1076,-0.1075,-0.1115,-0.1116,-0.1125,-0.1115,-0.111,-0.1109,-0.1051,-0.1046,-0.1046,-0.1046,-0.1345,-0.1893,-0.2958,-0.4007,-0.4954,-0.5163,-0.5526,-0.6078,-0.6629,-0.701,-0.7092,-0.6957,-0.6886,-0.6883,-0.6127,-0.5381,-0.4763,-0.364,-0.2532,-0.1457,-0.0949,-0.0477,0.0,0.0,0.0,0.0,-0.0249,-0.0572,-0.1001,-0.2414,-0.3784,-0.4953,-0.5953,-0.6405,-0.6132,-0.6071,-0.6095,-0.6156,-0.6166,-0.6166,-0.6207,-0.6302,-0.6424,-0.6532,-0.6634,-0.6651,-0.6508,-0.6502,-0.6446,-0.62,-0.6156,-0.6156,-0.6152,-0.64,-0.6614,-0.6702,-0.6913,-0.7265,-0.7584,-0.8372,-0.9593,-1.1225,-1.2095,-1.279,-1.3519,-1.3681,-1.3614,-1.364,-1.3493,-1.3327,-1.3066,-1.2859,-1.2752,-1.2612,-1.2345,-1.2218,-1.2368,-1.2248,-1.2204,-1.2318,-1.2936,-1.3869,-1.495,-1.6078,-1.6793,0.0,0.0,0.0,0.0,0.0,0.0,0.0,0.0,0.0,0.0,0.0,0.0,0.0,0.0,0.0,0.0,0.0,0.0,0.0,0.0,0.0,0.0,0.0,0.0,0.0,0.0,0.0,0.0,0.0,0.0,-0.0303,-0.0958,-0.2008,-0.2899,-0.3642,-0.3995,-0.453,-0.5265,-0.5964,-0.6564,-0.7092,-0.6987,-0.6937,-0.691,-0.6204,-0.5515,-0.4799,-0.3665,-0.2534,-0.152,-0.0927,-0.0446,0.0,0.0,0.0,0.0,-0.0151,-0.0453,-0.0981,-0.2677,-0.4087,-0.4878,-0.5963,-0.6576,-0.6617,-0.6607,-0.659,-0.6536,-0.6512,-0.6512,-0.6519,-0.6614,-0.6712,-0.6753,-0.6812,-0.681,-0.6586,-0.663,-0.6586,-0.6361,-0.63,-0.6293,-0.6323,-0.6422,-0.6549,-0.6753,-0.691,-0.7045,-0.7129,-0.7455,-0.8504,-0.9893,-1.1063,-1.1966,-1.2918,-1.3385,-1.3549,-1.3637,-1.3706,-1.3654,-1.3467,-1.3373,-1.33,-1.3227,-1.3026,-1.2878,-1.2851,-1.2643,-1.2445,-1.2506,-1.3007,-1.3912,-1.5269,-1.6567,-1.7255,0.0,0.0,0.0,0.0,0.0,0.0,0.0,0.0,0.0,0.0,0.0,0.0,0.0,0.0,0.0,0.0,0.0,0.0,0.0,0.0,0.0,0.0,0.0,0.0,0.0,0.0,0.0,0.0,0.0,0.0,-0.0404,-0.1107,-0.1536,-0.1966,-0.2545,-0.2933,-0.3476,-0.421,-0.466,-0.5628,-0.7007,-0.7085,-0.7078,-0.7075,-0.6479,-0.574,-0.4867,-0.391,-0.2705,-0.1444,-0.0975,-0.0552,0.0,0.0,0.0,0.0,0.0,-0.0374,-0.1244,-0.2571,-0.3769,-0.4709,-0.602,-0.6829,-0.6836,-0.695,-0.6959,-0.6756,-0.6685,-0.6688,-0.6681,-0.6709,-0.678,-0.6892,-0.6883,-0.6865,-0.6712,-0.6692,-0.6586,-0.6334,-0.63,-0.63,-0.6313,-0.6422,-0.662,-0.6824,-0.6876,-0.6974,-0.7119,-0.7323,-0.7676,-0.8544,-0.955,-1.0928,-1.2083,-1.2778,-1.3233,-1.3811,-1.4035,-1.3975,-1.3881,-1.37,-1.356,-1.3574,-1.3367,-1.318,-1.3106,-1.2933,-1.2757,-1.2831,-1.3287,-1.408,-1.5745,-1.7067,-1.745,0.0,0.0,0.0,0.0,0.0,0.0,0.0,0.0,0.0,0.0,0.0,0.0,0.0,0.0,0.0,0.0,0.0,0.0,0.0,0.0,0.0,0.0,0.0,0.0,0.0,0.0,0.0,0.0,0.0,0.0,-0.0151,-0.0453,-0.0594,-0.0785,-0.0978,-0.1415,-0.1997,-0.2722,-0.3185,-0.3956,-0.4985,-0.5838,-0.6296,-0.6195,-0.5564,-0.4923,-0.4229,-0.3141,-0.2062,-0.1145,-0.0696,-0.037,0.0,0.0,0.0,0.0,0.0,-0.0337,-0.1094,-0.2225,-0.3312,-0.4235,-0.5647,-0.654,-0.6715,-0.697,-0.7041,-0.6947,-0.6916,-0.6916,-0.6956,-0.6916,-0.6943,-0.6997,-0.7011,-0.692,-0.6725,-0.6702,-0.6586,-0.6354,-0.63,-0.63,-0.632,-0.6422,-0.6593,-0.6763,-0.6822,-0.694,-0.7068,-0.7187,-0.7319,-0.7584,-0.8285,-0.9545,-1.1139,-1.2052,-1.2705,-1.344,-1.3786,-1.3913,-1.4019,-1.4015,-1.3901,-1.3901,-1.3654,-1.3447,-1.3427,-1.324,-1.3058,-1.3185,-1.3854,-1.4762,-1.5805,-1.689,-1.7211,0.0,0.0,0.0,0.0,0.0,0.0,0.0,0.0,0.0,0.0,0.0,0.0,0.0,0.0,0.0,0.0,0.0,0.0,0.0,0.0,0.0,0.0,0.0,0.0,0.0,0.0,0.0,0.0,0.0,0.0,0.0,0.0,0.0,0.0,0.0,-0.0421,-0.0926,-0.1597,-0.2006,-0.2531,-0.3254,-0.4199,-0.487,-0.5041,-0.445,-0.3805,-0.3233,-0.2242,-0.1369,-0.0685,-0.0343,-0.0129,0.0,0.0,0.0,0.0,0.0,-0.0257,-0.09,-0.1839,-0.2776,-0.3763,-0.5158,-0.6115,-0.6437,-0.6862,-0.7092,-0.7092,-0.7136,-0.719,-0.7098,-0.7095,-0.7095,-0.7095,-0.7095,-0.6987,-0.6807,-0.6736,-0.6603,-0.6405,-0.6327,-0.632,-0.6364,-0.6457,-0.6546,-0.6749,-0.6825,-0.6937,-0.7058,-0.7095,-0.7139,-0.7139,-0.7452,-0.846,-1.0115,-1.102,-1.188,-1.2826,-1.33,-1.3652,-1.3955,-1.4082,-1.4082,-1.3981,-1.3848,-1.3733,-1.37,-1.3547,-1.3353,-1.3528,-1.4154,-1.5001,-1.5552,-1.6581,-1.6965,0.0,0.0,0.0,0.0,0.0,0.0,0.0,0.0,0.0,0.0,0.0,0.0,0.0,0.0,0.0,0.0,0.0,0.0,0.0,0.0,0.0,0.0,0.0,0.0,0.0,0.0,0.0,0.0,0.0,0.0,0.0,0.0,0.0,0.0,0.0,-0.0277,-0.0636,-0.1067,-0.1322,-0.1679,-0.2163,-0.2311,-0.282,-0.3489,-0.3213,-0.2676,-0.1963,-0.143,-0.0805,-0.009,0.0,0.0,0.0,0.0,0.0,0.0,0.0,-0.0223,-0.0714,-0.1424,-0.2223,-0.3249,-0.4619,-0.5617,-0.6098,-0.6732,-0.7095,-0.7095,-0.7265,-0.7292,-0.7139,-0.7146,-0.7136,-0.7129,-0.7115,-0.7048,-0.6893,-0.681,-0.6644,-0.6525,-0.6409,-0.6399,-0.6451,-0.6504,-0.6637,-0.6837,-0.6889,-0.6964,-0.7105,-0.7125,-0.7132,-0.7177,-0.7391,-0.79,-0.8855,-0.9889,-1.0923,-1.1918,-1.2693,-1.3258,-1.3737,-1.4088,-1.4088,-1.4088,-1.4028,-1.3995,-1.3988,-1.3862,-1.3696,-1.3846,-1.4163,-1.4835,-1.533,-1.6293,-1.6731,0.0,0.0,0.0,0.0,0.0,0.0,0.0,0.0,0.0,0.0,0.0,0.0,0.0,0.0,0.0,0.0,0.0,0.0,0.0,0.0,0.0,0.0,0.0,0.0,0.0,0.0,0.0,0.0,0.0,0.0,0.0,0.0,0.0,0.0,0.0,-0.0095,-0.0236,0.0,-0.0471,-0.0612,0.0,-0.0791,-0.1005,-0.1277,-0.1713,-0.1747,-0.1345,-0.0896,-0.0449,0.0,0.0,0.0,0.0,0.0,0.0,0.0,0.0,-0.0135,-0.0493,-0.1031,-0.1747,-0.273,-0.4067,-0.5186,-0.5808,-0.6609,-0.7095,-0.717,-0.7285,-0.7329,-0.7333,-0.7373,-0.7431,-0.7431,-0.7382,-0.7322,-0.7126,-0.701,-0.6892,-0.6678,-0.6569,-0.6569,-0.661,-0.6698,-0.6841,-0.6984,-0.7146,-0.7255,-0.7383,-0.7431,-0.7355,-0.7411,-0.7444,-0.7514,-0.7825,-0.8909,-1.0014,-1.1101,-1.1966,-1.2699,-1.3264,-1.3695,-1.3779,-1.4046,-1.4088,-1.4082,-1.4035,-1.4008,-1.3899,-1.3906,-1.4271,-1.4651,-1.5211,-1.6134,-1.6578,0.0,0.0,0.0,0.0,0.0,0.0,0.0,0.0,0.0,0.0,0.0,0.0,0.0,0.0,0.0,0.0,0.0,0.0,0.0,0.0,0.0,0.0,0.0,0.0,0.0,0.0,0.0,0.0,0.0,0.0,0.0,0.0,0.0,0.0,0.0,0.0,0.0,0.0,0.0,0.0,0.0,0.0,0.0,0.0,-0.0635,-0.0897,-0.0763,-0.0404,-0.018,0.0,0.0,0.0,0.0,0.0,0.0,0.0,0.0,-0.0045,-0.0269,-0.0584,-0.1121,-0.2107,-0.3467,-0.4694,-0.5465,-0.658,-0.7146,-0.7316,-0.7421,-0.7516,-0.7543,-0.7651,-0.7706,-0.7628,-0.7597,-0.7495,-0.721,-0.7125,-0.6953,-0.6763,-0.6685,-0.6709,-0.6773,-0.6822,-0.6933,-0.7075,-0.7238,-0.7353,-0.7485,-0.7478,-0.7478,-0.7502,-0.7366,-0.733,-0.7479,-0.8147,-0.8942,-0.999,-1.102,-1.1886,-1.2784,-1.3215,-1.3652,-1.3955,-1.4088,-1.4088,-1.4088,-1.4088,-1.4065,-1.4021,-1.4131,-1.445,-1.5174,-1.595,-1.6414,0.0,0.0,0.0,0.0,0.0,0.0,0.0,0.0,0.0,0.0,0.0,0.0,0.0,0.0,0.0,0.0,0.0,0.0,0.0,0.0,0.0,0.0,0.0,0.0,0.0,0.0,0.0,0.0,0.0,0.0,0.0,0.0,0.0,0.0,0.0,0.0,0.0,0.0,0.0,0.0,0.0,0.0,0.0,0.0,0.0,0.0,0.0,0.0,0.0,0.0,0.0,0.0,0.0,0.0,0.0,0.0,0.0,0.0,0.0,0.0,-0.0539,-0.1483,-0.2913,-0.4179,-0.511,-0.6493,-0.7363,-0.7376,-0.7488,-0.7636,-0.7652,-0.771,-0.7756,-0.7668,-0.7651,-0.758,-0.7397,-0.7231,-0.6994,-0.6803,-0.6749,-0.678,-0.6842,-0.6927,-0.7004,-0.7098,-0.7166,-0.7292,-0.7434,-0.7383,-0.7275,-0.7343,-0.7336,-0.7272,-0.7296,-0.737,-0.804,-0.8788,-0.9864,-1.0852,-1.2046,-1.2735,-1.3434,-1.3828,-1.4088,-1.4088,-1.4088,-1.4088,-1.4088,-1.41,-1.4197,-1.4358,-1.5076,-1.5787,-1.6436,0.0,0.0,0.0,0.0,0.0,0.0,0.0,0.0,0.0,0.0,0.0,0.0,0.0,0.0,0.0,0.0,0.0,0.0,0.0,0.0,0.0,0.0,0.0,0.0,0.0,0.0,0.0,0.0,0.0,0.0,0.0,0.0,0.0,0.0,0.0,0.0,0.0,0.0,0.0,0.0,0.0,0.0,0.0,0.0,0.0,0.0,0.0,0.0,0.0,0.0,0.0,0.0,0.0,0.0,0.0,0.0,0.0,0.0,0.0,0.0,-0.0315,-0.1216,-0.2464,-0.3546,-0.444,-0.5694,-0.6467,-0.6478,-0.6624,-0.67,-0.672,-0.6813,-0.7084,-0.7811,-0.785,-0.7735,-0.7533,-0.7247,-0.7082,-0.6991,-0.696,-0.6984,-0.7075,-0.7136,-0.7214,-0.7268,-0.7356,-0.7472,-0.759,-0.7482,-0.7519,-0.7628,-0.7472,-0.7302,-0.7357,-0.7392,-0.7697,-0.8327,-0.9193,-1.0343,-1.1478,-1.2447,-1.3095,-1.3743,-1.3997,-1.4088,-1.4088,-1.4088,-1.4088,-1.4088,-1.4132,-1.449,-1.4966,-1.5546,-1.6194,0.0,0.0,0.0,0.0,0.0,0.0,0.0,0.0,0.0,0.0,0.0,0.0,0.0,0.0,0.0,0.0,0.0,0.0,0.0,0.0,0.0,0.0,0.0,0.0,0.0,0.0,0.0,0.0,0.0,0.0,0.0,0.0,0.0,0.0,0.0,0.0,0.0,0.0,0.0,0.0,0.0,0.0,0.0,0.0,0.0,0.0,0.0,0.0,0.0,0.0,0.0,0.0,0.0,0.0,0.0,0.0,0.0,0.0,0.0,0.0,-0.0276,-0.1013,-0.2006,-0.2877,-0.3599,-0.4656,-0.5236,-0.5252,-0.5298,-0.5384,-0.5398,-0.5435,-0.5924,-0.6678,-0.7325,-0.7609,-0.7537,-0.7326,-0.7112,-0.7078,-0.7082,-0.7095,-0.7122,-0.7204,-0.7285,-0.7302,-0.737,-0.7485,-0.757,-0.7499,-0.7553,-0.7556,-0.7394,-0.7346,-0.7458,-0.7508,-0.7487,-0.8031,-0.8665,-0.9985,-1.1242,-1.2091,-1.2817,-1.3662,-1.4088,-1.4088,-1.4088,-1.4088,-1.4088,-1.4088,-1.413,-1.442,-1.4795,-1.5275,-1.5945,0.0,0.0,0.0,0.0,0.0,0.0,0.0,0.0,0.0,0.0,0.0,0.0,0.0,0.0,0.0,0.0,0.0,0.0,0.0,0.0,0.0,0.0,0.0,0.0,0.0,0.0,0.0,0.0,0.0,0.0,0.0,0.0,0.0,0.0,0.0,0.0,0.0,0.0,0.0,0.0,0.0,0.0,0.0,0.0,0.0,0.0,0.0,0.0,0.0,0.0,0.0,0.0,0.0,0.0,0.0,0.0,0.0,0.0,0.0,0.0,0.0,-0.0711,-0.1443,-0.2152,-0.2732,-0.3452,-0.3988,-0.3944,-0.3954,-0.3961,-0.3961,-0.3966,-0.427,-0.4922,-0.6313,-0.7192,-0.7547,-0.7353,-0.7207,-0.7125,-0.7109,-0.7088,-0.7078,-0.7088,-0.7149,-0.7092,-0.7119,-0.7265,-0.7316,-0.7316,-0.7213,-0.7196,-0.7203,-0.736,-0.7461,-0.7516,-0.7569,-0.7916,-0.8541,-0.963,-1.1066,-1.1948,-1.2772,-1.3585,-1.4135,-1.4122,-1.4088,-1.4095,-1.4088,-1.4088,-1.4166,-1.4328,-1.4608,-1.509,-1.5655,0.0,0.0,0.0,0.0,0.0,0.0,0.0,0.0,0.0,0.0,0.0,0.0,0.0,0.0,0.0,0.0,0.0,0.0,0.0,0.0,0.0,0.0,0.0,0.0,0.0,0.0,0.0,0.0,0.0,0.0,0.0,0.0,0.0,0.0,0.0,0.0,0.0,0.0,0.0,0.0,0.0,0.0,0.0,0.0,0.0,0.0,0.0,0.0,0.0,0.0,0.0,0.0,0.0,0.0,0.0,0.0,0.0,0.0,0.0,0.0,0.0,-0.0477,-0.1021,-0.1568,-0.1862,-0.2442,-0.2766,-0.2821,-0.2821,-0.282,-0.2821,-0.282,-0.3323,-0.447,-0.5678,-0.6832,-0.7442,-0.7502,-0.7312,-0.7302,-0.7162,-0.7065,-0.6997,-0.7031,-0.7055,-0.6994,-0.7034,-0.7105,-0.7197,-0.7204,-0.7139,-0.7125,-0.7152,-0.7336,-0.7448,-0.7516,-0.7692,-0.7973,-0.8556,-0.9359,-1.0803,-1.2182,-1.2963,-1.3773,-1.417,-1.4275,-1.4168,-1.4102,-1.4095,-1.4215,-1.4231,-1.4392,-1.4502,-1.4865,-1.5418,0.0,0.0,0.0,0.0,0.0,0.0,0.0,0.0,0.0,0.0,0.0,0.0,0.0,0.0,0.0,0.0,0.0,0.0,0.0,0.0,0.0,0.0,0.0,0.0,0.0,0.0,0.0,0.0,0.0,0.0,0.0,0.0,0.0,0.0,0.0,0.0,0.0,0.0,0.0,0.0,0.0,0.0,0.0,0.0,0.0,0.0,0.0,0.0,0.0,0.0,0.0,0.0,0.0,0.0,0.0,0.0,0.0,0.0,0.0,0.0,0.0,-0.0245,0.0,0.0,-0.0895,-0.1255,-0.1413,-0.1363,-0.1363,-0.1413,-0.1412,-0.1564,-0.2268,-0.3217,-0.4382,-0.5569,-0.6946,-0.6935,-0.6936,-0.6973,-0.7014,-0.6957,-0.691,-0.7011,-0.7001,-0.6957,-0.7018,-0.7068,-0.7105,-0.7095,-0.7088,-0.7078,-0.7132,-0.7316,-0.7468,-0.7563,-0.7706,-0.7989,-0.8442,-0.9182,-1.0583,-1.2142,-1.3061,-1.373,-1.4172,-1.4436,-1.4389,-1.4432,-1.4559,-1.4613,-1.4512,-1.4515,-1.4704,-1.4689,-1.5212,0.0,0.0,0.0,0.0,0.0,0.0,0.0,0.0,0.0,0.0,0.0,0.0,0.0,0.0,0.0,0.0,0.0,0.0,0.0,0.0,0.0,0.0,0.0,0.0,0.0,0.0,0.0,0.0,0.0,0.0,0.0,0.0,0.0,0.0,0.0,0.0,0.0,0.0,0.0,0.0,0.0,0.0,0.0,0.0,0.0,0.0,0.0,0.0,0.0,0.0,0.0,0.0,0.0,0.0,0.0,0.0,0.0,0.0,0.0,0.0,0.0,0.0,0.0,0.0,0.0,0.0,0.0,0.0,0.0,0.0,-0.0303,-0.0556,-0.1208,-0.2004,-0.2552,-0.3727,-0.5218,-0.5912,-0.6153,-0.6456,-0.6622,-0.6741,-0.6887,-0.6987,-0.7045,-0.6927,-0.6991,-0.7048,-0.7071,-0.7071,-0.7055,-0.7034,-0.7125,-0.7299,-0.7461,-0.7617,-0.7787,-0.797,-0.8358,-0.9102,-1.0369,-1.1781,-1.2923,-1.3758,-1.4231,-1.4641,-1.4841,-1.4894,-1.4955,-1.4908,-1.4774,-1.4867,-1.4979,-1.4838,-1.5055,0.0,0.0,0.0,0.0,0.0,0.0,0.0,0.0,0.0,0.0,0.0,0.0,0.0,0.0,0.0,0.0,0.0,0.0,0.0,0.0,0.0,0.0,0.0,0.0,0.0,0.0,0.0,0.0,0.0,0.0,0.0,0.0,0.0,0.0,0.0,0.0,0.0,0.0,0.0,0.0,0.0,0.0,0.0,0.0,0.0,0.0,0.0,0.0,0.0,0.0,0.0,0.0,0.0,0.0,0.0,0.0,0.0,0.0,0.0,0.0,0.0,0.0,0.0,0.0,0.0,0.0,0.0,0.0,0.0,0.0,0.0,-0.0303,-0.0752,-0.1241,-0.1629,-0.2155,-0.3171,-0.4222,-0.508,-0.565,-0.6068,-0.6386,-0.6834,-0.6984,-0.7031,-0.6937,-0.697,-0.7031,-0.7058,-0.7078,-0.7055,-0.7048,-0.7119,-0.7302,-0.7506,-0.7665,-0.7824,-0.7943,-0.8227,-0.8768,-1.0046,-1.1413,-1.2606,-1.3551,-1.4366,-1.4727,-1.5144,-1.5109,-1.507,-1.5075,-1.5068,-1.5135,-1.5149,-1.4943,-1.4981,0.0,0.0,0.0,0.0,0.0,0.0,0.0,0.0,0.0,0.0,0.0,0.0,0.0,0.0,0.0,0.0,0.0,0.0,0.0,0.0,0.0,0.0,0.0,0.0,0.0,0.0,0.0,0.0,0.0,0.0,0.0,0.0,0.0,0.0,0.0,0.0,0.0,0.0,0.0,0.0,0.0,0.0,0.0,0.0,0.0,0.0,0.0,0.0,0.0,0.0,0.0,0.0,0.0,0.0,0.0,0.0,0.0,0.0,0.0,0.0,0.0,0.0,0.0,0.0,0.0,0.0,0.0,0.0,0.0,0.0,0.0,-0.0101,0.0,-0.0542,0.0,0.0,0.0,-0.2736,-0.4077,-0.4752,-0.5282,-0.5863,-0.6337,-0.6751,-0.7071,-0.7021,-0.7292,-0.7346,-0.7248,-0.7251,-0.7125,-0.7112,-0.7149,-0.7316,-0.7536,-0.7709,-0.7803,-0.7874,-0.7985,-0.8583,-0.9469,-1.0863,-1.2236,-1.3245,-1.4213,-1.5101,-1.5478,-1.5371,-1.5278,-1.5411,-1.5438,-1.5391,-1.5364,-1.5371,-1.5398,0.0,0.0,0.0,0.0,0.0,0.0,0.0,0.0,0.0,0.0,0.0,0.0,0.0,0.0,0.0,0.0,0.0,0.0,0.0,0.0,0.0,0.0,0.0,0.0,0.0,0.0,0.0,0.0,0.0,0.0,0.0,0.0,0.0,0.0,0.0,0.0,0.0,0.0,0.0,0.0,0.0,0.0,0.0,0.0,0.0,0.0,0.0,0.0,0.0,0.0,0.0,0.0,0.0,0.0,0.0,0.0,0.0,0.0,0.0,0.0,0.0,0.0,0.0,0.0,0.0,0.0,0.0,0.0,0.0,0.0,0.0,0.0,0.0,0.0,0.0,0.0,0.0,-0.1636,-0.2707,-0.3622,-0.427,-0.4949,-0.5855,-0.6512,-0.6857,-0.715,-0.7429,-0.7563,-0.7455,-0.7346,-0.7251,-0.7183,-0.7207,-0.7339,-0.7556,-0.7706,-0.7806,-0.7816,-0.7879,-0.8329,-0.8977,-1.0143,-1.1554,-1.3058,-1.4094,-1.488,-1.5395,-1.5329,-1.5389,-1.5676,-1.5724,-1.5638,-1.5685,-1.5805,-1.5778,0.0,0.0,0.0,0.0,0.0,0.0,0.0,0.0,0.0,0.0,0.0,0.0,0.0,0.0,0.0,0.0,0.0,0.0,0.0,0.0,0.0,0.0,0.0,0.0,0.0,0.0,0.0,0.0,0.0,0.0,0.0,0.0,0.0,0.0,0.0,0.0,0.0,0.0,0.0,0.0,0.0,0.0,0.0,0.0,0.0,0.0,0.0,0.0,0.0,0.0,0.0,0.0,0.0,0.0,0.0,0.0,0.0,0.0,0.0,0.0,0.0,0.0,0.0,0.0,0.0,0.0,0.0,0.0,0.0,0.0,0.0,0.0,0.0,0.0,0.0,0.0,0.0,-0.0611,-0.1372,-0.2174,-0.3073,-0.4095,-0.5131,-0.6094,-0.6635,-0.7031,-0.7422,-0.7577,-0.7509,-0.7397,-0.7292,-0.7238,-0.72,-0.7377,-0.7577,-0.7702,-0.7818,-0.7746,-0.7856,-0.8108,-0.8754,-0.9555,-1.0756,-1.1994,-1.327,-1.4166,-1.4609,-1.4921,-1.5261,-1.535,-1.554,-1.5778,-1.5825,-1.5825,-1.5825,0.0,0.0,0.0,0.0,0.0,0.0,0.0,0.0,0.0,0.0,0.0,0.0,0.0,0.0,0.0,0.0,0.0,0.0,0.0,0.0,0.0,0.0,0.0,0.0,0.0,0.0,0.0,0.0,0.0,0.0,0.0,0.0,0.0,0.0,0.0,0.0,0.0,0.0,0.0,0.0,0.0,0.0,0.0,0.0,0.0,0.0,0.0,0.0,0.0,0.0,0.0,0.0,0.0,0.0,0.0,0.0,0.0,0.0,0.0,0.0,0.0,0.0,0.0,0.0,0.0,0.0,0.0,0.0,0.0,0.0,0.0,0.0,0.0,0.0,0.0,0.0,0.0,0.0,0.0,0.0,-0.2044,-0.3253,-0.4489,-0.5426,-0.6292,-0.6915,-0.7392,-0.7505,-0.7533,-0.7516,-0.7431,-0.7346,-0.7326,-0.7458,-0.7621,-0.7716,-0.7787,-0.776,-0.7767,-0.8063,-0.8432,-0.9155,-0.9735,-1.0583,-1.1853,-1.2926,-1.3703,-1.3938,-1.4478,-1.5064,-1.5445,-1.573,-1.5778,-1.5825,-1.5825,0.0378,0.0314,0.0248,0.0185,0.0062,0.0,0.0,0.0,0.0,0.0,0.0,0.0,0.0,0.0,0.0,0.0,0.0,0.0,0.0,0.0,0.0,0.0,0.0,0.0,0.0,0.0,0.0,0.0,0.0,0.0,0.0,0.0,0.0,0.0,0.0,0.0,0.0,0.0,0.0,0.0,0.0,0.0,0.0,0.0,0.0,0.0,0.0,0.0,0.0,0.0,0.0,0.0,0.0,0.0,0.0,0.0,0.0,0.0,0.0,0.0,0.0,0.0,0.0,0.0,0.0,0.0,0.0,0.0,0.0,0.0,0.0,0.0,0.0,0.0,0.0,0.0,0.0,0.0,0.0,0.0,0.0,-0.2224,-0.3394,-0.4481,-0.5305,-0.6442,-0.6966,-0.7495,-0.7545,-0.7685,-0.7651,-0.7519,-0.7492,-0.758,-0.7682,-0.774,-0.7777,-0.7705,-0.7777,-0.7921,-0.8251,-0.8636,-0.9148,-0.9509,-0.9953,-1.0974,-1.1945,-1.3162,-1.3896,-1.4627,-1.5302,-1.5683,-1.5778,-1.5825,-1.5825,0.1565,0.1298,0.0989,0.0679,0.0432,0.0,0.0,0.0,0.0,0.0,0.0,0.0,0.0,0.0,0.0,0.0,0.0,0.0,0.0,0.0,0.0,0.0,0.0,0.0,0.0,0.0,0.0,0.0,0.0,0.0,0.0,0.0,0.0,0.0,0.0,0.0,0.0,0.0,0.0,0.0,0.0,0.0,0.0,0.0,0.0,0.0,0.0,0.0,0.0,0.0,0.0,0.0,0.0,0.0,0.0,0.0,0.0,0.0,0.0,0.0,0.0,0.0,0.0,0.0,0.0,0.0,0.0,0.0,0.0,0.0,0.0,0.0,0.0,0.0,0.0,0.0,0.0,0.0,0.0,0.0,0.0,-0.1289,-0.2092,-0.325,-0.4316,-0.5518,-0.6553,-0.7094,-0.7579,-0.7699,-0.7845,-0.7712,-0.7617,-0.7689,-0.7784,-0.7834,-0.7831,-0.7746,-0.7818,-0.7855,-0.807,-0.8297,-0.817,-0.8577,-0.8874,-0.9661,-1.1033,-1.2301,-1.3318,-1.4238,-1.5057,-1.5493,-1.5778,-1.5825,-1.5825,0.4024,0.2832,0.2157,0.1541,0.0987,0.0309,0.0,0.0,0.0,0.0,0.0,0.0,0.0,0.0,0.0,0.0,0.0,0.0,0.0,0.0,0.0,0.0,0.0,0.0,0.0,0.0,0.0,0.0,0.0,0.0,0.0,0.0,0.0,0.0,0.0,0.0,0.0,0.0,0.0,0.0,0.0,0.0,0.0,0.0,0.0,0.0,0.0,0.0,0.0,0.0,0.0,0.0,0.0,0.0,0.0,0.0,0.0,0.0,0.0,0.0,0.0,0.0,0.0,0.0,0.0,0.0,0.0,0.0,0.0,0.0,0.0,0.0,0.0,0.0,0.0,0.0,0.0,0.0,0.0,0.0,0.0,0.0,0.0,-0.2166,-0.3321,-0.4524,-0.5675,-0.6451,-0.7085,-0.7625,-0.7788,-0.7847,-0.7814,-0.7777,-0.7826,-0.7904,-0.7901,-0.7877,-0.7874,-0.7953,-0.7963,-0.8004,-0.7978,-0.7988,-0.8333,-0.9221,-1.0404,-1.1575,-1.2732,-1.3848,-1.4867,-1.535,-1.5825,-1.5825,-1.5778,0.6637,0.504,0.3568,0.2586,0.1911,0.0925,0.0,0.0,0.0,0.0,0.0494,0.0,0.0,0.0,0.0,0.0,0.0,0.0,0.0,0.0,0.0,0.0,0.0,0.0,0.0,0.0,0.0,0.0,0.0,0.0,0.0,0.0,0.0,0.0,0.0,0.0,0.0,0.0,0.0,0.0,0.0,0.0,0.0,0.0,0.0,0.0,0.0,0.0,0.0,0.0,0.0,0.0,0.0,0.0,0.0,0.0,0.0,0.0,0.0,0.0,0.0,0.0,0.0,0.0,0.0,0.0,0.0,0.0,0.0,0.0,0.0,0.0,0.0,0.0,0.0,0.0,0.0,0.0,0.0,0.0,0.0,0.0,0.0,0.0,-0.2318,-0.3524,-0.4628,-0.5682,-0.6592,-0.7472,-0.7786,-0.7921,-0.7897,-0.7837,-0.7887,-0.7961,-0.7978,-0.7975,-0.7971,-0.7971,-0.7958,-0.7965,-0.7982,-0.7988,-0.7988,-0.8733,-0.9867,-1.1033,-1.2242,-1.3505,-1.4627,-1.5397,-1.5825,-1.5818,-1.5678,0.9153,0.8238,0.5412,0.4,0.3326,0.228,0.1849,0.1973,0.1912,0.1911,0.1911,0.1542,0.1295,0.0926,0.0617,0.0309,0.0,0.0,0.0,0.0,0.0,0.0,0.0,0.0,0.0,0.0,0.028,0.0561,0.0785,0.0897,0.0561,0.0,0.0,0.0,0.0,0.0,0.0,0.0,0.0,0.0,0.0,0.0,0.0,0.0,0.0,0.0,0.0,0.0,0.0,0.0,0.0,0.0,0.0,0.0,0.0,0.0,0.0,0.0,0.0,0.0,0.0,0.0,0.0,0.0,0.0,0.0,0.0,0.0,0.0,0.0,0.0,0.0,0.0,0.0,0.0,0.0,0.0,0.0,0.0,0.0,0.0,0.0,0.0,0.0,-0.1362,-0.2518,-0.4227,-0.5331,-0.6534,-0.739,-0.7753,-0.7971,-0.7975,-0.7955,-0.7994,-0.7965,-0.7951,-0.7948,-0.7944,-0.7958,-0.7968,-0.7982,-0.7988,-0.7988,-0.8038,-0.8684,-0.9426,-1.0739,-1.2047,-1.336,-1.4478,-1.5391,-1.5785,-1.5752,-1.5518,0.9518,0.8973,0.7436,0.627,0.5228,0.4244,0.3815,0.3815,0.3815,0.3815,0.3753,0.32,0.2586,0.1972,0.1295,0.0679,0.0,0.0,0.0,0.0,0.0,0.0,0.0,0.0,0.0,0.0,0.0448,0.112,0.1679,0.168,0.1623,0.1288,0.0728,0.0,0.0,0.0,0.0,0.0,0.0,0.0,0.0,0.0,0.0,0.0,0.0,0.0,0.0,0.0,0.0,0.0,0.0,0.0,0.0,0.0,0.0,0.0,0.0,0.0,0.0,0.0,0.0,0.0,0.0,0.0,0.0,0.0,0.0,0.0,0.0,0.0,0.0,0.0,0.0,0.0,0.0,0.0,0.0,0.0,0.0,0.0,0.0,0.0,0.0,0.0,-0.0757,-0.1512,-0.3321,-0.4981,-0.6182,-0.7285,-0.7736,-0.7988,-0.7988,-0.7988,-0.7978,-0.7951,-0.7917,-0.7921,-0.7924,-0.7941,-0.7965,-0.7982,-0.7988,-0.7988,-0.8088,-0.8535,-0.9369,-1.0592,-1.1853,-1.3167,-1.443,-1.5635,-1.5772,-1.5712,-1.5478,0.964,0.9396,0.8964,0.8047,0.6823,0.5902,0.5471,0.5469,0.5471,0.5469,0.5408,0.4797,0.3937,0.3078,0.2403,0.1542,0.0925,0.0,0.0,0.0,0.0,0.0405,0.0284,0.0,0.0,0.0168,0.0729,0.1457,0.2405,0.2574,0.263,0.2407,0.1735,0.1008,0.0,0.0,0.0,0.0,0.0,0.0,0.0,0.0,0.0,0.0,0.0,0.0,0.0,0.0,0.0,0.0,0.0,0.0,0.0,0.0,0.0,0.0,0.0,0.0,0.0,0.0,0.0,0.0,0.0,0.0,0.0,0.0,0.0,0.0,0.0,0.0,0.0,0.0,0.0,0.0,0.0,0.0,0.0,0.0,0.0,0.0,0.0,0.0,0.0,0.0,-0.0605,-0.1462,-0.3067,-0.4676,-0.5884,-0.6936,-0.7839,-0.7988,-0.7988,-0.7988,-0.7985,-0.7921,-0.7919,-0.7928,-0.7931,-0.7931,-0.8001,-0.7971,-0.7988,-0.7988,-0.8137,-0.8386,-0.9122,-1.0096,-1.1463,-1.2931,-1.428,-1.5635,-1.5764,-1.5738,-1.5585,0.9819,0.9758,0.9758,0.9028,0.7869,0.7194,0.6888,0.6947,0.6947,0.6945,0.6886,0.6213,0.5414,0.4492,0.3877,0.3018,0.228,0.2094,0.2074,0.2042,0.1722,0.1343,0.0976,0.0737,0.0338,0.028,0.0897,0.1905,0.3131,0.3527,0.3695,0.3749,0.3189,0.0,0.0,0.0,0.0,0.0,0.0,0.0,0.0,0.0,0.0,0.0,0.0,0.0,0.0,0.0,0.0,0.0,0.0,0.0,0.0,0.0,0.0,0.0,0.0,0.0,0.0,0.0,0.0,0.0,0.0,0.0,0.0,0.0,0.0,0.0,0.0,0.0,0.0,0.0,0.0,0.0,0.0,0.0,0.0,0.0,0.0,0.0,0.0,0.0,0.0,0.0,0.0,-0.1562,-0.3016,-0.4321,-0.5482,-0.6637,-0.764,-0.7939,-0.7939,-0.7988,-0.7968,-0.7913,-0.7879,-0.7946,-0.7991,-0.7948,-0.7958,-0.7978,-0.7988,-0.7988,-0.8088,-0.8287,-0.8825,-0.9505,-1.1023,-1.2587,-1.4286,-1.5445,-1.5629,-1.5738,-1.5604,0.9819,0.9819,0.9819,0.9576,0.915,0.8906,0.8842,0.8845,0.8842,0.8781,0.8659,0.8113,0.7309,0.6449,0.5594,0.4797,0.406,0.3935,0.3905,0.3852,0.3286,0.2641,0.2078,0.1429,0.0793,0.0506,0.1121,0.2575,0.4024,0.4477,0.5202,0.5367,0.4474,0.2911,0.0,0.0723,0.0,0.0,0.0,0.0,0.0,0.0,0.0,0.0,0.0,0.0,0.0,0.0,0.0,0.0,0.0,0.0,0.0,0.0,0.0,0.0,0.0,0.0,0.0,0.0,0.0,0.0,0.0,0.0,0.0,0.0,0.0,0.0,0.0,0.0,0.0,0.0,0.0,0.0,0.0,0.0,0.0,0.0,0.0,0.0,0.0,0.0,0.0,0.0,0.0,-0.1117,-0.2383,-0.3679,-0.4883,-0.6287,-0.7441,-0.7693,-0.7842,-0.7939,-0.7955,-0.7916,-0.7889,-0.7946,-0.7948,-0.7975,-0.7985,-0.7961,-0.7985,-0.7982,-0.8038,-0.8141,-0.8627,-0.9361,-1.0734,-1.229,-1.3601,-1.4962,-1.5588,-1.573,-1.5785,0.9819,0.9819,0.9819,0.9819,0.9819,0.9819,0.9819,0.9819,0.9819,0.9819,0.964,0.9153,0.8477,0.7736,0.7126,0.6453,0.5655,0.5592,0.5584,0.5507,0.4872,0.404,0.3222,0.2423,0.1657,0.1245,0.191,0.3304,0.4749,0.5536,0.6151,0.6316,0.5697,0.4418,0.2966,0.2122,0.117,0.0773,0.0,0.0,0.0,0.0,0.0,0.0,0.0,0.0,0.0,0.0,0.0,0.0,0.0,0.0,0.0,0.0,0.0,0.0,0.0,0.0,0.0,0.0,0.0,0.0,0.0,0.0,0.0,0.0,0.0,0.0,0.0,0.0,0.0,0.0,0.0,0.0,0.0,0.0,0.0,0.0,0.0,0.0,0.0,0.0,0.0,0.0,0.0,-0.0923,-0.1689,-0.2946,-0.4187,-0.5636,-0.6889,-0.7238,-0.764,-0.7839,-0.7908,-0.794,-0.7926,-0.7953,-0.7907,-0.7904,-0.7953,-0.7916,-0.797,-0.7978,-0.8035,-0.8137,-0.8382,-0.9167,-1.0194,-1.1219,-1.2387,-1.3746,-1.5207,-1.5594,-1.5635,0.9819,0.9819,0.9819,0.9819,0.9819,0.9819,0.9819,0.9819,0.9819,0.9819,0.9758,0.9457,0.9028,0.848,0.8113,0.7683,0.7192,0.707,0.7062,0.6855,0.6429,0.5532,0.4695,0.3859,0.3119,0.2746,0.3174,0.4326,0.5479,0.6538,0.7102,0.7213,0.6818,0.5982,0.492,0.3799,0.2513,0.1674,0.0,0.0,0.0,0.0,0.0,0.0,0.0,0.0,0.0,0.0,0.0,0.0,0.0,0.0,0.0,0.0,0.0,0.0,0.0,0.0,0.0,0.0,0.0,0.0,0.0,0.0,0.0,0.0,0.0,0.0,0.0,0.0,0.0,0.0,0.0,0.0,0.0,0.0,0.0,0.0,0.0,0.0,0.0,0.0,0.0,0.0,0.0,-0.0417,-0.1038,-0.1745,-0.3053,-0.4834,-0.5934,-0.6584,-0.7036,-0.769,-0.7803,-0.7661,-0.7759,-0.7713,-0.7762,-0.779,-0.7794,-0.7851,-0.7926,-0.7938,-0.7975,-0.8088,-0.8283,-0.8627,-0.9167,-1.0243,-1.1321,-1.2877,-1.443,-1.5166,-1.5404,0.9819,0.9819,0.9819,0.9819,0.9819,0.9819,0.9819,0.9819,0.9819,0.9819,0.9819,0.97,0.9454,0.9393,0.9332,0.9089,0.8967,0.8964,0.8967,0.8636,0.8002,0.7336,0.6547,0.57,0.4855,0.4436,0.4671,0.542,0.6434,0.7487,0.8162,0.8325,0.7989,0.7598,0.6871,0.5975,0.4362,0.2911,0.1905,0.1457,0.1345,0.1337,0.1223,0.1048,0.0761,0.0645,0.0374,0.0106,0.0,0.0,0.0,0.0,0.0,0.0,0.0,0.0,0.0,0.0,0.0,0.0,0.0,0.0,0.0,0.0,0.0,0.0,0.0,0.0,0.0,0.0,0.0,0.0,0.0,0.0,0.0,0.0,0.0,0.0,0.0,0.0,0.0,0.0,0.0,0.0,0.0,0.0,-0.0421,-0.0989,-0.19,-0.3606,-0.478,-0.5429,-0.6129,-0.6681,-0.7132,-0.7102,-0.7328,-0.7505,-0.7545,-0.7682,-0.7756,-0.7821,-0.7892,-0.7911,-0.7971,-0.7988,-0.8038,-0.8382,-0.8775,-0.9316,-1.0346,-1.1999,-1.3409,-1.419,-1.5099,0.9771,0.9819,0.9819,0.9819,0.9819,0.9819,0.9819,0.9819,0.9819,0.9819,0.9819,0.9758,0.9819,0.9758,0.9758,0.9697,0.9697,0.9576,0.9576,0.9457,0.9275,0.8433,0.7769,0.7215,0.6325,0.5989,0.6016,0.6522,0.7287,0.8152,0.8881,0.8826,0.8937,0.8602,0.7986,0.7146,0.6258,0.4866,0.3749,0.308,0.2857,0.2801,0.2576,0.2178,0.1763,0.1205,0.0765,0.0377,0.0,0.0,0.0,0.0,0.0,0.0,0.0,0.0,0.0,0.0,0.0,0.0,0.0,0.0,0.0,0.0,0.0,0.0,0.0,0.0,0.0,0.0,0.0,0.0,0.0,0.0,0.0,0.0,0.0,0.0,0.0,0.0,0.0,0.0,0.0,0.0,0.0,0.0,0.0,-0.0425,-0.1149,-0.2307,-0.3342,-0.4022,-0.4774,-0.5475,-0.5927,-0.6418,-0.668,-0.7012,-0.7385,-0.751,-0.7651,-0.777,-0.7828,-0.7877,-0.7982,-0.7988,-0.7988,-0.8088,-0.8432,-0.8924,-0.9365,-1.0489,-1.195,-1.3119,-1.411,0.9686,0.9802,0.9815,0.9819,0.9819,0.9819,0.9819,0.9819,0.9819,0.9819,0.9819,0.9819,0.9819,0.9819,0.9819,0.9819,0.9819,0.9819,0.9819,0.9819,0.9518,0.9006,0.8609,0.8116,0.763,0.7277,0.7287,0.7647,0.7859,0.8488,0.8937,0.8937,0.8937,0.8768,0.8432,0.8039,0.7374,0.6871,0.5757,0.4975,0.4641,0.4528,0.4359,0.3682,0.2874,0.2082,0.1421,0.0758,0.0,0.0,0.0,0.0,0.0,0.0,0.0,0.0,0.0,0.0,0.0,0.0,0.0,0.0,0.0,0.0,0.0,0.0,0.0,0.0,0.0,0.0,0.0,0.0,0.0,0.0,0.0,0.0,0.0,0.0,0.0,0.0,0.0,0.0,0.0,0.0,0.0,0.0,0.0,0.0,0.0,0.0,-0.2059,-0.2746,-0.35,-0.4261,-0.4746,-0.5275,-0.5878,-0.6345,-0.6879,-0.7392,-0.7521,-0.765,-0.7753,-0.7896,-0.7988,-0.7988,-0.8038,-0.8088,-0.8137,-0.8283,-0.8726,-0.9167,-1.0297,-1.1746,-1.2931,0.9629,0.9673,0.9778,0.9819,0.9819,0.9819,0.9815,0.9819,0.9819,0.9808,0.9819,0.9815,0.9819,0.9819,0.9819,0.9819,0.9819,0.9819,0.9819,0.9819,0.964,0.9515,0.9454,0.9153,0.8891,0.8913,0.8842,0.8682,0.864,0.8801,0.8895,0.8895,0.8912,0.887,0.8791,0.851,0.8396,0.8217,0.7765,0.676,0.6035,0.5815,0.559,0.4918,0.411,0.3387,0.2663,0.1887,0.1384,0.0,0.0,0.0,0.0,0.0,0.0,0.0,0.0,0.0,0.0,0.0,0.0,0.0,0.0,0.0,0.0,0.0,0.0,0.0,0.0,0.0,0.0,0.0,0.0,0.0,0.0,0.0,0.0,0.0,0.0,0.0,0.0,0.0,0.0,0.0,0.0,0.0,0.0,0.0,0.0,0.0,0.0,-0.1777,-0.2325,-0.2985,-0.3525,-0.4138,-0.472,-0.5625,-0.6295,-0.6783,-0.7353,-0.7642,-0.7838,-0.7891,-0.7988,-0.7988,-0.7988,-0.7988,-0.8038,-0.8112,-0.8279,-0.8796,-0.918,-1.0349,-1.1501,0.9445,0.9513,0.9591,0.9625,0.9625,0.9625,0.9625,0.9625,0.9625,0.9625,0.9656,0.9751,0.9819,0.9819,0.9819,0.9819,0.9819,0.9819,0.9819,0.9819,0.9819,0.9758,0.9819,0.9815,0.9563,0.952,0.9405,0.9222,0.913,0.914,0.915,0.9123,0.912,0.9093,0.9055,0.9028,0.8994,0.8888,0.8944,0.8325,0.7321,0.7321,0.7154,0.6482,0.5701,0.4921,0.425,0.347,0.2855,0.2128,0.1566,0.0671,0.0,0.0,0.0,0.0,0.0,0.0,0.0,0.0,0.0,0.0,0.0,0.0,0.0,0.0,0.0,0.0,0.0,0.0,0.0,0.0,0.0,0.0,0.0,0.0,0.0,0.0,0.0,0.0,0.0,0.0,0.0,0.0,0.0,0.0,0.0,0.0,0.0,0.0,0.0,0.0,0.0,0.0,-0.2013,-0.2698,-0.3509,-0.4491,-0.5545,-0.6548,-0.7238,-0.766,-0.7936,-0.7902,-0.7939,-0.7988,-0.7988,-0.8002,-0.8113,-0.816,-0.8271,-0.848,-0.8823,-0.914,-0.9991,0.9309,0.9371,0.9384,0.9384,0.9381,0.9384,0.9391,0.9395,0.9388,0.9408,0.9476,0.9693,0.9781,0.9795,0.9819,0.9819,0.9819,0.9819,0.9819,0.9819,0.9819,0.9819,0.9819,0.9808,0.9703,0.9581,0.9452,0.9401,0.9327,0.9323,0.9323,0.9371,0.9354,0.9313,0.9272,0.92,0.9093,0.9008,0.8974,0.8944,0.8826,0.8881,0.8377,0.7873,0.726,0.6536,0.5866,0.5196,0.4416,0.3525,0.2464,0.1401,0.0729,0.0,0.0,0.0,0.0,0.0,0.0,0.0,0.0,0.0,0.0,0.0,0.0,0.0,0.0,0.0,0.0,0.0,0.0,0.0,0.0,0.0,0.0,0.0,0.0,0.0,0.0,0.0,0.0,0.0,0.0,0.0,0.0,0.0,0.0,0.0,0.0,0.0,0.0,0.0,0.0,0.0,0.0,-0.1545,-0.2536,-0.3501,-0.464,-0.6022,-0.7079,-0.7299,-0.7513,-0.776,-0.7786,-0.7892,-0.8015,-0.8085,-0.8157,-0.8252,-0.834,-0.8467,-0.8574,-0.88,-0.8751,0.9242,0.9381,0.9381,0.9374,0.9374,0.9374,0.9381,0.9378,0.9374,0.9442,0.953,0.9588,0.9649,0.9656,0.9778,0.9819,0.9819,0.9819,0.9819,0.9819,0.9819,0.9819,0.9819,0.9815,0.973,0.9622,0.9503,0.9412,0.9462,0.9432,0.9391,0.9412,0.9405,0.9374,0.934,0.9262,0.9231,0.9106,0.9028,0.8991,0.8915,0.885,0.8712,0.8263,0.7762,0.7318,0.6816,0.6318,0.5704,0.4812,0.3695,0.252,0.1793,0.1289,0.1065,0.0728,0.0616,0.0224,0.0,0.0,0.0,0.0,0.0,0.0,0.0,0.0,0.0,0.0,0.0,0.0,0.0,0.0,0.0,0.0,0.0,0.0,0.0,0.0,0.0,0.0,0.0,0.0,0.0,0.0,0.0,0.0,0.0,0.0,0.0,0.0,0.0,0.0,0.0,0.0,-0.0488,-0.0892,-0.175,-0.2639,-0.3643,-0.4912,-0.5968,-0.6686,-0.6991,-0.7173,-0.754,-0.7696,-0.7822,-0.814,-0.8235,-0.833,-0.8404,-0.8511,-0.852,-0.8587,-0.8682]}]]